<?xml version="1.0" encoding="UTF-8" standalone="yes"?>
<gpx
 xmlns="http://www.topografix.com/GPX/1/1"
 creator="OziExplorer Version 3956f - http://www.oziexplorer.com"
 version="1.1"
 xmlns:xsi="http://www.w3.org/2001/XMLSchema-instance"
 xsi:schemaLocation="http://www.topografix.com/GPX/1/1 http://www.topografix.com/GPX/1/1/gpx.xsd">
<metadata>
 <time>2021-03-31T09:34:12Z</time>
 <bounds minlat="30.525370" minlon="34.673130" maxlat="30.625060" maxlon="34.872620"/>
</metadata>
<wpt lat="30.6028819" lon="34.7965123">
 <time>2021-03-31T09:13:24.569Z</time>
 <name>1-TATSPIT</name>
</wpt>
<wpt lat="30.6024280" lon="34.7960027">
 <time>2021-03-31T09:13:41.302Z</time>
 <name>2-TATSPIT</name>
</wpt>
<wpt lat="30.6017874" lon="34.7918668">
 <time>2021-03-31T09:14:41.766Z</time>
 <name>3-TATSPIT</name>
</wpt>
<wpt lat="30.5998450" lon="34.7804835">
 <time>2021-03-31T09:14:52.829Z</time>
 <name>4-TATSPIT</name>
</wpt>
<wpt lat="30.5972521" lon="34.7722974">
 <time>2021-03-31T09:15:02.121Z</time>
 <name>5-TATSPIT</name>
</wpt>
<wpt lat="30.5980866" lon="34.7720747">
 <time>2021-03-31T09:24:41.226Z</time>
 <name>6-STOLIKI</name>
</wpt>
<wpt lat="30.5981789" lon="34.7717743">
 <time>2021-03-31T09:24:42.591Z</time>
 <name>7-VODA</name>
</wpt>
<trk>
 <name>RamonNew+Prizmot_61km.800m</name>
 <desc>RamonNew+Prizmot_61km.800m</desc>
<trkseg>
<trkpt lat="30.6121700" lon="34.8047200">
<ele>826.220032</ele>
<time>2021-03-31T12:34:12.866Z</time>
</trkpt>
<trkpt lat="30.6121600" lon="34.8047000">
<ele>825.839966</ele>
<time>2021-03-31T12:34:12.867Z</time>
</trkpt>
<trkpt lat="30.6121000" lon="34.8044900">
<ele>823.000061</ele>
<time>2021-03-31T12:34:12.867Z</time>
</trkpt>
<trkpt lat="30.6120800" lon="34.8044100">
<ele>823.229980</ele>
<time>2021-03-31T12:34:12.867Z</time>
</trkpt>
<trkpt lat="30.6120500" lon="34.8043400">
<ele>824.549988</ele>
<time>2021-03-31T12:34:12.867Z</time>
</trkpt>
<trkpt lat="30.6116800" lon="34.8045100">
<ele>828.000000</ele>
<time>2021-03-31T12:34:12.867Z</time>
</trkpt>
<trkpt lat="30.6114600" lon="34.8046400">
<ele>827.849976</ele>
<time>2021-03-31T12:34:12.867Z</time>
</trkpt>
<trkpt lat="30.6113300" lon="34.8047600">
<ele>828.189941</ele>
<time>2021-03-31T12:34:12.867Z</time>
</trkpt>
<trkpt lat="30.6111500" lon="34.8048900">
<ele>829.220032</ele>
<time>2021-03-31T12:34:12.867Z</time>
</trkpt>
<trkpt lat="30.6110700" lon="34.8049300">
<ele>829.129944</ele>
<time>2021-03-31T12:34:12.867Z</time>
</trkpt>
<trkpt lat="30.6110300" lon="34.8049600">
<ele>829.220032</ele>
<time>2021-03-31T12:34:12.867Z</time>
</trkpt>
<trkpt lat="30.6110200" lon="34.8049600">
<ele>829.320007</ele>
<time>2021-03-31T12:34:12.867Z</time>
</trkpt>
<trkpt lat="30.6109300" lon="34.8048400">
<ele>830.929993</ele>
<time>2021-03-31T12:34:12.867Z</time>
</trkpt>
<trkpt lat="30.6108100" lon="34.8047200">
<ele>832.169983</ele>
<time>2021-03-31T12:34:12.867Z</time>
</trkpt>
<trkpt lat="30.6107800" lon="34.8046900">
<ele>832.359985</ele>
<time>2021-03-31T12:34:12.867Z</time>
</trkpt>
<trkpt lat="30.6106700" lon="34.8046300">
<ele>832.979980</ele>
<time>2021-03-31T12:34:12.867Z</time>
</trkpt>
<trkpt lat="30.6104200" lon="34.8045400">
<ele>834.640015</ele>
<time>2021-03-31T12:34:12.867Z</time>
</trkpt>
<trkpt lat="30.6095900" lon="34.8042100">
<ele>845.190002</ele>
<time>2021-03-31T12:34:12.867Z</time>
</trkpt>
<trkpt lat="30.6095300" lon="34.8041600">
<ele>847.060059</ele>
<time>2021-03-31T12:34:12.867Z</time>
</trkpt>
<trkpt lat="30.6093700" lon="34.8040500">
<ele>847.679993</ele>
<time>2021-03-31T12:34:12.867Z</time>
</trkpt>
<trkpt lat="30.6092000" lon="34.8039100">
<ele>848.779968</ele>
<time>2021-03-31T12:34:12.867Z</time>
</trkpt>
<trkpt lat="30.6084800" lon="34.8029800">
<ele>853.130005</ele>
<time>2021-03-31T12:34:12.867Z</time>
</trkpt>
<trkpt lat="30.6083200" lon="34.8027900">
<ele>851.989990</ele>
<time>2021-03-31T12:34:12.867Z</time>
</trkpt>
<trkpt lat="30.6083200" lon="34.8027900">
<ele>851.989990</ele>
<time>2021-03-31T12:34:12.867Z</time>
</trkpt>
<trkpt lat="30.6082800" lon="34.8027300">
<ele>851.420044</ele>
<time>2021-03-31T12:34:12.867Z</time>
</trkpt>
<trkpt lat="30.6082100" lon="34.8027900">
<ele>850.799988</ele>
<time>2021-03-31T12:34:12.868Z</time>
</trkpt>
<trkpt lat="30.6080000" lon="34.8029500">
<ele>850.740051</ele>
<time>2021-03-31T12:34:12.868Z</time>
</trkpt>
<trkpt lat="30.6074000" lon="34.8034100">
<ele>854.539978</ele>
<time>2021-03-31T12:34:12.868Z</time>
</trkpt>
<trkpt lat="30.6071100" lon="34.8036200">
<ele>854.939941</ele>
<time>2021-03-31T12:34:12.868Z</time>
</trkpt>
<trkpt lat="30.6068700" lon="34.8038200">
<ele>854.019958</ele>
<time>2021-03-31T12:34:12.868Z</time>
</trkpt>
<trkpt lat="30.6067600" lon="34.8038800">
<ele>855.970032</ele>
<time>2021-03-31T12:34:12.868Z</time>
</trkpt>
<trkpt lat="30.6066600" lon="34.8039700">
<ele>858.719971</ele>
<time>2021-03-31T12:34:12.868Z</time>
</trkpt>
<trkpt lat="30.6064200" lon="34.8041900">
<ele>859.380005</ele>
<time>2021-03-31T12:34:12.868Z</time>
</trkpt>
<trkpt lat="30.6063100" lon="34.8043500">
<ele>851.530029</ele>
<time>2021-03-31T12:34:12.868Z</time>
</trkpt>
<trkpt lat="30.6060100" lon="34.8039100">
<ele>856.940002</ele>
<time>2021-03-31T12:34:12.868Z</time>
</trkpt>
<trkpt lat="30.6058600" lon="34.8037900">
<ele>855.000000</ele>
<time>2021-03-31T12:34:12.868Z</time>
</trkpt>
<trkpt lat="30.6057200" lon="34.8035900">
<ele>853.070007</ele>
<time>2021-03-31T12:34:12.868Z</time>
</trkpt>
<trkpt lat="30.6057200" lon="34.8035800">
<ele>853.440002</ele>
<time>2021-03-31T12:34:12.868Z</time>
</trkpt>
<trkpt lat="30.6057200" lon="34.8035800">
<ele>853.440002</ele>
<time>2021-03-31T12:34:12.868Z</time>
</trkpt>
<trkpt lat="30.6057200" lon="34.8035800">
<ele>853.440002</ele>
<time>2021-03-31T12:34:12.868Z</time>
</trkpt>
<trkpt lat="30.6056500" lon="34.8033700">
<ele>859.419983</ele>
<time>2021-03-31T12:34:12.868Z</time>
</trkpt>
<trkpt lat="30.6055200" lon="34.8031800">
<ele>859.239990</ele>
<time>2021-03-31T12:34:12.868Z</time>
</trkpt>
<trkpt lat="30.6053200" lon="34.8029500">
<ele>857.270020</ele>
<time>2021-03-31T12:34:12.868Z</time>
</trkpt>
<trkpt lat="30.6053600" lon="34.8026800">
<ele>865.169983</ele>
<time>2021-03-31T12:34:12.868Z</time>
</trkpt>
<trkpt lat="30.6054400" lon="34.8022000">
<ele>868.200012</ele>
<time>2021-03-31T12:34:12.868Z</time>
</trkpt>
<trkpt lat="30.6056700" lon="34.8020300">
<ele>858.860046</ele>
<time>2021-03-31T12:34:12.868Z</time>
</trkpt>
<trkpt lat="30.6053400" lon="34.8014300">
<ele>863.519958</ele>
<time>2021-03-31T12:34:12.868Z</time>
</trkpt>
<trkpt lat="30.6053400" lon="34.8014300">
<ele>863.519958</ele>
<time>2021-03-31T12:34:12.868Z</time>
</trkpt>
<trkpt lat="30.6053400" lon="34.8014300">
<ele>863.519958</ele>
<time>2021-03-31T12:34:12.869Z</time>
</trkpt>
<trkpt lat="30.6053400" lon="34.8014300">
<ele>863.519958</ele>
<time>2021-03-31T12:34:12.869Z</time>
</trkpt>
<trkpt lat="30.6051900" lon="34.8011700">
<ele>860.750000</ele>
<time>2021-03-31T12:34:12.869Z</time>
</trkpt>
<trkpt lat="30.6050800" lon="34.8009900">
<ele>857.679993</ele>
<time>2021-03-31T12:34:12.869Z</time>
</trkpt>
<trkpt lat="30.6049500" lon="34.8008300">
<ele>854.090027</ele>
<time>2021-03-31T12:34:12.869Z</time>
</trkpt>
<trkpt lat="30.6049200" lon="34.8008000">
<ele>853.469971</ele>
<time>2021-03-31T12:34:12.869Z</time>
</trkpt>
<trkpt lat="30.6048600" lon="34.8007500">
<ele>852.329956</ele>
<time>2021-03-31T12:34:12.869Z</time>
</trkpt>
<trkpt lat="30.6048300" lon="34.8007200">
<ele>851.779968</ele>
<time>2021-03-31T12:34:12.869Z</time>
</trkpt>
<trkpt lat="30.6047000" lon="34.8007400">
<ele>849.840027</ele>
<time>2021-03-31T12:34:12.869Z</time>
</trkpt>
<trkpt lat="30.6045600" lon="34.8008100">
<ele>848.829956</ele>
<time>2021-03-31T12:34:12.869Z</time>
</trkpt>
<trkpt lat="30.6043600" lon="34.8008300">
<ele>847.099976</ele>
<time>2021-03-31T12:34:12.869Z</time>
</trkpt>
<trkpt lat="30.6041600" lon="34.8008300">
<ele>845.030029</ele>
<time>2021-03-31T12:34:12.869Z</time>
</trkpt>
<trkpt lat="30.6039900" lon="34.8007100">
<ele>847.020020</ele>
<time>2021-03-31T12:34:12.869Z</time>
</trkpt>
<trkpt lat="30.6037700" lon="34.8006100">
<ele>852.390015</ele>
<time>2021-03-31T12:34:12.869Z</time>
</trkpt>
<trkpt lat="30.6036200" lon="34.8005800">
<ele>856.280029</ele>
<time>2021-03-31T12:34:12.869Z</time>
</trkpt>
<trkpt lat="30.6036200" lon="34.8004400">
<ele>857.640015</ele>
<time>2021-03-31T12:34:12.869Z</time>
</trkpt>
<trkpt lat="30.6037200" lon="34.8003600">
<ele>856.059998</ele>
<time>2021-03-31T12:34:12.869Z</time>
</trkpt>
<trkpt lat="30.6037900" lon="34.8002200">
<ele>854.880005</ele>
<time>2021-03-31T12:34:12.869Z</time>
</trkpt>
<trkpt lat="30.6037800" lon="34.8000600">
<ele>854.539978</ele>
<time>2021-03-31T12:34:12.869Z</time>
</trkpt>
<trkpt lat="30.6037600" lon="34.7998900">
<ele>853.460022</ele>
<time>2021-03-31T12:34:12.869Z</time>
</trkpt>
<trkpt lat="30.6038200" lon="34.7996900">
<ele>847.549988</ele>
<time>2021-03-31T12:34:12.870Z</time>
</trkpt>
<trkpt lat="30.6038800" lon="34.7993500">
<ele>842.909973</ele>
<time>2021-03-31T12:34:12.870Z</time>
</trkpt>
<trkpt lat="30.6039900" lon="34.7990400">
<ele>838.830017</ele>
<time>2021-03-31T12:34:12.870Z</time>
</trkpt>
<trkpt lat="30.6040400" lon="34.7987900">
<ele>839.510010</ele>
<time>2021-03-31T12:34:12.870Z</time>
</trkpt>
<trkpt lat="30.6040100" lon="34.7985900">
<ele>842.750000</ele>
<time>2021-03-31T12:34:12.870Z</time>
</trkpt>
<trkpt lat="30.6038800" lon="34.7983400">
<ele>849.000000</ele>
<time>2021-03-31T12:34:12.870Z</time>
</trkpt>
<trkpt lat="30.6037900" lon="34.7983100">
<ele>850.119995</ele>
<time>2021-03-31T12:34:12.870Z</time>
</trkpt>
<trkpt lat="30.6036000" lon="34.7984100">
<ele>852.379944</ele>
<time>2021-03-31T12:34:12.870Z</time>
</trkpt>
<trkpt lat="30.6034700" lon="34.7984900">
<ele>857.149963</ele>
<time>2021-03-31T12:34:12.870Z</time>
</trkpt>
<trkpt lat="30.6033300" lon="34.7985600">
<ele>862.650024</ele>
<time>2021-03-31T12:34:12.870Z</time>
</trkpt>
<trkpt lat="30.6032100" lon="34.7985200">
<ele>863.370056</ele>
<time>2021-03-31T12:34:12.870Z</time>
</trkpt>
<trkpt lat="30.6029800" lon="34.7983000">
<ele>861.669983</ele>
<time>2021-03-31T12:34:12.870Z</time>
</trkpt>
<trkpt lat="30.6028500" lon="34.7981100">
<ele>857.309998</ele>
<time>2021-03-31T12:34:12.870Z</time>
</trkpt>
<trkpt lat="30.6028500" lon="34.7979400">
<ele>859.489990</ele>
<time>2021-03-31T12:34:12.870Z</time>
</trkpt>
<trkpt lat="30.6028700" lon="34.7979100">
<ele>860.059998</ele>
<time>2021-03-31T12:34:12.870Z</time>
</trkpt>
<trkpt lat="30.6028700" lon="34.7979100">
<ele>860.059998</ele>
<time>2021-03-31T12:34:12.870Z</time>
</trkpt>
<trkpt lat="30.6029000" lon="34.7978800">
<ele>860.530029</ele>
<time>2021-03-31T12:34:12.870Z</time>
</trkpt>
<trkpt lat="30.6029000" lon="34.7978800">
<ele>860.530029</ele>
<time>2021-03-31T12:34:12.870Z</time>
</trkpt>
<trkpt lat="30.6028600" lon="34.7977800">
<ele>861.380005</ele>
<time>2021-03-31T12:34:12.870Z</time>
</trkpt>
<trkpt lat="30.6028600" lon="34.7977800">
<ele>861.380005</ele>
<time>2021-03-31T12:34:12.870Z</time>
</trkpt>
<trkpt lat="30.6029000" lon="34.7973800">
<ele>863.979980</ele>
<time>2021-03-31T12:34:12.870Z</time>
</trkpt>
<trkpt lat="30.6028100" lon="34.7973100">
<ele>865.139954</ele>
<time>2021-03-31T12:34:12.870Z</time>
</trkpt>
<trkpt lat="30.6027200" lon="34.7971700">
<ele>863.580017</ele>
<time>2021-03-31T12:34:12.870Z</time>
</trkpt>
<trkpt lat="30.6026200" lon="34.7969100">
<ele>862.139954</ele>
<time>2021-03-31T12:34:12.870Z</time>
</trkpt>
<trkpt lat="30.6026000" lon="34.7968100">
<ele>862.549988</ele>
<time>2021-03-31T12:34:12.870Z</time>
</trkpt>
<trkpt lat="30.6026000" lon="34.7968100">
<ele>862.549988</ele>
<time>2021-03-31T12:34:12.870Z</time>
</trkpt>
<trkpt lat="30.6026000" lon="34.7968100">
<ele>862.549988</ele>
<time>2021-03-31T12:34:12.870Z</time>
</trkpt>
<trkpt lat="30.6026000" lon="34.7968100">
<ele>862.549988</ele>
<time>2021-03-31T12:34:12.870Z</time>
</trkpt>
<trkpt lat="30.6025100" lon="34.7963700">
<ele>860.909973</ele>
<time>2021-03-31T12:34:12.870Z</time>
</trkpt>
<trkpt lat="30.6026000" lon="34.7960100">
<ele>855.609985</ele>
<time>2021-03-31T12:34:12.870Z</time>
</trkpt>
<trkpt lat="30.6026900" lon="34.7960200">
<ele>858.160034</ele>
<time>2021-03-31T12:34:12.870Z</time>
</trkpt>
<trkpt lat="30.6027400" lon="34.7959900">
<ele>858.559998</ele>
<time>2021-03-31T12:34:12.870Z</time>
</trkpt>
<trkpt lat="30.6029700" lon="34.7961100">
<ele>862.969971</ele>
<time>2021-03-31T12:34:12.870Z</time>
</trkpt>
<trkpt lat="30.6031500" lon="34.7963000">
<ele>866.279968</ele>
<time>2021-03-31T12:34:12.870Z</time>
</trkpt>
<trkpt lat="30.6031800" lon="34.7966000">
<ele>868.500000</ele>
<time>2021-03-31T12:34:12.870Z</time>
</trkpt>
<trkpt lat="30.6030300" lon="34.7966900">
<ele>870.589966</ele>
<time>2021-03-31T12:34:12.870Z</time>
</trkpt>
<trkpt lat="30.6029500" lon="34.7967500">
<ele>869.649963</ele>
<time>2021-03-31T12:34:12.870Z</time>
</trkpt>
<trkpt lat="30.6028500" lon="34.7966400">
<ele>870.070007</ele>
<time>2021-03-31T12:34:12.870Z</time>
</trkpt>
<trkpt lat="30.6028800" lon="34.7964900">
<ele>869.099976</ele>
<time>2021-03-31T12:34:12.871Z</time>
</trkpt>
<trkpt lat="30.6028800" lon="34.7964900">
<ele>869.099976</ele>
<time>2021-03-31T12:34:12.871Z</time>
</trkpt>
<trkpt lat="30.6028500" lon="34.7966400">
<ele>870.070007</ele>
<time>2021-03-31T12:34:12.871Z</time>
</trkpt>
<trkpt lat="30.6029500" lon="34.7967500">
<ele>869.649963</ele>
<time>2021-03-31T12:34:12.871Z</time>
</trkpt>
<trkpt lat="30.6030300" lon="34.7966900">
<ele>870.589966</ele>
<time>2021-03-31T12:34:12.871Z</time>
</trkpt>
<trkpt lat="30.6031800" lon="34.7966000">
<ele>868.500000</ele>
<time>2021-03-31T12:34:12.871Z</time>
</trkpt>
<trkpt lat="30.6031500" lon="34.7963000">
<ele>866.279968</ele>
<time>2021-03-31T12:34:12.871Z</time>
</trkpt>
<trkpt lat="30.6029700" lon="34.7961100">
<ele>862.969971</ele>
<time>2021-03-31T12:34:12.871Z</time>
</trkpt>
<trkpt lat="30.6027400" lon="34.7959900">
<ele>858.559998</ele>
<time>2021-03-31T12:34:12.871Z</time>
</trkpt>
<trkpt lat="30.6026900" lon="34.7960200">
<ele>858.160034</ele>
<time>2021-03-31T12:34:12.871Z</time>
</trkpt>
<trkpt lat="30.6026000" lon="34.7960100">
<ele>855.609985</ele>
<time>2021-03-31T12:34:12.871Z</time>
</trkpt>
<trkpt lat="30.6026200" lon="34.7954900">
<ele>842.019958</ele>
<time>2021-03-31T12:34:12.871Z</time>
</trkpt>
<trkpt lat="30.6026700" lon="34.7954000">
<ele>842.290039</ele>
<time>2021-03-31T12:34:12.871Z</time>
</trkpt>
<trkpt lat="30.6026700" lon="34.7954000">
<ele>842.290039</ele>
<time>2021-03-31T12:34:12.871Z</time>
</trkpt>
<trkpt lat="30.6026700" lon="34.7954000">
<ele>842.290039</ele>
<time>2021-03-31T12:34:12.871Z</time>
</trkpt>
<trkpt lat="30.6027600" lon="34.7952000">
<ele>843.839966</ele>
<time>2021-03-31T12:34:12.871Z</time>
</trkpt>
<trkpt lat="30.6029000" lon="34.7948900">
<ele>841.590027</ele>
<time>2021-03-31T12:34:12.871Z</time>
</trkpt>
<trkpt lat="30.6029000" lon="34.7948900">
<ele>841.590027</ele>
<time>2021-03-31T12:34:12.871Z</time>
</trkpt>
<trkpt lat="30.6029000" lon="34.7948900">
<ele>841.590027</ele>
<time>2021-03-31T12:34:12.871Z</time>
</trkpt>
<trkpt lat="30.6029100" lon="34.7948700">
<ele>841.369995</ele>
<time>2021-03-31T12:34:12.871Z</time>
</trkpt>
<trkpt lat="30.6027600" lon="34.7946600">
<ele>841.530029</ele>
<time>2021-03-31T12:34:12.871Z</time>
</trkpt>
<trkpt lat="30.6025800" lon="34.7945300">
<ele>841.159973</ele>
<time>2021-03-31T12:34:12.871Z</time>
</trkpt>
<trkpt lat="30.6023400" lon="34.7943600">
<ele>841.130005</ele>
<time>2021-03-31T12:34:12.871Z</time>
</trkpt>
<trkpt lat="30.6024000" lon="34.7937600">
<ele>847.679993</ele>
<time>2021-03-31T12:34:12.871Z</time>
</trkpt>
<trkpt lat="30.6022700" lon="34.7934400">
<ele>847.300049</ele>
<time>2021-03-31T12:34:12.871Z</time>
</trkpt>
<trkpt lat="30.6020300" lon="34.7931600">
<ele>847.440002</ele>
<time>2021-03-31T12:34:12.871Z</time>
</trkpt>
<trkpt lat="30.6020700" lon="34.7930600">
<ele>850.779968</ele>
<time>2021-03-31T12:34:12.872Z</time>
</trkpt>
<trkpt lat="30.6020700" lon="34.7930600">
<ele>850.779968</ele>
<time>2021-03-31T12:34:12.872Z</time>
</trkpt>
<trkpt lat="30.6020700" lon="34.7930600">
<ele>850.779968</ele>
<time>2021-03-31T12:34:12.872Z</time>
</trkpt>
<trkpt lat="30.6020700" lon="34.7930600">
<ele>850.779968</ele>
<time>2021-03-31T12:34:12.872Z</time>
</trkpt>
<trkpt lat="30.6022300" lon="34.7927300">
<ele>851.500000</ele>
<time>2021-03-31T12:34:12.872Z</time>
</trkpt>
<trkpt lat="30.6024300" lon="34.7923200">
<ele>851.270020</ele>
<time>2021-03-31T12:34:12.872Z</time>
</trkpt>
<trkpt lat="30.6030000" lon="34.7916300">
<ele>855.250000</ele>
<time>2021-03-31T12:34:12.872Z</time>
</trkpt>
<trkpt lat="30.6033400" lon="34.7908600">
<ele>856.380005</ele>
<time>2021-03-31T12:34:12.872Z</time>
</trkpt>
<trkpt lat="30.6038000" lon="34.7900900">
<ele>850.159973</ele>
<time>2021-03-31T12:34:12.872Z</time>
</trkpt>
<trkpt lat="30.6042800" lon="34.7895500">
<ele>851.070007</ele>
<time>2021-03-31T12:34:12.872Z</time>
</trkpt>
<trkpt lat="30.6044300" lon="34.7892100">
<ele>846.899963</ele>
<time>2021-03-31T12:34:12.872Z</time>
</trkpt>
<trkpt lat="30.6046900" lon="34.7887400">
<ele>842.510010</ele>
<time>2021-03-31T12:34:12.872Z</time>
</trkpt>
<trkpt lat="30.6050000" lon="34.7881800">
<ele>844.140015</ele>
<time>2021-03-31T12:34:12.872Z</time>
</trkpt>
<trkpt lat="30.6054100" lon="34.7874100">
<ele>836.019958</ele>
<time>2021-03-31T12:34:12.872Z</time>
</trkpt>
<trkpt lat="30.6057600" lon="34.7869100">
<ele>830.010010</ele>
<time>2021-03-31T12:34:12.872Z</time>
</trkpt>
<trkpt lat="30.6063300" lon="34.7868700">
<ele>829.859985</ele>
<time>2021-03-31T12:34:12.872Z</time>
</trkpt>
<trkpt lat="30.6068500" lon="34.7867200">
<ele>829.190002</ele>
<time>2021-03-31T12:34:12.872Z</time>
</trkpt>
<trkpt lat="30.6068200" lon="34.7864700">
<ele>833.279968</ele>
<time>2021-03-31T12:34:12.872Z</time>
</trkpt>
<trkpt lat="30.6068200" lon="34.7864700">
<ele>833.279968</ele>
<time>2021-03-31T12:34:12.872Z</time>
</trkpt>
<trkpt lat="30.6068200" lon="34.7864700">
<ele>833.279968</ele>
<time>2021-03-31T12:34:12.872Z</time>
</trkpt>
<trkpt lat="30.6068100" lon="34.7863800">
<ele>834.659973</ele>
<time>2021-03-31T12:34:12.872Z</time>
</trkpt>
<trkpt lat="30.6063000" lon="34.7859400">
<ele>846.029968</ele>
<time>2021-03-31T12:34:12.872Z</time>
</trkpt>
<trkpt lat="30.6059000" lon="34.7853900">
<ele>844.049988</ele>
<time>2021-03-31T12:34:12.872Z</time>
</trkpt>
<trkpt lat="30.6055700" lon="34.7846100">
<ele>835.759949</ele>
<time>2021-03-31T12:34:12.872Z</time>
</trkpt>
<trkpt lat="30.6053500" lon="34.7838400">
<ele>842.180054</ele>
<time>2021-03-31T12:34:12.872Z</time>
</trkpt>
<trkpt lat="30.6049700" lon="34.7836300">
<ele>839.299988</ele>
<time>2021-03-31T12:34:12.872Z</time>
</trkpt>
<trkpt lat="30.6044800" lon="34.7835900">
<ele>849.289978</ele>
<time>2021-03-31T12:34:12.873Z</time>
</trkpt>
<trkpt lat="30.6037600" lon="34.7832900">
<ele>846.919983</ele>
<time>2021-03-31T12:34:12.873Z</time>
</trkpt>
<trkpt lat="30.6033400" lon="34.7835500">
<ele>844.409973</ele>
<time>2021-03-31T12:34:12.873Z</time>
</trkpt>
<trkpt lat="30.6032800" lon="34.7834300">
<ele>842.470032</ele>
<time>2021-03-31T12:34:12.873Z</time>
</trkpt>
<trkpt lat="30.6030900" lon="34.7831900">
<ele>840.210022</ele>
<time>2021-03-31T12:34:12.873Z</time>
</trkpt>
<trkpt lat="30.6029200" lon="34.7830200">
<ele>842.550049</ele>
<time>2021-03-31T12:34:12.873Z</time>
</trkpt>
<trkpt lat="30.6025400" lon="34.7830700">
<ele>844.679993</ele>
<time>2021-03-31T12:34:12.873Z</time>
</trkpt>
<trkpt lat="30.6022700" lon="34.7831200">
<ele>843.729980</ele>
<time>2021-03-31T12:34:12.873Z</time>
</trkpt>
<trkpt lat="30.6020900" lon="34.7828800">
<ele>833.260010</ele>
<time>2021-03-31T12:34:12.873Z</time>
</trkpt>
<trkpt lat="30.6020900" lon="34.7828800">
<ele>833.260010</ele>
<time>2021-03-31T12:34:12.873Z</time>
</trkpt>
<trkpt lat="30.6020200" lon="34.7827900">
<ele>826.959961</ele>
<time>2021-03-31T12:34:12.873Z</time>
</trkpt>
<trkpt lat="30.6022100" lon="34.7826000">
<ele>837.000000</ele>
<time>2021-03-31T12:34:12.873Z</time>
</trkpt>
<trkpt lat="30.6025700" lon="34.7821200">
<ele>846.289978</ele>
<time>2021-03-31T12:34:12.873Z</time>
</trkpt>
<trkpt lat="30.6025700" lon="34.7821200">
<ele>846.289978</ele>
<time>2021-03-31T12:34:12.873Z</time>
</trkpt>
<trkpt lat="30.6025000" lon="34.7817000">
<ele>844.759949</ele>
<time>2021-03-31T12:34:12.873Z</time>
</trkpt>
<trkpt lat="30.6024400" lon="34.7814200">
<ele>847.900024</ele>
<time>2021-03-31T12:34:12.873Z</time>
</trkpt>
<trkpt lat="30.6023200" lon="34.7811600">
<ele>850.059937</ele>
<time>2021-03-31T12:34:12.873Z</time>
</trkpt>
<trkpt lat="30.6009635" lon="34.7802957">
<ele>851.760010</ele>
<time>2021-03-31T12:34:12.873Z</time>
</trkpt>
<trkpt lat="30.6006726" lon="34.7803869">
<ele>853.659973</ele>
<time>2021-03-31T12:34:12.873Z</time>
</trkpt>
<trkpt lat="30.6002579" lon="34.7804969">
<ele>859.440002</ele>
<time>2021-03-31T12:34:12.873Z</time>
</trkpt>
<trkpt lat="30.5998369" lon="34.7804781">
<ele>872.669983</ele>
<time>2021-03-31T12:34:12.873Z</time>
</trkpt>
<trkpt lat="30.6002617" lon="34.7804995">
<ele>872.850037</ele>
<time>2021-03-31T12:34:12.873Z</time>
</trkpt>
<trkpt lat="30.6009543" lon="34.7802957">
<ele>872.300049</ele>
<time>2021-03-31T12:34:12.873Z</time>
</trkpt>
<trkpt lat="30.6006449" lon="34.7797002">
<ele>869.079956</ele>
<time>2021-03-31T12:34:12.873Z</time>
</trkpt>
<trkpt lat="30.6003011" lon="34.7786113">
<ele>867.429993</ele>
<time>2021-03-31T12:34:12.873Z</time>
</trkpt>
<trkpt lat="30.6003800" lon="34.7783700">
<ele>862.469971</ele>
<time>2021-03-31T12:34:12.873Z</time>
</trkpt>
<trkpt lat="30.6003600" lon="34.7779200">
<ele>856.809998</ele>
<time>2021-03-31T12:34:12.873Z</time>
</trkpt>
<trkpt lat="30.6009500" lon="34.7765100">
<ele>842.329956</ele>
<time>2021-03-31T12:34:12.874Z</time>
</trkpt>
<trkpt lat="30.6018000" lon="34.7753800">
<ele>842.270020</ele>
<time>2021-03-31T12:34:12.874Z</time>
</trkpt>
<trkpt lat="30.6018400" lon="34.7752400">
<ele>842.909973</ele>
<time>2021-03-31T12:34:12.874Z</time>
</trkpt>
<trkpt lat="30.6018100" lon="34.7750100">
<ele>844.880005</ele>
<time>2021-03-31T12:34:12.874Z</time>
</trkpt>
<trkpt lat="30.6015700" lon="34.7745600">
<ele>849.470032</ele>
<time>2021-03-31T12:34:12.874Z</time>
</trkpt>
<trkpt lat="30.6011200" lon="34.7735000">
<ele>854.909973</ele>
<time>2021-03-31T12:34:12.874Z</time>
</trkpt>
<trkpt lat="30.6011200" lon="34.7735000">
<ele>854.909973</ele>
<time>2021-03-31T12:34:12.874Z</time>
</trkpt>
<trkpt lat="30.6011100" lon="34.7734700">
<ele>855.010010</ele>
<time>2021-03-31T12:34:12.874Z</time>
</trkpt>
<trkpt lat="30.5993600" lon="34.7724800">
<ele>855.820007</ele>
<time>2021-03-31T12:34:12.874Z</time>
</trkpt>
<trkpt lat="30.5992500" lon="34.7725100">
<ele>854.380005</ele>
<time>2021-03-31T12:34:12.874Z</time>
</trkpt>
<trkpt lat="30.5991600" lon="34.7725700">
<ele>852.349976</ele>
<time>2021-03-31T12:34:12.874Z</time>
</trkpt>
<trkpt lat="30.5989100" lon="34.7727600">
<ele>843.700012</ele>
<time>2021-03-31T12:34:12.874Z</time>
</trkpt>
<trkpt lat="30.5987300" lon="34.7729100">
<ele>843.940002</ele>
<time>2021-03-31T12:34:12.874Z</time>
</trkpt>
<trkpt lat="30.5986600" lon="34.7729200">
<ele>844.559998</ele>
<time>2021-03-31T12:34:12.874Z</time>
</trkpt>
<trkpt lat="30.5986000" lon="34.7729600">
<ele>845.160034</ele>
<time>2021-03-31T12:34:12.874Z</time>
</trkpt>
<trkpt lat="30.5985300" lon="34.7730200">
<ele>846.169983</ele>
<time>2021-03-31T12:34:12.874Z</time>
</trkpt>
<trkpt lat="30.5984900" lon="34.7730900">
<ele>847.130005</ele>
<time>2021-03-31T12:34:12.874Z</time>
</trkpt>
<trkpt lat="30.5984600" lon="34.7731700">
<ele>848.380005</ele>
<time>2021-03-31T12:34:12.875Z</time>
</trkpt>
<trkpt lat="30.5984500" lon="34.7732500">
<ele>849.309998</ele>
<time>2021-03-31T12:34:12.875Z</time>
</trkpt>
<trkpt lat="30.5984800" lon="34.7734600">
<ele>850.909973</ele>
<time>2021-03-31T12:34:12.875Z</time>
</trkpt>
<trkpt lat="30.5984800" lon="34.7735100">
<ele>851.290039</ele>
<time>2021-03-31T12:34:12.875Z</time>
</trkpt>
<trkpt lat="30.5984700" lon="34.7735600">
<ele>851.619995</ele>
<time>2021-03-31T12:34:12.875Z</time>
</trkpt>
<trkpt lat="30.5984300" lon="34.7736100">
<ele>851.690002</ele>
<time>2021-03-31T12:34:12.875Z</time>
</trkpt>
<trkpt lat="30.5983900" lon="34.7736500">
<ele>851.690002</ele>
<time>2021-03-31T12:34:12.875Z</time>
</trkpt>
<trkpt lat="30.5982700" lon="34.7737000">
<ele>851.340027</ele>
<time>2021-03-31T12:34:12.875Z</time>
</trkpt>
<trkpt lat="30.5981200" lon="34.7737500">
<ele>850.850037</ele>
<time>2021-03-31T12:34:12.875Z</time>
</trkpt>
<trkpt lat="30.5979900" lon="34.7737700">
<ele>850.540039</ele>
<time>2021-03-31T12:34:12.875Z</time>
</trkpt>
<trkpt lat="30.5979000" lon="34.7737700">
<ele>850.489990</ele>
<time>2021-03-31T12:34:12.875Z</time>
</trkpt>
<trkpt lat="30.5978300" lon="34.7737800">
<ele>850.430054</ele>
<time>2021-03-31T12:34:12.875Z</time>
</trkpt>
<trkpt lat="30.5977500" lon="34.7737500">
<ele>851.049988</ele>
<time>2021-03-31T12:34:12.875Z</time>
</trkpt>
<trkpt lat="30.5976600" lon="34.7736900">
<ele>852.960022</ele>
<time>2021-03-31T12:34:12.875Z</time>
</trkpt>
<trkpt lat="30.5976000" lon="34.7736300">
<ele>854.179993</ele>
<time>2021-03-31T12:34:12.875Z</time>
</trkpt>
<trkpt lat="30.5975900" lon="34.7736100">
<ele>854.389954</ele>
<time>2021-03-31T12:34:12.875Z</time>
</trkpt>
<trkpt lat="30.5975900" lon="34.7736100">
<ele>854.389954</ele>
<time>2021-03-31T12:34:12.875Z</time>
</trkpt>
<trkpt lat="30.5975900" lon="34.7736100">
<ele>854.389954</ele>
<time>2021-03-31T12:34:12.875Z</time>
</trkpt>
<trkpt lat="30.5975900" lon="34.7736100">
<ele>854.389954</ele>
<time>2021-03-31T12:34:12.875Z</time>
</trkpt>
<trkpt lat="30.5975400" lon="34.7734900">
<ele>856.650024</ele>
<time>2021-03-31T12:34:12.875Z</time>
</trkpt>
<trkpt lat="30.5975000" lon="34.7732800">
<ele>859.579956</ele>
<time>2021-03-31T12:34:12.876Z</time>
</trkpt>
<trkpt lat="30.5974700" lon="34.7731700">
<ele>860.240051</ele>
<time>2021-03-31T12:34:12.876Z</time>
</trkpt>
<trkpt lat="30.5973500" lon="34.7732300">
<ele>857.279968</ele>
<time>2021-03-31T12:34:12.876Z</time>
</trkpt>
<trkpt lat="30.5973100" lon="34.7732200">
<ele>856.679993</ele>
<time>2021-03-31T12:34:12.876Z</time>
</trkpt>
<trkpt lat="30.5972700" lon="34.7731700">
<ele>856.770020</ele>
<time>2021-03-31T12:34:12.876Z</time>
</trkpt>
<trkpt lat="30.5972300" lon="34.7730200">
<ele>858.490051</ele>
<time>2021-03-31T12:34:12.876Z</time>
</trkpt>
<trkpt lat="30.5971800" lon="34.7727600">
<ele>858.809998</ele>
<time>2021-03-31T12:34:12.876Z</time>
</trkpt>
<trkpt lat="30.5971800" lon="34.7727600">
<ele>858.809998</ele>
<time>2021-03-31T12:34:12.876Z</time>
</trkpt>
<trkpt lat="30.5971800" lon="34.7727600">
<ele>858.809998</ele>
<time>2021-03-31T12:34:12.876Z</time>
</trkpt>
<trkpt lat="30.5971700" lon="34.7727000">
<ele>858.089966</ele>
<time>2021-03-31T12:34:12.876Z</time>
</trkpt>
<trkpt lat="30.5971400" lon="34.7724900">
<ele>855.820007</ele>
<time>2021-03-31T12:34:12.876Z</time>
</trkpt>
<trkpt lat="30.5971400" lon="34.7723700">
<ele>855.440002</ele>
<time>2021-03-31T12:34:12.876Z</time>
</trkpt>
<trkpt lat="30.5971900" lon="34.7723000">
<ele>858.130005</ele>
<time>2021-03-31T12:34:12.876Z</time>
</trkpt>
<trkpt lat="30.5973000" lon="34.7722800">
<ele>859.170044</ele>
<time>2021-03-31T12:34:12.876Z</time>
</trkpt>
<trkpt lat="30.5973500" lon="34.7722500">
<ele>858.390015</ele>
<time>2021-03-31T12:34:12.876Z</time>
</trkpt>
<trkpt lat="30.5976800" lon="34.7722200">
<ele>855.970032</ele>
<time>2021-03-31T12:34:12.876Z</time>
</trkpt>
<trkpt lat="30.5977600" lon="34.7721000">
<ele>854.299988</ele>
<time>2021-03-31T12:34:12.876Z</time>
</trkpt>
<trkpt lat="30.5978200" lon="34.7718700">
<ele>853.140015</ele>
<time>2021-03-31T12:34:12.877Z</time>
</trkpt>
<trkpt lat="30.5977900" lon="34.7717100">
<ele>853.070007</ele>
<time>2021-03-31T12:34:12.877Z</time>
</trkpt>
<trkpt lat="30.5977500" lon="34.7714300">
<ele>854.530029</ele>
<time>2021-03-31T12:34:12.877Z</time>
</trkpt>
<trkpt lat="30.5977100" lon="34.7710300">
<ele>853.950012</ele>
<time>2021-03-31T12:34:12.877Z</time>
</trkpt>
<trkpt lat="30.5976600" lon="34.7705900">
<ele>852.750061</ele>
<time>2021-03-31T12:34:12.877Z</time>
</trkpt>
<trkpt lat="30.5976800" lon="34.7704600">
<ele>852.940002</ele>
<time>2021-03-31T12:34:12.877Z</time>
</trkpt>
<trkpt lat="30.5977200" lon="34.7703700">
<ele>853.380005</ele>
<time>2021-03-31T12:34:12.877Z</time>
</trkpt>
<trkpt lat="30.5978200" lon="34.7703300">
<ele>854.429993</ele>
<time>2021-03-31T12:34:12.877Z</time>
</trkpt>
<trkpt lat="30.5979300" lon="34.7703700">
<ele>855.459961</ele>
<time>2021-03-31T12:34:12.877Z</time>
</trkpt>
<trkpt lat="30.5981500" lon="34.7703800">
<ele>856.599976</ele>
<time>2021-03-31T12:34:12.877Z</time>
</trkpt>
<trkpt lat="30.5981300" lon="34.7703200">
<ele>856.989990</ele>
<time>2021-03-31T12:34:12.877Z</time>
</trkpt>
<trkpt lat="30.5980600" lon="34.7700400">
<ele>857.039978</ele>
<time>2021-03-31T12:34:12.877Z</time>
</trkpt>
<trkpt lat="30.5980400" lon="34.7699300">
<ele>856.399963</ele>
<time>2021-03-31T12:34:12.877Z</time>
</trkpt>
<trkpt lat="30.5980400" lon="34.7699300">
<ele>856.399963</ele>
<time>2021-03-31T12:34:12.877Z</time>
</trkpt>
<trkpt lat="30.5980100" lon="34.7697800">
<ele>855.219971</ele>
<time>2021-03-31T12:34:12.877Z</time>
</trkpt>
<trkpt lat="30.5980100" lon="34.7695600">
<ele>853.960022</ele>
<time>2021-03-31T12:34:12.877Z</time>
</trkpt>
<trkpt lat="30.5980100" lon="34.7695100">
<ele>853.700012</ele>
<time>2021-03-31T12:34:12.877Z</time>
</trkpt>
<trkpt lat="30.5982100" lon="34.7682600">
<ele>845.290039</ele>
<time>2021-03-31T12:34:12.878Z</time>
</trkpt>
<trkpt lat="30.5982500" lon="34.7681500">
<ele>844.570007</ele>
<time>2021-03-31T12:34:12.878Z</time>
</trkpt>
<trkpt lat="30.5982600" lon="34.7680700">
<ele>843.200012</ele>
<time>2021-03-31T12:34:12.878Z</time>
</trkpt>
<trkpt lat="30.5983200" lon="34.7680500">
<ele>844.499939</ele>
<time>2021-03-31T12:34:12.878Z</time>
</trkpt>
<trkpt lat="30.5983800" lon="34.7680000">
<ele>844.709961</ele>
<time>2021-03-31T12:34:12.878Z</time>
</trkpt>
<trkpt lat="30.5985800" lon="34.7677700">
<ele>845.109985</ele>
<time>2021-03-31T12:34:12.878Z</time>
</trkpt>
<trkpt lat="30.5986700" lon="34.7676200">
<ele>845.640015</ele>
<time>2021-03-31T12:34:12.878Z</time>
</trkpt>
<trkpt lat="30.5987000" lon="34.7675000">
<ele>844.880005</ele>
<time>2021-03-31T12:34:12.878Z</time>
</trkpt>
<trkpt lat="30.5987000" lon="34.7674600">
<ele>844.209961</ele>
<time>2021-03-31T12:34:12.878Z</time>
</trkpt>
<trkpt lat="30.5987100" lon="34.7674600">
<ele>844.530029</ele>
<time>2021-03-31T12:34:12.878Z</time>
</trkpt>
<trkpt lat="30.5987100" lon="34.7674600">
<ele>844.530029</ele>
<time>2021-03-31T12:34:12.878Z</time>
</trkpt>
<trkpt lat="30.5987400" lon="34.7673800">
<ele>844.049988</ele>
<time>2021-03-31T12:34:12.878Z</time>
</trkpt>
<trkpt lat="30.5987400" lon="34.7672200">
<ele>841.200012</ele>
<time>2021-03-31T12:34:12.878Z</time>
</trkpt>
<trkpt lat="30.5987600" lon="34.7670300">
<ele>837.280029</ele>
<time>2021-03-31T12:34:12.878Z</time>
</trkpt>
<trkpt lat="30.5988000" lon="34.7668700">
<ele>834.529968</ele>
<time>2021-03-31T12:34:12.878Z</time>
</trkpt>
<trkpt lat="30.5988900" lon="34.7666700">
<ele>829.169983</ele>
<time>2021-03-31T12:34:12.878Z</time>
</trkpt>
<trkpt lat="30.5992900" lon="34.7660500">
<ele>831.170044</ele>
<time>2021-03-31T12:34:12.878Z</time>
</trkpt>
<trkpt lat="30.5994700" lon="34.7658800">
<ele>830.620056</ele>
<time>2021-03-31T12:34:12.878Z</time>
</trkpt>
<trkpt lat="30.5996700" lon="34.7656500">
<ele>835.519958</ele>
<time>2021-03-31T12:34:12.879Z</time>
</trkpt>
<trkpt lat="30.5997800" lon="34.7652400">
<ele>837.130005</ele>
<time>2021-03-31T12:34:12.879Z</time>
</trkpt>
<trkpt lat="30.5999200" lon="34.7649800">
<ele>837.219971</ele>
<time>2021-03-31T12:34:12.879Z</time>
</trkpt>
<trkpt lat="30.6001900" lon="34.7647500">
<ele>834.469971</ele>
<time>2021-03-31T12:34:12.879Z</time>
</trkpt>
<trkpt lat="30.6005500" lon="34.7641400">
<ele>827.630005</ele>
<time>2021-03-31T12:34:12.879Z</time>
</trkpt>
<trkpt lat="30.6007600" lon="34.7637500">
<ele>832.460022</ele>
<time>2021-03-31T12:34:12.879Z</time>
</trkpt>
<trkpt lat="30.6010100" lon="34.7627400">
<ele>833.320007</ele>
<time>2021-03-31T12:34:12.879Z</time>
</trkpt>
<trkpt lat="30.6010700" lon="34.7625100">
<ele>831.399963</ele>
<time>2021-03-31T12:34:12.879Z</time>
</trkpt>
<trkpt lat="30.6011300" lon="34.7620100">
<ele>826.440002</ele>
<time>2021-03-31T12:34:12.879Z</time>
</trkpt>
<trkpt lat="30.6012900" lon="34.7612900">
<ele>823.799988</ele>
<time>2021-03-31T12:34:12.879Z</time>
</trkpt>
<trkpt lat="30.6013400" lon="34.7610600">
<ele>823.400024</ele>
<time>2021-03-31T12:34:12.879Z</time>
</trkpt>
<trkpt lat="30.6016800" lon="34.7604000">
<ele>816.559998</ele>
<time>2021-03-31T12:34:12.879Z</time>
</trkpt>
<trkpt lat="30.6017300" lon="34.7603200">
<ele>816.389954</ele>
<time>2021-03-31T12:34:12.879Z</time>
</trkpt>
<trkpt lat="30.6018000" lon="34.7601200">
<ele>814.840027</ele>
<time>2021-03-31T12:34:12.879Z</time>
</trkpt>
<trkpt lat="30.6020100" lon="34.7596900">
<ele>814.069946</ele>
<time>2021-03-31T12:34:12.879Z</time>
</trkpt>
<trkpt lat="30.6020800" lon="34.7596200">
<ele>814.719971</ele>
<time>2021-03-31T12:34:12.879Z</time>
</trkpt>
<trkpt lat="30.6022700" lon="34.7592600">
<ele>812.980042</ele>
<time>2021-03-31T12:34:12.879Z</time>
</trkpt>
<trkpt lat="30.6024700" lon="34.7586800">
<ele>815.269958</ele>
<time>2021-03-31T12:34:12.879Z</time>
</trkpt>
<trkpt lat="30.6025100" lon="34.7584000">
<ele>817.039978</ele>
<time>2021-03-31T12:34:12.880Z</time>
</trkpt>
<trkpt lat="30.6025200" lon="34.7581600">
<ele>819.400024</ele>
<time>2021-03-31T12:34:12.880Z</time>
</trkpt>
<trkpt lat="30.6023800" lon="34.7573100">
<ele>821.570007</ele>
<time>2021-03-31T12:34:12.880Z</time>
</trkpt>
<trkpt lat="30.6022300" lon="34.7564500">
<ele>815.169983</ele>
<time>2021-03-31T12:34:12.880Z</time>
</trkpt>
<trkpt lat="30.6023300" lon="34.7558600">
<ele>806.640015</ele>
<time>2021-03-31T12:34:12.880Z</time>
</trkpt>
<trkpt lat="30.6023500" lon="34.7557500">
<ele>805.320007</ele>
<time>2021-03-31T12:34:12.880Z</time>
</trkpt>
<trkpt lat="30.6023900" lon="34.7555100">
<ele>802.860046</ele>
<time>2021-03-31T12:34:12.880Z</time>
</trkpt>
<trkpt lat="30.6026100" lon="34.7552400">
<ele>800.289978</ele>
<time>2021-03-31T12:34:12.880Z</time>
</trkpt>
<trkpt lat="30.6029500" lon="34.7550300">
<ele>802.450012</ele>
<time>2021-03-31T12:34:12.880Z</time>
</trkpt>
<trkpt lat="30.6031200" lon="34.7548600">
<ele>802.910034</ele>
<time>2021-03-31T12:34:12.880Z</time>
</trkpt>
<trkpt lat="30.6033400" lon="34.7545200">
<ele>803.650024</ele>
<time>2021-03-31T12:34:12.880Z</time>
</trkpt>
<trkpt lat="30.6034100" lon="34.7543400">
<ele>803.079956</ele>
<time>2021-03-31T12:34:12.880Z</time>
</trkpt>
<trkpt lat="30.6038900" lon="34.7536200">
<ele>802.089966</ele>
<time>2021-03-31T12:34:12.880Z</time>
</trkpt>
<trkpt lat="30.6042900" lon="34.7526800">
<ele>796.650024</ele>
<time>2021-03-31T12:34:12.880Z</time>
</trkpt>
<trkpt lat="30.6043600" lon="34.7525200">
<ele>793.760010</ele>
<time>2021-03-31T12:34:12.880Z</time>
</trkpt>
<trkpt lat="30.6046600" lon="34.7521300">
<ele>788.809998</ele>
<time>2021-03-31T12:34:12.880Z</time>
</trkpt>
<trkpt lat="30.6048600" lon="34.7516600">
<ele>791.480042</ele>
<time>2021-03-31T12:34:12.880Z</time>
</trkpt>
<trkpt lat="30.6051700" lon="34.7511500">
<ele>793.509949</ele>
<time>2021-03-31T12:34:12.880Z</time>
</trkpt>
<trkpt lat="30.6057900" lon="34.7507100">
<ele>801.890015</ele>
<time>2021-03-31T12:34:12.880Z</time>
</trkpt>
<trkpt lat="30.6059300" lon="34.7505900">
<ele>800.059937</ele>
<time>2021-03-31T12:34:12.881Z</time>
</trkpt>
<trkpt lat="30.6065200" lon="34.7499800">
<ele>794.419983</ele>
<time>2021-03-31T12:34:12.881Z</time>
</trkpt>
<trkpt lat="30.6067800" lon="34.7498900">
<ele>795.489990</ele>
<time>2021-03-31T12:34:12.881Z</time>
</trkpt>
<trkpt lat="30.6070700" lon="34.7497500">
<ele>797.659973</ele>
<time>2021-03-31T12:34:12.881Z</time>
</trkpt>
<trkpt lat="30.6078200" lon="34.7492200">
<ele>790.839966</ele>
<time>2021-03-31T12:34:12.881Z</time>
</trkpt>
<trkpt lat="30.6081600" lon="34.7490400">
<ele>788.150024</ele>
<time>2021-03-31T12:34:12.881Z</time>
</trkpt>
<trkpt lat="30.6086100" lon="34.7490200">
<ele>789.059998</ele>
<time>2021-03-31T12:34:12.881Z</time>
</trkpt>
<trkpt lat="30.6086900" lon="34.7490200">
<ele>788.499939</ele>
<time>2021-03-31T12:34:12.881Z</time>
</trkpt>
<trkpt lat="30.6088600" lon="34.7489900">
<ele>787.720032</ele>
<time>2021-03-31T12:34:12.881Z</time>
</trkpt>
<trkpt lat="30.6091700" lon="34.7489000">
<ele>786.059998</ele>
<time>2021-03-31T12:34:12.881Z</time>
</trkpt>
<trkpt lat="30.6095700" lon="34.7487200">
<ele>786.760010</ele>
<time>2021-03-31T12:34:12.881Z</time>
</trkpt>
<trkpt lat="30.6101000" lon="34.7484900">
<ele>803.359985</ele>
<time>2021-03-31T12:34:12.881Z</time>
</trkpt>
<trkpt lat="30.6101500" lon="34.7482800">
<ele>806.159973</ele>
<time>2021-03-31T12:34:12.881Z</time>
</trkpt>
<trkpt lat="30.6100500" lon="34.7478000">
<ele>808.539978</ele>
<time>2021-03-31T12:34:12.881Z</time>
</trkpt>
<trkpt lat="30.6098000" lon="34.7470900">
<ele>803.830017</ele>
<time>2021-03-31T12:34:12.881Z</time>
</trkpt>
<trkpt lat="30.6096900" lon="34.7467600">
<ele>804.010010</ele>
<time>2021-03-31T12:34:12.881Z</time>
</trkpt>
<trkpt lat="30.6096700" lon="34.7466100">
<ele>803.889954</ele>
<time>2021-03-31T12:34:12.881Z</time>
</trkpt>
<trkpt lat="30.6094700" lon="34.7459500">
<ele>799.470032</ele>
<time>2021-03-31T12:34:12.881Z</time>
</trkpt>
<trkpt lat="30.6091100" lon="34.7458900">
<ele>800.700012</ele>
<time>2021-03-31T12:34:12.882Z</time>
</trkpt>
<trkpt lat="30.6086900" lon="34.7456600">
<ele>806.029968</ele>
<time>2021-03-31T12:34:12.882Z</time>
</trkpt>
<trkpt lat="30.6082000" lon="34.7453900">
<ele>807.409973</ele>
<time>2021-03-31T12:34:12.882Z</time>
</trkpt>
<trkpt lat="30.6076700" lon="34.7450300">
<ele>803.630005</ele>
<time>2021-03-31T12:34:12.882Z</time>
</trkpt>
<trkpt lat="30.6072800" lon="34.7448000">
<ele>809.330017</ele>
<time>2021-03-31T12:34:12.882Z</time>
</trkpt>
<trkpt lat="30.6071200" lon="34.7446600">
<ele>806.159973</ele>
<time>2021-03-31T12:34:12.882Z</time>
</trkpt>
<trkpt lat="30.6067200" lon="34.7445500">
<ele>798.429993</ele>
<time>2021-03-31T12:34:12.882Z</time>
</trkpt>
<trkpt lat="30.6064700" lon="34.7444900">
<ele>797.520020</ele>
<time>2021-03-31T12:34:12.882Z</time>
</trkpt>
<trkpt lat="30.6061600" lon="34.7443900">
<ele>798.359985</ele>
<time>2021-03-31T12:34:12.882Z</time>
</trkpt>
<trkpt lat="30.6058000" lon="34.7442800">
<ele>797.049988</ele>
<time>2021-03-31T12:34:12.882Z</time>
</trkpt>
<trkpt lat="30.6054300" lon="34.7441400">
<ele>797.250000</ele>
<time>2021-03-31T12:34:12.882Z</time>
</trkpt>
<trkpt lat="30.6049900" lon="34.7439600">
<ele>796.260010</ele>
<time>2021-03-31T12:34:12.882Z</time>
</trkpt>
<trkpt lat="30.6045500" lon="34.7438800">
<ele>796.460022</ele>
<time>2021-03-31T12:34:12.882Z</time>
</trkpt>
<trkpt lat="30.6042200" lon="34.7439100">
<ele>796.320007</ele>
<time>2021-03-31T12:34:12.882Z</time>
</trkpt>
<trkpt lat="30.6037700" lon="34.7438400">
<ele>806.300049</ele>
<time>2021-03-31T12:34:12.882Z</time>
</trkpt>
<trkpt lat="30.6034800" lon="34.7434300">
<ele>824.650024</ele>
<time>2021-03-31T12:34:12.882Z</time>
</trkpt>
<trkpt lat="30.6031900" lon="34.7429600">
<ele>828.770020</ele>
<time>2021-03-31T12:34:12.882Z</time>
</trkpt>
<trkpt lat="30.6028900" lon="34.7426400">
<ele>826.299988</ele>
<time>2021-03-31T12:34:12.882Z</time>
</trkpt>
<trkpt lat="30.6025100" lon="34.7423900">
<ele>822.919983</ele>
<time>2021-03-31T12:34:12.882Z</time>
</trkpt>
<trkpt lat="30.6021100" lon="34.7422800">
<ele>818.399963</ele>
<time>2021-03-31T12:34:12.883Z</time>
</trkpt>
<trkpt lat="30.6017700" lon="34.7421400">
<ele>816.010010</ele>
<time>2021-03-31T12:34:12.883Z</time>
</trkpt>
<trkpt lat="30.6015400" lon="34.7421400">
<ele>812.460022</ele>
<time>2021-03-31T12:34:12.883Z</time>
</trkpt>
<trkpt lat="30.6013700" lon="34.7419500">
<ele>816.209961</ele>
<time>2021-03-31T12:34:12.883Z</time>
</trkpt>
<trkpt lat="30.6013100" lon="34.7416600">
<ele>819.489990</ele>
<time>2021-03-31T12:34:12.883Z</time>
</trkpt>
<trkpt lat="30.6010700" lon="34.7413000">
<ele>826.810059</ele>
<time>2021-03-31T12:34:12.883Z</time>
</trkpt>
<trkpt lat="30.6007700" lon="34.7410400">
<ele>827.969971</ele>
<time>2021-03-31T12:34:12.883Z</time>
</trkpt>
<trkpt lat="30.6005600" lon="34.7408700">
<ele>828.380005</ele>
<time>2021-03-31T12:34:12.883Z</time>
</trkpt>
<trkpt lat="30.6002300" lon="34.7403900">
<ele>830.860046</ele>
<time>2021-03-31T12:34:12.883Z</time>
</trkpt>
<trkpt lat="30.5999900" lon="34.7401100">
<ele>828.489990</ele>
<time>2021-03-31T12:34:12.883Z</time>
</trkpt>
<trkpt lat="30.5996700" lon="34.7399600">
<ele>826.690002</ele>
<time>2021-03-31T12:34:12.883Z</time>
</trkpt>
<trkpt lat="30.5994400" lon="34.7397800">
<ele>834.809998</ele>
<time>2021-03-31T12:34:12.883Z</time>
</trkpt>
<trkpt lat="30.5991800" lon="34.7398200">
<ele>837.410034</ele>
<time>2021-03-31T12:34:12.883Z</time>
</trkpt>
<trkpt lat="30.5988900" lon="34.7397300">
<ele>837.890015</ele>
<time>2021-03-31T12:34:12.883Z</time>
</trkpt>
<trkpt lat="30.5986000" lon="34.7394600">
<ele>836.639954</ele>
<time>2021-03-31T12:34:12.883Z</time>
</trkpt>
<trkpt lat="30.5983400" lon="34.7391900">
<ele>835.140015</ele>
<time>2021-03-31T12:34:12.883Z</time>
</trkpt>
<trkpt lat="30.5981800" lon="34.7387700">
<ele>829.880005</ele>
<time>2021-03-31T12:34:12.883Z</time>
</trkpt>
<trkpt lat="30.5979900" lon="34.7385000">
<ele>824.500000</ele>
<time>2021-03-31T12:34:12.883Z</time>
</trkpt>
<trkpt lat="30.5979100" lon="34.7381400">
<ele>825.489990</ele>
<time>2021-03-31T12:34:12.883Z</time>
</trkpt>
<trkpt lat="30.5976800" lon="34.7376400">
<ele>834.179993</ele>
<time>2021-03-31T12:34:12.883Z</time>
</trkpt>
<trkpt lat="30.5973000" lon="34.7375400">
<ele>832.649963</ele>
<time>2021-03-31T12:34:12.883Z</time>
</trkpt>
<trkpt lat="30.5969500" lon="34.7375100">
<ele>827.580017</ele>
<time>2021-03-31T12:34:12.883Z</time>
</trkpt>
<trkpt lat="30.5965300" lon="34.7375800">
<ele>827.869995</ele>
<time>2021-03-31T12:34:12.884Z</time>
</trkpt>
<trkpt lat="30.5961100" lon="34.7375000">
<ele>835.989990</ele>
<time>2021-03-31T12:34:12.884Z</time>
</trkpt>
<trkpt lat="30.5958200" lon="34.7374400">
<ele>833.659973</ele>
<time>2021-03-31T12:34:12.884Z</time>
</trkpt>
<trkpt lat="30.5954700" lon="34.7371800">
<ele>830.919983</ele>
<time>2021-03-31T12:34:12.884Z</time>
</trkpt>
<trkpt lat="30.5952900" lon="34.7369100">
<ele>830.459961</ele>
<time>2021-03-31T12:34:12.884Z</time>
</trkpt>
<trkpt lat="30.5950200" lon="34.7366300">
<ele>832.409973</ele>
<time>2021-03-31T12:34:12.884Z</time>
</trkpt>
<trkpt lat="30.5947600" lon="34.7363500">
<ele>832.729980</ele>
<time>2021-03-31T12:34:12.884Z</time>
</trkpt>
<trkpt lat="30.5943900" lon="34.7360600">
<ele>834.949951</ele>
<time>2021-03-31T12:34:12.884Z</time>
</trkpt>
<trkpt lat="30.5939300" lon="34.7358500">
<ele>829.739990</ele>
<time>2021-03-31T12:34:12.884Z</time>
</trkpt>
<trkpt lat="30.5934600" lon="34.7356900">
<ele>824.010010</ele>
<time>2021-03-31T12:34:12.884Z</time>
</trkpt>
<trkpt lat="30.5930100" lon="34.7356500">
<ele>817.860046</ele>
<time>2021-03-31T12:34:12.884Z</time>
</trkpt>
<trkpt lat="30.5926200" lon="34.7355800">
<ele>818.109985</ele>
<time>2021-03-31T12:34:12.884Z</time>
</trkpt>
<trkpt lat="30.5923200" lon="34.7356200">
<ele>820.270020</ele>
<time>2021-03-31T12:34:12.884Z</time>
</trkpt>
<trkpt lat="30.5920400" lon="34.7356900">
<ele>821.650024</ele>
<time>2021-03-31T12:34:12.884Z</time>
</trkpt>
<trkpt lat="30.5916600" lon="34.7357900">
<ele>823.519958</ele>
<time>2021-03-31T12:34:12.884Z</time>
</trkpt>
<trkpt lat="30.5914400" lon="34.7359000">
<ele>822.070007</ele>
<time>2021-03-31T12:34:12.884Z</time>
</trkpt>
<trkpt lat="30.5912500" lon="34.7360000">
<ele>825.000000</ele>
<time>2021-03-31T12:34:12.884Z</time>
</trkpt>
<trkpt lat="30.5908100" lon="34.7362800">
<ele>828.250000</ele>
<time>2021-03-31T12:34:12.884Z</time>
</trkpt>
<trkpt lat="30.5904100" lon="34.7364900">
<ele>830.380005</ele>
<time>2021-03-31T12:34:12.884Z</time>
</trkpt>
<trkpt lat="30.5901500" lon="34.7366300">
<ele>834.190002</ele>
<time>2021-03-31T12:34:12.885Z</time>
</trkpt>
<trkpt lat="30.5900600" lon="34.7366200">
<ele>833.940002</ele>
<time>2021-03-31T12:34:12.885Z</time>
</trkpt>
<trkpt lat="30.5896700" lon="34.7365100">
<ele>837.210022</ele>
<time>2021-03-31T12:34:12.885Z</time>
</trkpt>
<trkpt lat="30.5892400" lon="34.7362100">
<ele>842.650024</ele>
<time>2021-03-31T12:34:12.885Z</time>
</trkpt>
<trkpt lat="30.5888700" lon="34.7361100">
<ele>843.899963</ele>
<time>2021-03-31T12:34:12.885Z</time>
</trkpt>
<trkpt lat="30.5884900" lon="34.7360000">
<ele>842.569946</ele>
<time>2021-03-31T12:34:12.885Z</time>
</trkpt>
<trkpt lat="30.5882000" lon="34.7360000">
<ele>838.380005</ele>
<time>2021-03-31T12:34:12.885Z</time>
</trkpt>
<trkpt lat="30.5878200" lon="34.7359900">
<ele>832.669983</ele>
<time>2021-03-31T12:34:12.885Z</time>
</trkpt>
<trkpt lat="30.5874800" lon="34.7359700">
<ele>834.390015</ele>
<time>2021-03-31T12:34:12.885Z</time>
</trkpt>
<trkpt lat="30.5871200" lon="34.7360700">
<ele>837.760010</ele>
<time>2021-03-31T12:34:12.885Z</time>
</trkpt>
<trkpt lat="30.5867400" lon="34.7361500">
<ele>842.149963</ele>
<time>2021-03-31T12:34:12.885Z</time>
</trkpt>
<trkpt lat="30.5864200" lon="34.7362200">
<ele>843.599976</ele>
<time>2021-03-31T12:34:12.885Z</time>
</trkpt>
<trkpt lat="30.5861700" lon="34.7364600">
<ele>845.649963</ele>
<time>2021-03-31T12:34:12.885Z</time>
</trkpt>
<trkpt lat="30.5860400" lon="34.7367300">
<ele>851.220032</ele>
<time>2021-03-31T12:34:12.885Z</time>
</trkpt>
<trkpt lat="30.5859200" lon="34.7369500">
<ele>853.679993</ele>
<time>2021-03-31T12:34:12.885Z</time>
</trkpt>
<trkpt lat="30.5858200" lon="34.7371900">
<ele>855.950012</ele>
<time>2021-03-31T12:34:12.885Z</time>
</trkpt>
<trkpt lat="30.5856900" lon="34.7373600">
<ele>858.020020</ele>
<time>2021-03-31T12:34:12.885Z</time>
</trkpt>
<trkpt lat="30.5854900" lon="34.7375500">
<ele>855.119995</ele>
<time>2021-03-31T12:34:12.885Z</time>
</trkpt>
<trkpt lat="30.5852700" lon="34.7376800">
<ele>855.399963</ele>
<time>2021-03-31T12:34:12.885Z</time>
</trkpt>
<trkpt lat="30.5849800" lon="34.7378600">
<ele>860.160034</ele>
<time>2021-03-31T12:34:12.885Z</time>
</trkpt>
<trkpt lat="30.5848400" lon="34.7378800">
<ele>862.139954</ele>
<time>2021-03-31T12:34:12.885Z</time>
</trkpt>
<trkpt lat="30.5845600" lon="34.7378200">
<ele>862.179993</ele>
<time>2021-03-31T12:34:12.885Z</time>
</trkpt>
<trkpt lat="30.5840800" lon="34.7378500">
<ele>841.029968</ele>
<time>2021-03-31T12:34:12.886Z</time>
</trkpt>
<trkpt lat="30.5840100" lon="34.7378800">
<ele>837.880005</ele>
<time>2021-03-31T12:34:12.886Z</time>
</trkpt>
<trkpt lat="30.5839000" lon="34.7379500">
<ele>833.119995</ele>
<time>2021-03-31T12:34:12.886Z</time>
</trkpt>
<trkpt lat="30.5837500" lon="34.7380600">
<ele>828.599976</ele>
<time>2021-03-31T12:34:12.886Z</time>
</trkpt>
<trkpt lat="30.5837100" lon="34.7381000">
<ele>828.029968</ele>
<time>2021-03-31T12:34:12.886Z</time>
</trkpt>
<trkpt lat="30.5836000" lon="34.7382100">
<ele>825.469971</ele>
<time>2021-03-31T12:34:12.886Z</time>
</trkpt>
<trkpt lat="30.5835100" lon="34.7383500">
<ele>824.410034</ele>
<time>2021-03-31T12:34:12.886Z</time>
</trkpt>
<trkpt lat="30.5834400" lon="34.7386000">
<ele>824.800049</ele>
<time>2021-03-31T12:34:12.886Z</time>
</trkpt>
<trkpt lat="30.5832900" lon="34.7389400">
<ele>824.700012</ele>
<time>2021-03-31T12:34:12.886Z</time>
</trkpt>
<trkpt lat="30.5832400" lon="34.7390600">
<ele>826.840027</ele>
<time>2021-03-31T12:34:12.886Z</time>
</trkpt>
<trkpt lat="30.5831500" lon="34.7393200">
<ele>826.070007</ele>
<time>2021-03-31T12:34:12.886Z</time>
</trkpt>
<trkpt lat="30.5829200" lon="34.7396100">
<ele>818.320007</ele>
<time>2021-03-31T12:34:12.886Z</time>
</trkpt>
<trkpt lat="30.5828700" lon="34.7397100">
<ele>816.929993</ele>
<time>2021-03-31T12:34:12.886Z</time>
</trkpt>
<trkpt lat="30.5828500" lon="34.7398200">
<ele>817.990051</ele>
<time>2021-03-31T12:34:12.886Z</time>
</trkpt>
<trkpt lat="30.5827200" lon="34.7400500">
<ele>816.029968</ele>
<time>2021-03-31T12:34:12.886Z</time>
</trkpt>
<trkpt lat="30.5826600" lon="34.7400700">
<ele>814.099976</ele>
<time>2021-03-31T12:34:12.886Z</time>
</trkpt>
<trkpt lat="30.5823900" lon="34.7402000">
<ele>803.460022</ele>
<time>2021-03-31T12:34:12.886Z</time>
</trkpt>
<trkpt lat="30.5822800" lon="34.7403500">
<ele>800.540039</ele>
<time>2021-03-31T12:34:12.886Z</time>
</trkpt>
<trkpt lat="30.5822200" lon="34.7404500">
<ele>798.770020</ele>
<time>2021-03-31T12:34:12.886Z</time>
</trkpt>
<trkpt lat="30.5822600" lon="34.7405500">
<ele>801.840027</ele>
<time>2021-03-31T12:34:12.886Z</time>
</trkpt>
<trkpt lat="30.5822400" lon="34.7406100">
<ele>801.259949</ele>
<time>2021-03-31T12:34:12.887Z</time>
</trkpt>
<trkpt lat="30.5822100" lon="34.7406900">
<ele>800.590027</ele>
<time>2021-03-31T12:34:12.887Z</time>
</trkpt>
<trkpt lat="30.5820600" lon="34.7406900">
<ele>795.959961</ele>
<time>2021-03-31T12:34:12.887Z</time>
</trkpt>
<trkpt lat="30.5820400" lon="34.7406300">
<ele>794.200012</ele>
<time>2021-03-31T12:34:12.887Z</time>
</trkpt>
<trkpt lat="30.5819400" lon="34.7405100">
<ele>788.119995</ele>
<time>2021-03-31T12:34:12.887Z</time>
</trkpt>
<trkpt lat="30.5817400" lon="34.7403900">
<ele>779.090027</ele>
<time>2021-03-31T12:34:12.887Z</time>
</trkpt>
<trkpt lat="30.5815700" lon="34.7404100">
<ele>777.840027</ele>
<time>2021-03-31T12:34:12.887Z</time>
</trkpt>
<trkpt lat="30.5814000" lon="34.7404500">
<ele>780.320007</ele>
<time>2021-03-31T12:34:12.887Z</time>
</trkpt>
<trkpt lat="30.5812400" lon="34.7405500">
<ele>778.520020</ele>
<time>2021-03-31T12:34:12.887Z</time>
</trkpt>
<trkpt lat="30.5811600" lon="34.7405500">
<ele>778.220032</ele>
<time>2021-03-31T12:34:12.887Z</time>
</trkpt>
<trkpt lat="30.5811300" lon="34.7404500">
<ele>778.880005</ele>
<time>2021-03-31T12:34:12.887Z</time>
</trkpt>
<trkpt lat="30.5811400" lon="34.7403500">
<ele>779.739990</ele>
<time>2021-03-31T12:34:12.887Z</time>
</trkpt>
<trkpt lat="30.5811200" lon="34.7402900">
<ele>780.010010</ele>
<time>2021-03-31T12:34:12.887Z</time>
</trkpt>
<trkpt lat="30.5810600" lon="34.7402900">
<ele>778.650024</ele>
<time>2021-03-31T12:34:12.887Z</time>
</trkpt>
<trkpt lat="30.5810200" lon="34.7402800">
<ele>777.700012</ele>
<time>2021-03-31T12:34:12.887Z</time>
</trkpt>
<trkpt lat="30.5809700" lon="34.7403000">
<ele>776.409973</ele>
<time>2021-03-31T12:34:12.887Z</time>
</trkpt>
<trkpt lat="30.5809100" lon="34.7404000">
<ele>775.010010</ele>
<time>2021-03-31T12:34:12.887Z</time>
</trkpt>
<trkpt lat="30.5807500" lon="34.7407100">
<ele>773.259949</ele>
<time>2021-03-31T12:34:12.887Z</time>
</trkpt>
<trkpt lat="30.5806800" lon="34.7407800">
<ele>772.830017</ele>
<time>2021-03-31T12:34:12.887Z</time>
</trkpt>
<trkpt lat="30.5806300" lon="34.7408200">
<ele>772.649963</ele>
<time>2021-03-31T12:34:12.887Z</time>
</trkpt>
<trkpt lat="30.5805900" lon="34.7408500">
<ele>772.759949</ele>
<time>2021-03-31T12:34:12.887Z</time>
</trkpt>
<trkpt lat="30.5804600" lon="34.7409300">
<ele>773.519958</ele>
<time>2021-03-31T12:34:12.887Z</time>
</trkpt>
<trkpt lat="30.5804000" lon="34.7409300">
<ele>772.950012</ele>
<time>2021-03-31T12:34:12.887Z</time>
</trkpt>
<trkpt lat="30.5803000" lon="34.7408600">
<ele>770.000061</ele>
<time>2021-03-31T12:34:12.887Z</time>
</trkpt>
<trkpt lat="30.5802700" lon="34.7408100">
<ele>768.059998</ele>
<time>2021-03-31T12:34:12.888Z</time>
</trkpt>
<trkpt lat="30.5802000" lon="34.7406600">
<ele>761.950012</ele>
<time>2021-03-31T12:34:12.888Z</time>
</trkpt>
<trkpt lat="30.5801800" lon="34.7404100">
<ele>757.849976</ele>
<time>2021-03-31T12:34:12.888Z</time>
</trkpt>
<trkpt lat="30.5801800" lon="34.7402600">
<ele>757.099976</ele>
<time>2021-03-31T12:34:12.888Z</time>
</trkpt>
<trkpt lat="30.5801800" lon="34.7400600">
<ele>756.170044</ele>
<time>2021-03-31T12:34:12.888Z</time>
</trkpt>
<trkpt lat="30.5801100" lon="34.7395600">
<ele>756.260010</ele>
<time>2021-03-31T12:34:12.888Z</time>
</trkpt>
<trkpt lat="30.5798900" lon="34.7392900">
<ele>759.150024</ele>
<time>2021-03-31T12:34:12.888Z</time>
</trkpt>
<trkpt lat="30.5798000" lon="34.7392100">
<ele>761.769958</ele>
<time>2021-03-31T12:34:12.888Z</time>
</trkpt>
<trkpt lat="30.5796800" lon="34.7391100">
<ele>763.409973</ele>
<time>2021-03-31T12:34:12.888Z</time>
</trkpt>
<trkpt lat="30.5796300" lon="34.7390700">
<ele>762.859985</ele>
<time>2021-03-31T12:34:12.888Z</time>
</trkpt>
<trkpt lat="30.5795700" lon="34.7390600">
<ele>762.469971</ele>
<time>2021-03-31T12:34:12.888Z</time>
</trkpt>
<trkpt lat="30.5794800" lon="34.7390400">
<ele>761.820007</ele>
<time>2021-03-31T12:34:12.888Z</time>
</trkpt>
<trkpt lat="30.5794500" lon="34.7390200">
<ele>761.450012</ele>
<time>2021-03-31T12:34:12.888Z</time>
</trkpt>
<trkpt lat="30.5793700" lon="34.7390400">
<ele>758.149963</ele>
<time>2021-03-31T12:34:12.888Z</time>
</trkpt>
<trkpt lat="30.5793200" lon="34.7390700">
<ele>756.130005</ele>
<time>2021-03-31T12:34:12.888Z</time>
</trkpt>
<trkpt lat="30.5792600" lon="34.7391300">
<ele>753.969971</ele>
<time>2021-03-31T12:34:12.888Z</time>
</trkpt>
<trkpt lat="30.5790600" lon="34.7391000">
<ele>743.139954</ele>
<time>2021-03-31T12:34:12.888Z</time>
</trkpt>
<trkpt lat="30.5789100" lon="34.7389900">
<ele>733.310059</ele>
<time>2021-03-31T12:34:12.888Z</time>
</trkpt>
<trkpt lat="30.5788700" lon="34.7389400">
<ele>730.710022</ele>
<time>2021-03-31T12:34:12.888Z</time>
</trkpt>
<trkpt lat="30.5789100" lon="34.7389000">
<ele>732.339966</ele>
<time>2021-03-31T12:34:12.888Z</time>
</trkpt>
<trkpt lat="30.5788800" lon="34.7388400">
<ele>730.279968</ele>
<time>2021-03-31T12:34:12.888Z</time>
</trkpt>
<trkpt lat="30.5788800" lon="34.7387700">
<ele>729.790039</ele>
<time>2021-03-31T12:34:12.888Z</time>
</trkpt>
<trkpt lat="30.5789100" lon="34.7387300">
<ele>730.990051</ele>
<time>2021-03-31T12:34:12.888Z</time>
</trkpt>
<trkpt lat="30.5789200" lon="34.7385800">
<ele>730.470032</ele>
<time>2021-03-31T12:34:12.888Z</time>
</trkpt>
<trkpt lat="30.5789100" lon="34.7385500">
<ele>729.859985</ele>
<time>2021-03-31T12:34:12.888Z</time>
</trkpt>
<trkpt lat="30.5788300" lon="34.7384500">
<ele>726.550049</ele>
<time>2021-03-31T12:34:12.889Z</time>
</trkpt>
<trkpt lat="30.5787800" lon="34.7383700">
<ele>724.890015</ele>
<time>2021-03-31T12:34:12.889Z</time>
</trkpt>
<trkpt lat="30.5786600" lon="34.7382700">
<ele>721.679993</ele>
<time>2021-03-31T12:34:12.889Z</time>
</trkpt>
<trkpt lat="30.5785500" lon="34.7381800">
<ele>719.889954</ele>
<time>2021-03-31T12:34:12.889Z</time>
</trkpt>
<trkpt lat="30.5784900" lon="34.7381700">
<ele>719.280029</ele>
<time>2021-03-31T12:34:12.889Z</time>
</trkpt>
<trkpt lat="30.5783900" lon="34.7382100">
<ele>718.059998</ele>
<time>2021-03-31T12:34:12.889Z</time>
</trkpt>
<trkpt lat="30.5783300" lon="34.7381800">
<ele>717.470032</ele>
<time>2021-03-31T12:34:12.889Z</time>
</trkpt>
<trkpt lat="30.5782600" lon="34.7381100">
<ele>716.229980</ele>
<time>2021-03-31T12:34:12.889Z</time>
</trkpt>
<trkpt lat="30.5782200" lon="34.7380500">
<ele>715.989990</ele>
<time>2021-03-31T12:34:12.889Z</time>
</trkpt>
<trkpt lat="30.5781500" lon="34.7379700">
<ele>715.709961</ele>
<time>2021-03-31T12:34:12.889Z</time>
</trkpt>
<trkpt lat="30.5780800" lon="34.7379200">
<ele>716.020020</ele>
<time>2021-03-31T12:34:12.889Z</time>
</trkpt>
<trkpt lat="30.5780000" lon="34.7378600">
<ele>715.910034</ele>
<time>2021-03-31T12:34:12.889Z</time>
</trkpt>
<trkpt lat="30.5778400" lon="34.7376900">
<ele>715.599976</ele>
<time>2021-03-31T12:34:12.889Z</time>
</trkpt>
<trkpt lat="30.5776400" lon="34.7375100">
<ele>715.789978</ele>
<time>2021-03-31T12:34:12.889Z</time>
</trkpt>
<trkpt lat="30.5775000" lon="34.7373500">
<ele>713.000000</ele>
<time>2021-03-31T12:34:12.889Z</time>
</trkpt>
<trkpt lat="30.5773600" lon="34.7372600">
<ele>709.269958</ele>
<time>2021-03-31T12:34:12.889Z</time>
</trkpt>
<trkpt lat="30.5771700" lon="34.7371500">
<ele>704.450012</ele>
<time>2021-03-31T12:34:12.889Z</time>
</trkpt>
<trkpt lat="30.5770700" lon="34.7369400">
<ele>702.700012</ele>
<time>2021-03-31T12:34:12.889Z</time>
</trkpt>
<trkpt lat="30.5768600" lon="34.7366500">
<ele>697.770020</ele>
<time>2021-03-31T12:34:12.889Z</time>
</trkpt>
<trkpt lat="30.5767300" lon="34.7366700">
<ele>695.359985</ele>
<time>2021-03-31T12:34:12.889Z</time>
</trkpt>
<trkpt lat="30.5766400" lon="34.7366800">
<ele>691.950012</ele>
<time>2021-03-31T12:34:12.889Z</time>
</trkpt>
<trkpt lat="30.5766100" lon="34.7366800">
<ele>689.699951</ele>
<time>2021-03-31T12:34:12.889Z</time>
</trkpt>
<trkpt lat="30.5765300" lon="34.7366500">
<ele>683.089966</ele>
<time>2021-03-31T12:34:12.889Z</time>
</trkpt>
<trkpt lat="30.5764900" lon="34.7366800">
<ele>680.690002</ele>
<time>2021-03-31T12:34:12.889Z</time>
</trkpt>
<trkpt lat="30.5763700" lon="34.7366500">
<ele>672.040039</ele>
<time>2021-03-31T12:34:12.890Z</time>
</trkpt>
<trkpt lat="30.5763500" lon="34.7366000">
<ele>670.400024</ele>
<time>2021-03-31T12:34:12.890Z</time>
</trkpt>
<trkpt lat="30.5762700" lon="34.7363300">
<ele>663.400024</ele>
<time>2021-03-31T12:34:12.890Z</time>
</trkpt>
<trkpt lat="30.5763300" lon="34.7360400">
<ele>658.820007</ele>
<time>2021-03-31T12:34:12.890Z</time>
</trkpt>
<trkpt lat="30.5764200" lon="34.7359000">
<ele>657.090027</ele>
<time>2021-03-31T12:34:12.890Z</time>
</trkpt>
<trkpt lat="30.5765300" lon="34.7356900">
<ele>656.009949</ele>
<time>2021-03-31T12:34:12.890Z</time>
</trkpt>
<trkpt lat="30.5764700" lon="34.7354300">
<ele>654.549988</ele>
<time>2021-03-31T12:34:12.890Z</time>
</trkpt>
<trkpt lat="30.5764400" lon="34.7353400">
<ele>653.670044</ele>
<time>2021-03-31T12:34:12.890Z</time>
</trkpt>
<trkpt lat="30.5764000" lon="34.7352400">
<ele>653.059998</ele>
<time>2021-03-31T12:34:12.890Z</time>
</trkpt>
<trkpt lat="30.5763200" lon="34.7351800">
<ele>651.829956</ele>
<time>2021-03-31T12:34:12.890Z</time>
</trkpt>
<trkpt lat="30.5760000" lon="34.7350600">
<ele>645.119995</ele>
<time>2021-03-31T12:34:12.890Z</time>
</trkpt>
<trkpt lat="30.5758600" lon="34.7349900">
<ele>641.610046</ele>
<time>2021-03-31T12:34:12.890Z</time>
</trkpt>
<trkpt lat="30.5755200" lon="34.7349900">
<ele>629.440002</ele>
<time>2021-03-31T12:34:12.890Z</time>
</trkpt>
<trkpt lat="30.5754700" lon="34.7350200">
<ele>628.599976</ele>
<time>2021-03-31T12:34:12.890Z</time>
</trkpt>
<trkpt lat="30.5754500" lon="34.7350800">
<ele>628.679993</ele>
<time>2021-03-31T12:34:12.890Z</time>
</trkpt>
<trkpt lat="30.5753800" lon="34.7352600">
<ele>628.709961</ele>
<time>2021-03-31T12:34:12.890Z</time>
</trkpt>
<trkpt lat="30.5751700" lon="34.7354400">
<ele>629.920044</ele>
<time>2021-03-31T12:34:12.890Z</time>
</trkpt>
<trkpt lat="30.5751000" lon="34.7356400">
<ele>630.769958</ele>
<time>2021-03-31T12:34:12.890Z</time>
</trkpt>
<trkpt lat="30.5750100" lon="34.7358800">
<ele>630.910034</ele>
<time>2021-03-31T12:34:12.890Z</time>
</trkpt>
<trkpt lat="30.5749300" lon="34.7360500">
<ele>630.780029</ele>
<time>2021-03-31T12:34:12.890Z</time>
</trkpt>
<trkpt lat="30.5749700" lon="34.7363100">
<ele>630.140015</ele>
<time>2021-03-31T12:34:12.890Z</time>
</trkpt>
<trkpt lat="30.5750800" lon="34.7363400">
<ele>630.860046</ele>
<time>2021-03-31T12:34:12.890Z</time>
</trkpt>
<trkpt lat="30.5751100" lon="34.7364000">
<ele>631.190002</ele>
<time>2021-03-31T12:34:12.890Z</time>
</trkpt>
<trkpt lat="30.5750700" lon="34.7366200">
<ele>630.760010</ele>
<time>2021-03-31T12:34:12.890Z</time>
</trkpt>
<trkpt lat="30.5750700" lon="34.7366200">
<ele>630.760010</ele>
<time>2021-03-31T12:34:12.890Z</time>
</trkpt>
<trkpt lat="30.5751100" lon="34.7366300">
<ele>631.190002</ele>
<time>2021-03-31T12:34:12.891Z</time>
</trkpt>
<trkpt lat="30.5750700" lon="34.7369200">
<ele>630.299988</ele>
<time>2021-03-31T12:34:12.891Z</time>
</trkpt>
<trkpt lat="30.5750100" lon="34.7371400">
<ele>629.859985</ele>
<time>2021-03-31T12:34:12.891Z</time>
</trkpt>
<trkpt lat="30.5748100" lon="34.7375400">
<ele>630.630005</ele>
<time>2021-03-31T12:34:12.891Z</time>
</trkpt>
<trkpt lat="30.5746500" lon="34.7376400">
<ele>628.960022</ele>
<time>2021-03-31T12:34:12.891Z</time>
</trkpt>
<trkpt lat="30.5746300" lon="34.7376000">
<ele>628.760010</ele>
<time>2021-03-31T12:34:12.891Z</time>
</trkpt>
<trkpt lat="30.5741800" lon="34.7368800">
<ele>628.500000</ele>
<time>2021-03-31T12:34:12.891Z</time>
</trkpt>
<trkpt lat="30.5739900" lon="34.7363100">
<ele>634.200012</ele>
<time>2021-03-31T12:34:12.891Z</time>
</trkpt>
<trkpt lat="30.5736600" lon="34.7355900">
<ele>638.380005</ele>
<time>2021-03-31T12:34:12.891Z</time>
</trkpt>
<trkpt lat="30.5734200" lon="34.7349700">
<ele>632.070007</ele>
<time>2021-03-31T12:34:12.891Z</time>
</trkpt>
<trkpt lat="30.5733400" lon="34.7346000">
<ele>629.590027</ele>
<time>2021-03-31T12:34:12.891Z</time>
</trkpt>
<trkpt lat="30.5735300" lon="34.7338500">
<ele>626.900024</ele>
<time>2021-03-31T12:34:12.891Z</time>
</trkpt>
<trkpt lat="30.5736000" lon="34.7333900">
<ele>634.529968</ele>
<time>2021-03-31T12:34:12.891Z</time>
</trkpt>
<trkpt lat="30.5736100" lon="34.7332800">
<ele>636.400024</ele>
<time>2021-03-31T12:34:12.891Z</time>
</trkpt>
<trkpt lat="30.5735500" lon="34.7329000">
<ele>639.880005</ele>
<time>2021-03-31T12:34:12.891Z</time>
</trkpt>
<trkpt lat="30.5735600" lon="34.7326800">
<ele>639.080017</ele>
<time>2021-03-31T12:34:12.891Z</time>
</trkpt>
<trkpt lat="30.5736500" lon="34.7322600">
<ele>631.679993</ele>
<time>2021-03-31T12:34:12.891Z</time>
</trkpt>
<trkpt lat="30.5736500" lon="34.7319400">
<ele>628.690063</ele>
<time>2021-03-31T12:34:12.891Z</time>
</trkpt>
<trkpt lat="30.5736200" lon="34.7318700">
<ele>630.490051</ele>
<time>2021-03-31T12:34:12.891Z</time>
</trkpt>
<trkpt lat="30.5734900" lon="34.7317200">
<ele>634.469971</ele>
<time>2021-03-31T12:34:12.891Z</time>
</trkpt>
<trkpt lat="30.5733100" lon="34.7312700">
<ele>639.600037</ele>
<time>2021-03-31T12:34:12.891Z</time>
</trkpt>
<trkpt lat="30.5732700" lon="34.7312200">
<ele>639.530029</ele>
<time>2021-03-31T12:34:12.891Z</time>
</trkpt>
<trkpt lat="30.5730700" lon="34.7311600">
<ele>637.800049</ele>
<time>2021-03-31T12:34:12.891Z</time>
</trkpt>
<trkpt lat="30.5729800" lon="34.7310100">
<ele>637.709961</ele>
<time>2021-03-31T12:34:12.891Z</time>
</trkpt>
<trkpt lat="30.5728800" lon="34.7306300">
<ele>636.919983</ele>
<time>2021-03-31T12:34:12.892Z</time>
</trkpt>
<trkpt lat="30.5728300" lon="34.7303000">
<ele>637.919983</ele>
<time>2021-03-31T12:34:12.892Z</time>
</trkpt>
<trkpt lat="30.5728700" lon="34.7296600">
<ele>644.440002</ele>
<time>2021-03-31T12:34:12.892Z</time>
</trkpt>
<trkpt lat="30.5728200" lon="34.7293400">
<ele>643.679993</ele>
<time>2021-03-31T12:34:12.892Z</time>
</trkpt>
<trkpt lat="30.5725400" lon="34.7286500">
<ele>650.540039</ele>
<time>2021-03-31T12:34:12.892Z</time>
</trkpt>
<trkpt lat="30.5723300" lon="34.7283900">
<ele>648.989990</ele>
<time>2021-03-31T12:34:12.892Z</time>
</trkpt>
<trkpt lat="30.5721900" lon="34.7281300">
<ele>645.710022</ele>
<time>2021-03-31T12:34:12.892Z</time>
</trkpt>
<trkpt lat="30.5718700" lon="34.7271900">
<ele>647.040039</ele>
<time>2021-03-31T12:34:12.892Z</time>
</trkpt>
<trkpt lat="30.5717700" lon="34.7270000">
<ele>648.010010</ele>
<time>2021-03-31T12:34:12.892Z</time>
</trkpt>
<trkpt lat="30.5715900" lon="34.7267900">
<ele>648.039978</ele>
<time>2021-03-31T12:34:12.892Z</time>
</trkpt>
<trkpt lat="30.5713500" lon="34.7266000">
<ele>647.729980</ele>
<time>2021-03-31T12:34:12.892Z</time>
</trkpt>
<trkpt lat="30.5711800" lon="34.7263500">
<ele>645.970032</ele>
<time>2021-03-31T12:34:12.892Z</time>
</trkpt>
<trkpt lat="30.5707700" lon="34.7259400">
<ele>647.700012</ele>
<time>2021-03-31T12:34:12.892Z</time>
</trkpt>
<trkpt lat="30.5704100" lon="34.7254600">
<ele>643.609985</ele>
<time>2021-03-31T12:34:12.892Z</time>
</trkpt>
<trkpt lat="30.5699600" lon="34.7251000">
<ele>636.489990</ele>
<time>2021-03-31T12:34:12.892Z</time>
</trkpt>
<trkpt lat="30.5697100" lon="34.7247700">
<ele>644.090027</ele>
<time>2021-03-31T12:34:12.892Z</time>
</trkpt>
<trkpt lat="30.5695000" lon="34.7245800">
<ele>645.840027</ele>
<time>2021-03-31T12:34:12.893Z</time>
</trkpt>
<trkpt lat="30.5693300" lon="34.7245100">
<ele>645.660034</ele>
<time>2021-03-31T12:34:12.893Z</time>
</trkpt>
<trkpt lat="30.5689300" lon="34.7244300">
<ele>645.810059</ele>
<time>2021-03-31T12:34:12.893Z</time>
</trkpt>
<trkpt lat="30.5685200" lon="34.7244400">
<ele>651.580017</ele>
<time>2021-03-31T12:34:12.893Z</time>
</trkpt>
<trkpt lat="30.5682600" lon="34.7245100">
<ele>654.149963</ele>
<time>2021-03-31T12:34:12.893Z</time>
</trkpt>
<trkpt lat="30.5681700" lon="34.7245000">
<ele>652.459961</ele>
<time>2021-03-31T12:34:12.893Z</time>
</trkpt>
<trkpt lat="30.5679300" lon="34.7243500">
<ele>642.950012</ele>
<time>2021-03-31T12:34:12.893Z</time>
</trkpt>
<trkpt lat="30.5677300" lon="34.7240900">
<ele>631.780029</ele>
<time>2021-03-31T12:34:12.893Z</time>
</trkpt>
<trkpt lat="30.5674900" lon="34.7234100">
<ele>633.409973</ele>
<time>2021-03-31T12:34:12.894Z</time>
</trkpt>
<trkpt lat="30.5674000" lon="34.7232100">
<ele>636.820007</ele>
<time>2021-03-31T12:34:12.894Z</time>
</trkpt>
<trkpt lat="30.5673000" lon="34.7230700">
<ele>638.150024</ele>
<time>2021-03-31T12:34:12.894Z</time>
</trkpt>
<trkpt lat="30.5671500" lon="34.7229400">
<ele>639.640015</ele>
<time>2021-03-31T12:34:12.894Z</time>
</trkpt>
<trkpt lat="30.5663200" lon="34.7223800">
<ele>631.900024</ele>
<time>2021-03-31T12:34:12.894Z</time>
</trkpt>
<trkpt lat="30.5663100" lon="34.7223100">
<ele>631.760010</ele>
<time>2021-03-31T12:34:12.894Z</time>
</trkpt>
<trkpt lat="30.5664000" lon="34.7220900">
<ele>632.510010</ele>
<time>2021-03-31T12:34:12.894Z</time>
</trkpt>
<trkpt lat="30.5663900" lon="34.7219200">
<ele>633.799988</ele>
<time>2021-03-31T12:34:12.894Z</time>
</trkpt>
<trkpt lat="30.5659900" lon="34.7212900">
<ele>648.559998</ele>
<time>2021-03-31T12:34:12.894Z</time>
</trkpt>
<trkpt lat="30.5653500" lon="34.7206600">
<ele>648.849976</ele>
<time>2021-03-31T12:34:12.894Z</time>
</trkpt>
<trkpt lat="30.5652100" lon="34.7205900">
<ele>648.320007</ele>
<time>2021-03-31T12:34:12.894Z</time>
</trkpt>
<trkpt lat="30.5648400" lon="34.7204800">
<ele>647.969971</ele>
<time>2021-03-31T12:34:12.894Z</time>
</trkpt>
<trkpt lat="30.5646600" lon="34.7203700">
<ele>648.409973</ele>
<time>2021-03-31T12:34:12.894Z</time>
</trkpt>
<trkpt lat="30.5639500" lon="34.7194600">
<ele>643.070007</ele>
<time>2021-03-31T12:34:12.894Z</time>
</trkpt>
<trkpt lat="30.5636300" lon="34.7192100">
<ele>646.379944</ele>
<time>2021-03-31T12:34:12.894Z</time>
</trkpt>
<trkpt lat="30.5635100" lon="34.7190600">
<ele>643.839966</ele>
<time>2021-03-31T12:34:12.894Z</time>
</trkpt>
<trkpt lat="30.5632600" lon="34.7185900">
<ele>637.059998</ele>
<time>2021-03-31T12:34:12.894Z</time>
</trkpt>
<trkpt lat="30.5629200" lon="34.7180800">
<ele>643.219971</ele>
<time>2021-03-31T12:34:12.894Z</time>
</trkpt>
<trkpt lat="30.5622800" lon="34.7176500">
<ele>647.839966</ele>
<time>2021-03-31T12:34:12.894Z</time>
</trkpt>
<trkpt lat="30.5618000" lon="34.7172600">
<ele>639.569946</ele>
<time>2021-03-31T12:34:12.894Z</time>
</trkpt>
<trkpt lat="30.5613700" lon="34.7167500">
<ele>639.400024</ele>
<time>2021-03-31T12:34:12.894Z</time>
</trkpt>
<trkpt lat="30.5608200" lon="34.7163000">
<ele>632.409973</ele>
<time>2021-03-31T12:34:12.894Z</time>
</trkpt>
<trkpt lat="30.5607400" lon="34.7162000">
<ele>634.500000</ele>
<time>2021-03-31T12:34:12.894Z</time>
</trkpt>
<trkpt lat="30.5606600" lon="34.7159500">
<ele>637.700012</ele>
<time>2021-03-31T12:34:12.894Z</time>
</trkpt>
<trkpt lat="30.5605500" lon="34.7158300">
<ele>640.979980</ele>
<time>2021-03-31T12:34:12.894Z</time>
</trkpt>
<trkpt lat="30.5604600" lon="34.7156100">
<ele>641.830017</ele>
<time>2021-03-31T12:34:12.894Z</time>
</trkpt>
<trkpt lat="30.5602700" lon="34.7155100">
<ele>638.539978</ele>
<time>2021-03-31T12:34:12.894Z</time>
</trkpt>
<trkpt lat="30.5601200" lon="34.7153600">
<ele>635.150024</ele>
<time>2021-03-31T12:34:12.894Z</time>
</trkpt>
<trkpt lat="30.5599100" lon="34.7148900">
<ele>632.209961</ele>
<time>2021-03-31T12:34:12.894Z</time>
</trkpt>
<trkpt lat="30.5596800" lon="34.7140500">
<ele>636.190002</ele>
<time>2021-03-31T12:34:12.894Z</time>
</trkpt>
<trkpt lat="30.5595700" lon="34.7138100">
<ele>639.409973</ele>
<time>2021-03-31T12:34:12.894Z</time>
</trkpt>
<trkpt lat="30.5595500" lon="34.7135700">
<ele>640.599976</ele>
<time>2021-03-31T12:34:12.895Z</time>
</trkpt>
<trkpt lat="30.5595900" lon="34.7131800">
<ele>643.429993</ele>
<time>2021-03-31T12:34:12.895Z</time>
</trkpt>
<trkpt lat="30.5595800" lon="34.7128800">
<ele>644.889954</ele>
<time>2021-03-31T12:34:12.895Z</time>
</trkpt>
<trkpt lat="30.5595100" lon="34.7126100">
<ele>644.500000</ele>
<time>2021-03-31T12:34:12.895Z</time>
</trkpt>
<trkpt lat="30.5593700" lon="34.7123100">
<ele>643.200012</ele>
<time>2021-03-31T12:34:12.895Z</time>
</trkpt>
<trkpt lat="30.5592900" lon="34.7120600">
<ele>642.070007</ele>
<time>2021-03-31T12:34:12.895Z</time>
</trkpt>
<trkpt lat="30.5591500" lon="34.7119100">
<ele>640.819946</ele>
<time>2021-03-31T12:34:12.895Z</time>
</trkpt>
<trkpt lat="30.5589200" lon="34.7117900">
<ele>640.049988</ele>
<time>2021-03-31T12:34:12.895Z</time>
</trkpt>
<trkpt lat="30.5588700" lon="34.7117300">
<ele>640.289978</ele>
<time>2021-03-31T12:34:12.895Z</time>
</trkpt>
<trkpt lat="30.5587700" lon="34.7114500">
<ele>640.930054</ele>
<time>2021-03-31T12:34:12.895Z</time>
</trkpt>
<trkpt lat="30.5582900" lon="34.7110500">
<ele>644.209961</ele>
<time>2021-03-31T12:34:12.895Z</time>
</trkpt>
<trkpt lat="30.5578100" lon="34.7105800">
<ele>651.869995</ele>
<time>2021-03-31T12:34:12.895Z</time>
</trkpt>
<trkpt lat="30.5577200" lon="34.7104300">
<ele>650.440002</ele>
<time>2021-03-31T12:34:12.895Z</time>
</trkpt>
<trkpt lat="30.5576300" lon="34.7102000">
<ele>647.789978</ele>
<time>2021-03-31T12:34:12.895Z</time>
</trkpt>
<trkpt lat="30.5574000" lon="34.7100600">
<ele>647.579956</ele>
<time>2021-03-31T12:34:12.895Z</time>
</trkpt>
<trkpt lat="30.5572300" lon="34.7098100">
<ele>646.639954</ele>
<time>2021-03-31T12:34:12.895Z</time>
</trkpt>
<trkpt lat="30.5568800" lon="34.7094700">
<ele>647.740051</ele>
<time>2021-03-31T12:34:12.895Z</time>
</trkpt>
<trkpt lat="30.5565600" lon="34.7090400">
<ele>651.989990</ele>
<time>2021-03-31T12:34:12.895Z</time>
</trkpt>
<trkpt lat="30.5564200" lon="34.7087100">
<ele>650.229980</ele>
<time>2021-03-31T12:34:12.895Z</time>
</trkpt>
<trkpt lat="30.5562300" lon="34.7085900">
<ele>651.080017</ele>
<time>2021-03-31T12:34:12.895Z</time>
</trkpt>
<trkpt lat="30.5556500" lon="34.7077600">
<ele>653.359985</ele>
<time>2021-03-31T12:34:12.895Z</time>
</trkpt>
<trkpt lat="30.5555500" lon="34.7076700">
<ele>655.360046</ele>
<time>2021-03-31T12:34:12.895Z</time>
</trkpt>
<trkpt lat="30.5554900" lon="34.7076300">
<ele>655.310059</ele>
<time>2021-03-31T12:34:12.895Z</time>
</trkpt>
<trkpt lat="30.5554500" lon="34.7075900">
<ele>655.429993</ele>
<time>2021-03-31T12:34:12.895Z</time>
</trkpt>
<trkpt lat="30.5553900" lon="34.7075300">
<ele>655.760010</ele>
<time>2021-03-31T12:34:12.896Z</time>
</trkpt>
<trkpt lat="30.5553400" lon="34.7074900">
<ele>656.040039</ele>
<time>2021-03-31T12:34:12.896Z</time>
</trkpt>
<trkpt lat="30.5552900" lon="34.7074500">
<ele>656.179993</ele>
<time>2021-03-31T12:34:12.896Z</time>
</trkpt>
<trkpt lat="30.5549700" lon="34.7072400">
<ele>657.849976</ele>
<time>2021-03-31T12:34:12.896Z</time>
</trkpt>
<trkpt lat="30.5548000" lon="34.7070700">
<ele>659.269958</ele>
<time>2021-03-31T12:34:12.896Z</time>
</trkpt>
<trkpt lat="30.5541500" lon="34.7062000">
<ele>671.020020</ele>
<time>2021-03-31T12:34:12.896Z</time>
</trkpt>
<trkpt lat="30.5539700" lon="34.7059000">
<ele>669.410034</ele>
<time>2021-03-31T12:34:12.896Z</time>
</trkpt>
<trkpt lat="30.5537800" lon="34.7057800">
<ele>668.219971</ele>
<time>2021-03-31T12:34:12.896Z</time>
</trkpt>
<trkpt lat="30.5535800" lon="34.7054500">
<ele>669.040039</ele>
<time>2021-03-31T12:34:12.896Z</time>
</trkpt>
<trkpt lat="30.5532400" lon="34.7051500">
<ele>668.809998</ele>
<time>2021-03-31T12:34:12.896Z</time>
</trkpt>
<trkpt lat="30.5530700" lon="34.7049400">
<ele>667.340027</ele>
<time>2021-03-31T12:34:12.896Z</time>
</trkpt>
<trkpt lat="30.5526600" lon="34.7041900">
<ele>667.439941</ele>
<time>2021-03-31T12:34:12.896Z</time>
</trkpt>
<trkpt lat="30.5524200" lon="34.7038500">
<ele>666.450012</ele>
<time>2021-03-31T12:34:12.896Z</time>
</trkpt>
<trkpt lat="30.5521200" lon="34.7033300">
<ele>663.989990</ele>
<time>2021-03-31T12:34:12.896Z</time>
</trkpt>
<trkpt lat="30.5520200" lon="34.7029300">
<ele>664.109985</ele>
<time>2021-03-31T12:34:12.896Z</time>
</trkpt>
<trkpt lat="30.5520000" lon="34.7027100">
<ele>666.140015</ele>
<time>2021-03-31T12:34:12.896Z</time>
</trkpt>
<trkpt lat="30.5520800" lon="34.7016700">
<ele>671.960022</ele>
<time>2021-03-31T12:34:12.896Z</time>
</trkpt>
<trkpt lat="30.5520800" lon="34.7011800">
<ele>673.829956</ele>
<time>2021-03-31T12:34:12.896Z</time>
</trkpt>
<trkpt lat="30.5521300" lon="34.7006300">
<ele>674.919983</ele>
<time>2021-03-31T12:34:12.896Z</time>
</trkpt>
<trkpt lat="30.5518800" lon="34.6993700">
<ele>679.739990</ele>
<time>2021-03-31T12:34:12.896Z</time>
</trkpt>
<trkpt lat="30.5517600" lon="34.6992100">
<ele>678.960022</ele>
<time>2021-03-31T12:34:12.896Z</time>
</trkpt>
<trkpt lat="30.5513900" lon="34.6988700">
<ele>677.000000</ele>
<time>2021-03-31T12:34:12.896Z</time>
</trkpt>
<trkpt lat="30.5511900" lon="34.6987900">
<ele>671.070007</ele>
<time>2021-03-31T12:34:12.896Z</time>
</trkpt>
<trkpt lat="30.5507700" lon="34.6987500">
<ele>668.769958</ele>
<time>2021-03-31T12:34:12.896Z</time>
</trkpt>
<trkpt lat="30.5505100" lon="34.6985100">
<ele>670.760010</ele>
<time>2021-03-31T12:34:12.896Z</time>
</trkpt>
<trkpt lat="30.5502600" lon="34.6981000">
<ele>674.109985</ele>
<time>2021-03-31T12:34:12.896Z</time>
</trkpt>
<trkpt lat="30.5501800" lon="34.6978200">
<ele>677.580017</ele>
<time>2021-03-31T12:34:12.896Z</time>
</trkpt>
<trkpt lat="30.5501400" lon="34.6973700">
<ele>685.840027</ele>
<time>2021-03-31T12:34:12.897Z</time>
</trkpt>
<trkpt lat="30.5500100" lon="34.6970700">
<ele>690.739990</ele>
<time>2021-03-31T12:34:12.897Z</time>
</trkpt>
<trkpt lat="30.5499200" lon="34.6969500">
<ele>692.900024</ele>
<time>2021-03-31T12:34:12.897Z</time>
</trkpt>
<trkpt lat="30.5492900" lon="34.6966000">
<ele>683.659973</ele>
<time>2021-03-31T12:34:12.897Z</time>
</trkpt>
<trkpt lat="30.5484400" lon="34.6963500">
<ele>672.150024</ele>
<time>2021-03-31T12:34:12.897Z</time>
</trkpt>
<trkpt lat="30.5480700" lon="34.6962800">
<ele>671.940002</ele>
<time>2021-03-31T12:34:12.897Z</time>
</trkpt>
<trkpt lat="30.5479300" lon="34.6962100">
<ele>672.740051</ele>
<time>2021-03-31T12:34:12.897Z</time>
</trkpt>
<trkpt lat="30.5478800" lon="34.6961500">
<ele>673.179993</ele>
<time>2021-03-31T12:34:12.897Z</time>
</trkpt>
<trkpt lat="30.5477200" lon="34.6959100">
<ele>675.919983</ele>
<time>2021-03-31T12:34:12.897Z</time>
</trkpt>
<trkpt lat="30.5475200" lon="34.6957000">
<ele>678.339966</ele>
<time>2021-03-31T12:34:12.897Z</time>
</trkpt>
<trkpt lat="30.5475000" lon="34.6956300">
<ele>678.729980</ele>
<time>2021-03-31T12:34:12.897Z</time>
</trkpt>
<trkpt lat="30.5475200" lon="34.6954200">
<ele>680.739990</ele>
<time>2021-03-31T12:34:12.897Z</time>
</trkpt>
<trkpt lat="30.5474700" lon="34.6952000">
<ele>682.950012</ele>
<time>2021-03-31T12:34:12.897Z</time>
</trkpt>
<trkpt lat="30.5474300" lon="34.6951300">
<ele>683.019958</ele>
<time>2021-03-31T12:34:12.897Z</time>
</trkpt>
<trkpt lat="30.5472200" lon="34.6949300">
<ele>683.479980</ele>
<time>2021-03-31T12:34:12.897Z</time>
</trkpt>
<trkpt lat="30.5471200" lon="34.6944100">
<ele>679.190002</ele>
<time>2021-03-31T12:34:12.897Z</time>
</trkpt>
<trkpt lat="30.5466100" lon="34.6933100">
<ele>683.340027</ele>
<time>2021-03-31T12:34:12.897Z</time>
</trkpt>
<trkpt lat="30.5464900" lon="34.6931100">
<ele>682.309998</ele>
<time>2021-03-31T12:34:12.897Z</time>
</trkpt>
<trkpt lat="30.5463000" lon="34.6929600">
<ele>680.650024</ele>
<time>2021-03-31T12:34:12.897Z</time>
</trkpt>
<trkpt lat="30.5459000" lon="34.6928000">
<ele>674.280029</ele>
<time>2021-03-31T12:34:12.897Z</time>
</trkpt>
<trkpt lat="30.5454400" lon="34.6928100">
<ele>674.789978</ele>
<time>2021-03-31T12:34:12.897Z</time>
</trkpt>
<trkpt lat="30.5453200" lon="34.6927700">
<ele>675.540039</ele>
<time>2021-03-31T12:34:12.897Z</time>
</trkpt>
<trkpt lat="30.5451800" lon="34.6926400">
<ele>675.170044</ele>
<time>2021-03-31T12:34:12.897Z</time>
</trkpt>
<trkpt lat="30.5447900" lon="34.6925400">
<ele>671.230042</ele>
<time>2021-03-31T12:34:12.897Z</time>
</trkpt>
<trkpt lat="30.5434600" lon="34.6916000">
<ele>683.239990</ele>
<time>2021-03-31T12:34:12.897Z</time>
</trkpt>
<trkpt lat="30.5430600" lon="34.6913500">
<ele>694.980042</ele>
<time>2021-03-31T12:34:12.897Z</time>
</trkpt>
<trkpt lat="30.5427800" lon="34.6910900">
<ele>690.760010</ele>
<time>2021-03-31T12:34:12.898Z</time>
</trkpt>
<trkpt lat="30.5425500" lon="34.6909800">
<ele>695.190002</ele>
<time>2021-03-31T12:34:12.898Z</time>
</trkpt>
<trkpt lat="30.5421800" lon="34.6908900">
<ele>700.209961</ele>
<time>2021-03-31T12:34:12.898Z</time>
</trkpt>
<trkpt lat="30.5420200" lon="34.6908200">
<ele>701.859985</ele>
<time>2021-03-31T12:34:12.898Z</time>
</trkpt>
<trkpt lat="30.5414000" lon="34.6903600">
<ele>701.039978</ele>
<time>2021-03-31T12:34:12.898Z</time>
</trkpt>
<trkpt lat="30.5411000" lon="34.6900300">
<ele>698.290039</ele>
<time>2021-03-31T12:34:12.898Z</time>
</trkpt>
<trkpt lat="30.5409400" lon="34.6899400">
<ele>696.349976</ele>
<time>2021-03-31T12:34:12.898Z</time>
</trkpt>
<trkpt lat="30.5406500" lon="34.6898600">
<ele>699.609985</ele>
<time>2021-03-31T12:34:12.898Z</time>
</trkpt>
<trkpt lat="30.5405300" lon="34.6897500">
<ele>701.710022</ele>
<time>2021-03-31T12:34:12.898Z</time>
</trkpt>
<trkpt lat="30.5403400" lon="34.6893400">
<ele>703.359985</ele>
<time>2021-03-31T12:34:12.898Z</time>
</trkpt>
<trkpt lat="30.5402400" lon="34.6886900">
<ele>699.860046</ele>
<time>2021-03-31T12:34:12.898Z</time>
</trkpt>
<trkpt lat="30.5401300" lon="34.6883400">
<ele>699.919983</ele>
<time>2021-03-31T12:34:12.898Z</time>
</trkpt>
<trkpt lat="30.5399700" lon="34.6882100">
<ele>699.119995</ele>
<time>2021-03-31T12:34:12.898Z</time>
</trkpt>
<trkpt lat="30.5396600" lon="34.6880700">
<ele>696.509949</ele>
<time>2021-03-31T12:34:12.898Z</time>
</trkpt>
<trkpt lat="30.5393300" lon="34.6877600">
<ele>697.889954</ele>
<time>2021-03-31T12:34:12.898Z</time>
</trkpt>
<trkpt lat="30.5389900" lon="34.6876000">
<ele>699.659973</ele>
<time>2021-03-31T12:34:12.898Z</time>
</trkpt>
<trkpt lat="30.5389000" lon="34.6875100">
<ele>698.240051</ele>
<time>2021-03-31T12:34:12.898Z</time>
</trkpt>
<trkpt lat="30.5382500" lon="34.6866000">
<ele>699.150024</ele>
<time>2021-03-31T12:34:12.898Z</time>
</trkpt>
<trkpt lat="30.5375800" lon="34.6855400">
<ele>698.739990</ele>
<time>2021-03-31T12:34:12.898Z</time>
</trkpt>
<trkpt lat="30.5373100" lon="34.6852000">
<ele>701.049988</ele>
<time>2021-03-31T12:34:12.898Z</time>
</trkpt>
<trkpt lat="30.5372900" lon="34.6850500">
<ele>702.280029</ele>
<time>2021-03-31T12:34:12.898Z</time>
</trkpt>
<trkpt lat="30.5372300" lon="34.6849100">
<ele>701.799988</ele>
<time>2021-03-31T12:34:12.898Z</time>
</trkpt>
<trkpt lat="30.5370800" lon="34.6848200">
<ele>700.330017</ele>
<time>2021-03-31T12:34:12.898Z</time>
</trkpt>
<trkpt lat="30.5366600" lon="34.6842200">
<ele>703.820007</ele>
<time>2021-03-31T12:34:12.898Z</time>
</trkpt>
<trkpt lat="30.5364500" lon="34.6839800">
<ele>703.330017</ele>
<time>2021-03-31T12:34:12.898Z</time>
</trkpt>
<trkpt lat="30.5360200" lon="34.6835900">
<ele>711.619995</ele>
<time>2021-03-31T12:34:12.898Z</time>
</trkpt>
<trkpt lat="30.5355800" lon="34.6832600">
<ele>711.750000</ele>
<time>2021-03-31T12:34:12.898Z</time>
</trkpt>
<trkpt lat="30.5347500" lon="34.6830000">
<ele>694.020020</ele>
<time>2021-03-31T12:34:12.899Z</time>
</trkpt>
<trkpt lat="30.5339800" lon="34.6828800">
<ele>704.309998</ele>
<time>2021-03-31T12:34:12.899Z</time>
</trkpt>
<trkpt lat="30.5337700" lon="34.6829100">
<ele>708.340027</ele>
<time>2021-03-31T12:34:12.899Z</time>
</trkpt>
<trkpt lat="30.5331900" lon="34.6826800">
<ele>720.380005</ele>
<time>2021-03-31T12:34:12.899Z</time>
</trkpt>
<trkpt lat="30.5327000" lon="34.6826000">
<ele>714.680054</ele>
<time>2021-03-31T12:34:12.899Z</time>
</trkpt>
<trkpt lat="30.5325100" lon="34.6825400">
<ele>711.869995</ele>
<time>2021-03-31T12:34:12.899Z</time>
</trkpt>
<trkpt lat="30.5322700" lon="34.6824500">
<ele>707.220032</ele>
<time>2021-03-31T12:34:12.899Z</time>
</trkpt>
<trkpt lat="30.5321200" lon="34.6823500">
<ele>705.459961</ele>
<time>2021-03-31T12:34:12.899Z</time>
</trkpt>
<trkpt lat="30.5319200" lon="34.6820600">
<ele>708.250000</ele>
<time>2021-03-31T12:34:12.899Z</time>
</trkpt>
<trkpt lat="30.5316800" lon="34.6818100">
<ele>717.760010</ele>
<time>2021-03-31T12:34:12.899Z</time>
</trkpt>
<trkpt lat="30.5314100" lon="34.6816100">
<ele>721.710022</ele>
<time>2021-03-31T12:34:12.899Z</time>
</trkpt>
<trkpt lat="30.5312400" lon="34.6813500">
<ele>724.710022</ele>
<time>2021-03-31T12:34:12.899Z</time>
</trkpt>
<trkpt lat="30.5305500" lon="34.6806200">
<ele>729.859985</ele>
<time>2021-03-31T12:34:12.899Z</time>
</trkpt>
<trkpt lat="30.5302000" lon="34.6804300">
<ele>717.959961</ele>
<time>2021-03-31T12:34:12.899Z</time>
</trkpt>
<trkpt lat="30.5299100" lon="34.6802100">
<ele>710.429993</ele>
<time>2021-03-31T12:34:12.899Z</time>
</trkpt>
<trkpt lat="30.5294400" lon="34.6799300">
<ele>717.990051</ele>
<time>2021-03-31T12:34:12.899Z</time>
</trkpt>
<trkpt lat="30.5293100" lon="34.6799200">
<ele>717.589966</ele>
<time>2021-03-31T12:34:12.899Z</time>
</trkpt>
<trkpt lat="30.5291500" lon="34.6798400">
<ele>716.929993</ele>
<time>2021-03-31T12:34:12.899Z</time>
</trkpt>
<trkpt lat="30.5289500" lon="34.6796500">
<ele>715.500000</ele>
<time>2021-03-31T12:34:12.899Z</time>
</trkpt>
<trkpt lat="30.5284600" lon="34.6793300">
<ele>721.839966</ele>
<time>2021-03-31T12:34:12.899Z</time>
</trkpt>
<trkpt lat="30.5281500" lon="34.6790500">
<ele>732.929993</ele>
<time>2021-03-31T12:34:12.899Z</time>
</trkpt>
<trkpt lat="30.5278100" lon="34.6788000">
<ele>740.330017</ele>
<time>2021-03-31T12:34:12.899Z</time>
</trkpt>
<trkpt lat="30.5273600" lon="34.6784100">
<ele>738.200012</ele>
<time>2021-03-31T12:34:12.899Z</time>
</trkpt>
<trkpt lat="30.5270700" lon="34.6780900">
<ele>734.940002</ele>
<time>2021-03-31T12:34:12.899Z</time>
</trkpt>
<trkpt lat="30.5269600" lon="34.6778600">
<ele>733.940002</ele>
<time>2021-03-31T12:34:12.899Z</time>
</trkpt>
<trkpt lat="30.5267900" lon="34.6776300">
<ele>735.740051</ele>
<time>2021-03-31T12:34:12.899Z</time>
</trkpt>
<trkpt lat="30.5264500" lon="34.6772800">
<ele>739.609985</ele>
<time>2021-03-31T12:34:12.900Z</time>
</trkpt>
<trkpt lat="30.5263300" lon="34.6767800">
<ele>743.239990</ele>
<time>2021-03-31T12:34:12.900Z</time>
</trkpt>
<trkpt lat="30.5261200" lon="34.6763900">
<ele>741.989990</ele>
<time>2021-03-31T12:34:12.900Z</time>
</trkpt>
<trkpt lat="30.5258700" lon="34.6757100">
<ele>743.020020</ele>
<time>2021-03-31T12:34:12.900Z</time>
</trkpt>
<trkpt lat="30.5257500" lon="34.6755400">
<ele>743.219971</ele>
<time>2021-03-31T12:34:12.900Z</time>
</trkpt>
<trkpt lat="30.5253700" lon="34.6751300">
<ele>734.179993</ele>
<time>2021-03-31T12:34:12.900Z</time>
</trkpt>
<trkpt lat="30.5254500" lon="34.6750400">
<ele>732.450012</ele>
<time>2021-03-31T12:34:12.900Z</time>
</trkpt>
<trkpt lat="30.5256100" lon="34.6748100">
<ele>728.029968</ele>
<time>2021-03-31T12:34:12.900Z</time>
</trkpt>
<trkpt lat="30.5256900" lon="34.6747300">
<ele>726.160034</ele>
<time>2021-03-31T12:34:12.900Z</time>
</trkpt>
<trkpt lat="30.5258700" lon="34.6746100">
<ele>724.309998</ele>
<time>2021-03-31T12:34:12.900Z</time>
</trkpt>
<trkpt lat="30.5260100" lon="34.6745500">
<ele>723.279968</ele>
<time>2021-03-31T12:34:12.900Z</time>
</trkpt>
<trkpt lat="30.5260900" lon="34.6744900">
<ele>722.500000</ele>
<time>2021-03-31T12:34:12.900Z</time>
</trkpt>
<trkpt lat="30.5261300" lon="34.6744800">
<ele>722.770020</ele>
<time>2021-03-31T12:34:12.900Z</time>
</trkpt>
<trkpt lat="30.5262600" lon="34.6744000">
<ele>725.700012</ele>
<time>2021-03-31T12:34:12.900Z</time>
</trkpt>
<trkpt lat="30.5263600" lon="34.6743600">
<ele>728.289978</ele>
<time>2021-03-31T12:34:12.900Z</time>
</trkpt>
<trkpt lat="30.5266100" lon="34.6741600">
<ele>734.159973</ele>
<time>2021-03-31T12:34:12.900Z</time>
</trkpt>
<trkpt lat="30.5267100" lon="34.6740400">
<ele>735.339966</ele>
<time>2021-03-31T12:34:12.900Z</time>
</trkpt>
<trkpt lat="30.5270600" lon="34.6738900">
<ele>737.590027</ele>
<time>2021-03-31T12:34:12.900Z</time>
</trkpt>
<trkpt lat="30.5272300" lon="34.6737800">
<ele>736.550049</ele>
<time>2021-03-31T12:34:12.900Z</time>
</trkpt>
<trkpt lat="30.5273600" lon="34.6736600">
<ele>735.510010</ele>
<time>2021-03-31T12:34:12.900Z</time>
</trkpt>
<trkpt lat="30.5274100" lon="34.6736400">
<ele>735.289978</ele>
<time>2021-03-31T12:34:12.900Z</time>
</trkpt>
<trkpt lat="30.5275500" lon="34.6736500">
<ele>734.729980</ele>
<time>2021-03-31T12:34:12.900Z</time>
</trkpt>
<trkpt lat="30.5276900" lon="34.6735800">
<ele>734.159973</ele>
<time>2021-03-31T12:34:12.900Z</time>
</trkpt>
<trkpt lat="30.5277400" lon="34.6734800">
<ele>733.320007</ele>
<time>2021-03-31T12:34:12.900Z</time>
</trkpt>
<trkpt lat="30.5278900" lon="34.6734200">
<ele>731.540039</ele>
<time>2021-03-31T12:34:12.900Z</time>
</trkpt>
<trkpt lat="30.5279400" lon="34.6734300">
<ele>731.150024</ele>
<time>2021-03-31T12:34:12.900Z</time>
</trkpt>
<trkpt lat="30.5279900" lon="34.6734100">
<ele>730.470032</ele>
<time>2021-03-31T12:34:12.901Z</time>
</trkpt>
<trkpt lat="30.5281100" lon="34.6733200">
<ele>729.330017</ele>
<time>2021-03-31T12:34:12.901Z</time>
</trkpt>
<trkpt lat="30.5282100" lon="34.6731300">
<ele>728.969971</ele>
<time>2021-03-31T12:34:12.901Z</time>
</trkpt>
<trkpt lat="30.5283600" lon="34.6731400">
<ele>729.760010</ele>
<time>2021-03-31T12:34:12.901Z</time>
</trkpt>
<trkpt lat="30.5285900" lon="34.6732300">
<ele>732.339966</ele>
<time>2021-03-31T12:34:12.901Z</time>
</trkpt>
<trkpt lat="30.5286800" lon="34.6732100">
<ele>733.299988</ele>
<time>2021-03-31T12:34:12.901Z</time>
</trkpt>
<trkpt lat="30.5289000" lon="34.6733700">
<ele>738.079956</ele>
<time>2021-03-31T12:34:12.901Z</time>
</trkpt>
<trkpt lat="30.5290500" lon="34.6733900">
<ele>744.170044</ele>
<time>2021-03-31T12:34:12.901Z</time>
</trkpt>
<trkpt lat="30.5291500" lon="34.6733900">
<ele>748.000061</ele>
<time>2021-03-31T12:34:12.901Z</time>
</trkpt>
<trkpt lat="30.5292600" lon="34.6734300">
<ele>754.489990</ele>
<time>2021-03-31T12:34:12.901Z</time>
</trkpt>
<trkpt lat="30.5292700" lon="34.6733800">
<ele>753.549988</ele>
<time>2021-03-31T12:34:12.901Z</time>
</trkpt>
<trkpt lat="30.5293200" lon="34.6733900">
<ele>756.359985</ele>
<time>2021-03-31T12:34:12.901Z</time>
</trkpt>
<trkpt lat="30.5293500" lon="34.6733800">
<ele>757.580017</ele>
<time>2021-03-31T12:34:12.901Z</time>
</trkpt>
<trkpt lat="30.5293500" lon="34.6733800">
<ele>757.580017</ele>
<time>2021-03-31T12:34:12.901Z</time>
</trkpt>
<trkpt lat="30.5293200" lon="34.6733900">
<ele>756.359985</ele>
<time>2021-03-31T12:34:12.901Z</time>
</trkpt>
<trkpt lat="30.5292700" lon="34.6733800">
<ele>753.549988</ele>
<time>2021-03-31T12:34:12.901Z</time>
</trkpt>
<trkpt lat="30.5292600" lon="34.6734300">
<ele>754.489990</ele>
<time>2021-03-31T12:34:12.901Z</time>
</trkpt>
<trkpt lat="30.5291500" lon="34.6733900">
<ele>748.000061</ele>
<time>2021-03-31T12:34:12.901Z</time>
</trkpt>
<trkpt lat="30.5290500" lon="34.6733900">
<ele>744.170044</ele>
<time>2021-03-31T12:34:12.901Z</time>
</trkpt>
<trkpt lat="30.5289000" lon="34.6733700">
<ele>738.079956</ele>
<time>2021-03-31T12:34:12.901Z</time>
</trkpt>
<trkpt lat="30.5286800" lon="34.6732100">
<ele>733.299988</ele>
<time>2021-03-31T12:34:12.901Z</time>
</trkpt>
<trkpt lat="30.5285900" lon="34.6732300">
<ele>732.339966</ele>
<time>2021-03-31T12:34:12.901Z</time>
</trkpt>
<trkpt lat="30.5283600" lon="34.6731400">
<ele>729.760010</ele>
<time>2021-03-31T12:34:12.901Z</time>
</trkpt>
<trkpt lat="30.5282100" lon="34.6731300">
<ele>728.969971</ele>
<time>2021-03-31T12:34:12.901Z</time>
</trkpt>
<trkpt lat="30.5281100" lon="34.6733200">
<ele>729.330017</ele>
<time>2021-03-31T12:34:12.901Z</time>
</trkpt>
<trkpt lat="30.5279900" lon="34.6734100">
<ele>730.470032</ele>
<time>2021-03-31T12:34:12.901Z</time>
</trkpt>
<trkpt lat="30.5279400" lon="34.6734300">
<ele>731.150024</ele>
<time>2021-03-31T12:34:12.901Z</time>
</trkpt>
<trkpt lat="30.5278900" lon="34.6734200">
<ele>731.540039</ele>
<time>2021-03-31T12:34:12.901Z</time>
</trkpt>
<trkpt lat="30.5277400" lon="34.6734800">
<ele>733.320007</ele>
<time>2021-03-31T12:34:12.902Z</time>
</trkpt>
<trkpt lat="30.5276900" lon="34.6735800">
<ele>734.159973</ele>
<time>2021-03-31T12:34:12.902Z</time>
</trkpt>
<trkpt lat="30.5275500" lon="34.6736500">
<ele>734.729980</ele>
<time>2021-03-31T12:34:12.902Z</time>
</trkpt>
<trkpt lat="30.5274100" lon="34.6736400">
<ele>735.289978</ele>
<time>2021-03-31T12:34:12.902Z</time>
</trkpt>
<trkpt lat="30.5273600" lon="34.6736600">
<ele>735.510010</ele>
<time>2021-03-31T12:34:12.902Z</time>
</trkpt>
<trkpt lat="30.5272300" lon="34.6737800">
<ele>736.550049</ele>
<time>2021-03-31T12:34:12.902Z</time>
</trkpt>
<trkpt lat="30.5270600" lon="34.6738900">
<ele>737.590027</ele>
<time>2021-03-31T12:34:12.902Z</time>
</trkpt>
<trkpt lat="30.5267100" lon="34.6740400">
<ele>735.339966</ele>
<time>2021-03-31T12:34:12.902Z</time>
</trkpt>
<trkpt lat="30.5266100" lon="34.6741600">
<ele>734.159973</ele>
<time>2021-03-31T12:34:12.902Z</time>
</trkpt>
<trkpt lat="30.5263600" lon="34.6743600">
<ele>728.289978</ele>
<time>2021-03-31T12:34:12.902Z</time>
</trkpt>
<trkpt lat="30.5262600" lon="34.6744000">
<ele>725.700012</ele>
<time>2021-03-31T12:34:12.902Z</time>
</trkpt>
<trkpt lat="30.5261300" lon="34.6744800">
<ele>722.770020</ele>
<time>2021-03-31T12:34:12.902Z</time>
</trkpt>
<trkpt lat="30.5260900" lon="34.6744900">
<ele>722.500000</ele>
<time>2021-03-31T12:34:12.902Z</time>
</trkpt>
<trkpt lat="30.5260100" lon="34.6745500">
<ele>723.279968</ele>
<time>2021-03-31T12:34:12.902Z</time>
</trkpt>
<trkpt lat="30.5258700" lon="34.6746100">
<ele>724.309998</ele>
<time>2021-03-31T12:34:12.902Z</time>
</trkpt>
<trkpt lat="30.5256900" lon="34.6747300">
<ele>726.160034</ele>
<time>2021-03-31T12:34:12.902Z</time>
</trkpt>
<trkpt lat="30.5256100" lon="34.6748100">
<ele>728.029968</ele>
<time>2021-03-31T12:34:12.902Z</time>
</trkpt>
<trkpt lat="30.5254500" lon="34.6750400">
<ele>732.450012</ele>
<time>2021-03-31T12:34:12.902Z</time>
</trkpt>
<trkpt lat="30.5253700" lon="34.6751300">
<ele>734.179993</ele>
<time>2021-03-31T12:34:12.902Z</time>
</trkpt>
<trkpt lat="30.5257500" lon="34.6755400">
<ele>743.219971</ele>
<time>2021-03-31T12:34:12.902Z</time>
</trkpt>
<trkpt lat="30.5258700" lon="34.6757100">
<ele>743.020020</ele>
<time>2021-03-31T12:34:12.902Z</time>
</trkpt>
<trkpt lat="30.5261200" lon="34.6763900">
<ele>741.989990</ele>
<time>2021-03-31T12:34:12.902Z</time>
</trkpt>
<trkpt lat="30.5263300" lon="34.6767800">
<ele>743.239990</ele>
<time>2021-03-31T12:34:12.902Z</time>
</trkpt>
<trkpt lat="30.5264500" lon="34.6772800">
<ele>739.609985</ele>
<time>2021-03-31T12:34:12.902Z</time>
</trkpt>
<trkpt lat="30.5267900" lon="34.6776300">
<ele>735.740051</ele>
<time>2021-03-31T12:34:12.902Z</time>
</trkpt>
<trkpt lat="30.5269600" lon="34.6778600">
<ele>733.940002</ele>
<time>2021-03-31T12:34:12.902Z</time>
</trkpt>
<trkpt lat="30.5270700" lon="34.6780900">
<ele>734.940002</ele>
<time>2021-03-31T12:34:12.902Z</time>
</trkpt>
<trkpt lat="30.5273600" lon="34.6784100">
<ele>738.200012</ele>
<time>2021-03-31T12:34:12.903Z</time>
</trkpt>
<trkpt lat="30.5278100" lon="34.6788000">
<ele>740.330017</ele>
<time>2021-03-31T12:34:12.903Z</time>
</trkpt>
<trkpt lat="30.5281500" lon="34.6790500">
<ele>732.929993</ele>
<time>2021-03-31T12:34:12.903Z</time>
</trkpt>
<trkpt lat="30.5284600" lon="34.6793300">
<ele>721.839966</ele>
<time>2021-03-31T12:34:12.903Z</time>
</trkpt>
<trkpt lat="30.5289500" lon="34.6796500">
<ele>715.500000</ele>
<time>2021-03-31T12:34:12.903Z</time>
</trkpt>
<trkpt lat="30.5291500" lon="34.6798400">
<ele>716.929993</ele>
<time>2021-03-31T12:34:12.903Z</time>
</trkpt>
<trkpt lat="30.5293100" lon="34.6799200">
<ele>717.589966</ele>
<time>2021-03-31T12:34:12.903Z</time>
</trkpt>
<trkpt lat="30.5294400" lon="34.6799300">
<ele>717.990051</ele>
<time>2021-03-31T12:34:12.903Z</time>
</trkpt>
<trkpt lat="30.5299100" lon="34.6802100">
<ele>710.429993</ele>
<time>2021-03-31T12:34:12.903Z</time>
</trkpt>
<trkpt lat="30.5302000" lon="34.6804300">
<ele>717.959961</ele>
<time>2021-03-31T12:34:12.903Z</time>
</trkpt>
<trkpt lat="30.5305500" lon="34.6806200">
<ele>729.859985</ele>
<time>2021-03-31T12:34:12.903Z</time>
</trkpt>
<trkpt lat="30.5312400" lon="34.6813500">
<ele>724.710022</ele>
<time>2021-03-31T12:34:12.903Z</time>
</trkpt>
<trkpt lat="30.5314100" lon="34.6816100">
<ele>721.710022</ele>
<time>2021-03-31T12:34:12.903Z</time>
</trkpt>
<trkpt lat="30.5316800" lon="34.6818100">
<ele>717.760010</ele>
<time>2021-03-31T12:34:12.903Z</time>
</trkpt>
<trkpt lat="30.5319200" lon="34.6820600">
<ele>708.250000</ele>
<time>2021-03-31T12:34:12.903Z</time>
</trkpt>
<trkpt lat="30.5321200" lon="34.6823500">
<ele>705.459961</ele>
<time>2021-03-31T12:34:12.903Z</time>
</trkpt>
<trkpt lat="30.5322700" lon="34.6824500">
<ele>707.220032</ele>
<time>2021-03-31T12:34:12.903Z</time>
</trkpt>
<trkpt lat="30.5325100" lon="34.6825400">
<ele>711.869995</ele>
<time>2021-03-31T12:34:12.903Z</time>
</trkpt>
<trkpt lat="30.5327000" lon="34.6826000">
<ele>714.680054</ele>
<time>2021-03-31T12:34:12.903Z</time>
</trkpt>
<trkpt lat="30.5331900" lon="34.6826800">
<ele>720.380005</ele>
<time>2021-03-31T12:34:12.903Z</time>
</trkpt>
<trkpt lat="30.5337700" lon="34.6829100">
<ele>708.340027</ele>
<time>2021-03-31T12:34:12.903Z</time>
</trkpt>
<trkpt lat="30.5339800" lon="34.6828800">
<ele>704.309998</ele>
<time>2021-03-31T12:34:12.903Z</time>
</trkpt>
<trkpt lat="30.5347500" lon="34.6830000">
<ele>694.020020</ele>
<time>2021-03-31T12:34:12.903Z</time>
</trkpt>
<trkpt lat="30.5355800" lon="34.6832600">
<ele>711.750000</ele>
<time>2021-03-31T12:34:12.903Z</time>
</trkpt>
<trkpt lat="30.5360200" lon="34.6835900">
<ele>711.619995</ele>
<time>2021-03-31T12:34:12.903Z</time>
</trkpt>
<trkpt lat="30.5364500" lon="34.6839800">
<ele>703.330017</ele>
<time>2021-03-31T12:34:12.903Z</time>
</trkpt>
<trkpt lat="30.5366600" lon="34.6842200">
<ele>703.820007</ele>
<time>2021-03-31T12:34:12.903Z</time>
</trkpt>
<trkpt lat="30.5370800" lon="34.6848200">
<ele>700.330017</ele>
<time>2021-03-31T12:34:12.903Z</time>
</trkpt>
<trkpt lat="30.5372300" lon="34.6849100">
<ele>701.799988</ele>
<time>2021-03-31T12:34:12.904Z</time>
</trkpt>
<trkpt lat="30.5372900" lon="34.6850500">
<ele>702.280029</ele>
<time>2021-03-31T12:34:12.904Z</time>
</trkpt>
<trkpt lat="30.5373100" lon="34.6852000">
<ele>701.049988</ele>
<time>2021-03-31T12:34:12.904Z</time>
</trkpt>
<trkpt lat="30.5375800" lon="34.6855400">
<ele>698.739990</ele>
<time>2021-03-31T12:34:12.904Z</time>
</trkpt>
<trkpt lat="30.5382500" lon="34.6866000">
<ele>699.150024</ele>
<time>2021-03-31T12:34:12.904Z</time>
</trkpt>
<trkpt lat="30.5389000" lon="34.6875100">
<ele>698.240051</ele>
<time>2021-03-31T12:34:12.904Z</time>
</trkpt>
<trkpt lat="30.5389900" lon="34.6876000">
<ele>699.659973</ele>
<time>2021-03-31T12:34:12.904Z</time>
</trkpt>
<trkpt lat="30.5393300" lon="34.6877600">
<ele>697.889954</ele>
<time>2021-03-31T12:34:12.904Z</time>
</trkpt>
<trkpt lat="30.5396600" lon="34.6880700">
<ele>696.509949</ele>
<time>2021-03-31T12:34:12.904Z</time>
</trkpt>
<trkpt lat="30.5399700" lon="34.6882100">
<ele>699.119995</ele>
<time>2021-03-31T12:34:12.904Z</time>
</trkpt>
<trkpt lat="30.5401300" lon="34.6883400">
<ele>699.919983</ele>
<time>2021-03-31T12:34:12.904Z</time>
</trkpt>
<trkpt lat="30.5402400" lon="34.6886900">
<ele>699.860046</ele>
<time>2021-03-31T12:34:12.904Z</time>
</trkpt>
<trkpt lat="30.5403400" lon="34.6893400">
<ele>703.359985</ele>
<time>2021-03-31T12:34:12.904Z</time>
</trkpt>
<trkpt lat="30.5405300" lon="34.6897500">
<ele>701.710022</ele>
<time>2021-03-31T12:34:12.904Z</time>
</trkpt>
<trkpt lat="30.5406500" lon="34.6898600">
<ele>699.609985</ele>
<time>2021-03-31T12:34:12.904Z</time>
</trkpt>
<trkpt lat="30.5409400" lon="34.6899400">
<ele>696.349976</ele>
<time>2021-03-31T12:34:12.904Z</time>
</trkpt>
<trkpt lat="30.5411000" lon="34.6900300">
<ele>698.290039</ele>
<time>2021-03-31T12:34:12.904Z</time>
</trkpt>
<trkpt lat="30.5414000" lon="34.6903600">
<ele>701.039978</ele>
<time>2021-03-31T12:34:12.904Z</time>
</trkpt>
<trkpt lat="30.5420200" lon="34.6908200">
<ele>701.859985</ele>
<time>2021-03-31T12:34:12.904Z</time>
</trkpt>
<trkpt lat="30.5421800" lon="34.6908900">
<ele>700.209961</ele>
<time>2021-03-31T12:34:12.904Z</time>
</trkpt>
<trkpt lat="30.5425500" lon="34.6909800">
<ele>695.190002</ele>
<time>2021-03-31T12:34:12.904Z</time>
</trkpt>
<trkpt lat="30.5427800" lon="34.6910900">
<ele>690.760010</ele>
<time>2021-03-31T12:34:12.904Z</time>
</trkpt>
<trkpt lat="30.5430600" lon="34.6913500">
<ele>694.980042</ele>
<time>2021-03-31T12:34:12.904Z</time>
</trkpt>
<trkpt lat="30.5434600" lon="34.6916000">
<ele>683.239990</ele>
<time>2021-03-31T12:34:12.904Z</time>
</trkpt>
<trkpt lat="30.5447900" lon="34.6925400">
<ele>671.230042</ele>
<time>2021-03-31T12:34:12.904Z</time>
</trkpt>
<trkpt lat="30.5451800" lon="34.6926400">
<ele>675.170044</ele>
<time>2021-03-31T12:34:12.904Z</time>
</trkpt>
<trkpt lat="30.5453200" lon="34.6927700">
<ele>675.540039</ele>
<time>2021-03-31T12:34:12.904Z</time>
</trkpt>
<trkpt lat="30.5454400" lon="34.6928100">
<ele>674.789978</ele>
<time>2021-03-31T12:34:12.904Z</time>
</trkpt>
<trkpt lat="30.5459000" lon="34.6928000">
<ele>674.280029</ele>
<time>2021-03-31T12:34:12.904Z</time>
</trkpt>
<trkpt lat="30.5463000" lon="34.6929600">
<ele>680.650024</ele>
<time>2021-03-31T12:34:12.905Z</time>
</trkpt>
<trkpt lat="30.5464900" lon="34.6931100">
<ele>682.309998</ele>
<time>2021-03-31T12:34:12.905Z</time>
</trkpt>
<trkpt lat="30.5466100" lon="34.6933100">
<ele>683.340027</ele>
<time>2021-03-31T12:34:12.905Z</time>
</trkpt>
<trkpt lat="30.5471200" lon="34.6944100">
<ele>679.190002</ele>
<time>2021-03-31T12:34:12.905Z</time>
</trkpt>
<trkpt lat="30.5472200" lon="34.6949300">
<ele>683.479980</ele>
<time>2021-03-31T12:34:12.905Z</time>
</trkpt>
<trkpt lat="30.5474300" lon="34.6951300">
<ele>683.019958</ele>
<time>2021-03-31T12:34:12.905Z</time>
</trkpt>
<trkpt lat="30.5474700" lon="34.6952000">
<ele>682.950012</ele>
<time>2021-03-31T12:34:12.905Z</time>
</trkpt>
<trkpt lat="30.5475200" lon="34.6954200">
<ele>680.739990</ele>
<time>2021-03-31T12:34:12.905Z</time>
</trkpt>
<trkpt lat="30.5475000" lon="34.6956300">
<ele>678.729980</ele>
<time>2021-03-31T12:34:12.905Z</time>
</trkpt>
<trkpt lat="30.5475200" lon="34.6957000">
<ele>678.339966</ele>
<time>2021-03-31T12:34:12.905Z</time>
</trkpt>
<trkpt lat="30.5477200" lon="34.6959100">
<ele>675.919983</ele>
<time>2021-03-31T12:34:12.905Z</time>
</trkpt>
<trkpt lat="30.5478800" lon="34.6961500">
<ele>673.179993</ele>
<time>2021-03-31T12:34:12.905Z</time>
</trkpt>
<trkpt lat="30.5479300" lon="34.6962100">
<ele>672.740051</ele>
<time>2021-03-31T12:34:12.905Z</time>
</trkpt>
<trkpt lat="30.5480700" lon="34.6962800">
<ele>671.940002</ele>
<time>2021-03-31T12:34:12.905Z</time>
</trkpt>
<trkpt lat="30.5484400" lon="34.6963500">
<ele>672.150024</ele>
<time>2021-03-31T12:34:12.905Z</time>
</trkpt>
<trkpt lat="30.5492900" lon="34.6966000">
<ele>683.659973</ele>
<time>2021-03-31T12:34:12.905Z</time>
</trkpt>
<trkpt lat="30.5499200" lon="34.6969500">
<ele>692.900024</ele>
<time>2021-03-31T12:34:12.905Z</time>
</trkpt>
<trkpt lat="30.5500100" lon="34.6970700">
<ele>690.739990</ele>
<time>2021-03-31T12:34:12.905Z</time>
</trkpt>
<trkpt lat="30.5501400" lon="34.6973700">
<ele>685.840027</ele>
<time>2021-03-31T12:34:12.905Z</time>
</trkpt>
<trkpt lat="30.5501800" lon="34.6978200">
<ele>677.580017</ele>
<time>2021-03-31T12:34:12.905Z</time>
</trkpt>
<trkpt lat="30.5502600" lon="34.6981000">
<ele>674.109985</ele>
<time>2021-03-31T12:34:12.905Z</time>
</trkpt>
<trkpt lat="30.5505100" lon="34.6985100">
<ele>670.760010</ele>
<time>2021-03-31T12:34:12.905Z</time>
</trkpt>
<trkpt lat="30.5507700" lon="34.6987500">
<ele>668.769958</ele>
<time>2021-03-31T12:34:12.905Z</time>
</trkpt>
<trkpt lat="30.5511900" lon="34.6987900">
<ele>671.070007</ele>
<time>2021-03-31T12:34:12.905Z</time>
</trkpt>
<trkpt lat="30.5513900" lon="34.6988700">
<ele>677.000000</ele>
<time>2021-03-31T12:34:12.905Z</time>
</trkpt>
<trkpt lat="30.5517600" lon="34.6992100">
<ele>678.960022</ele>
<time>2021-03-31T12:34:12.905Z</time>
</trkpt>
<trkpt lat="30.5518800" lon="34.6993700">
<ele>679.739990</ele>
<time>2021-03-31T12:34:12.905Z</time>
</trkpt>
<trkpt lat="30.5521300" lon="34.7006300">
<ele>674.919983</ele>
<time>2021-03-31T12:34:12.905Z</time>
</trkpt>
<trkpt lat="30.5520800" lon="34.7011800">
<ele>673.829956</ele>
<time>2021-03-31T12:34:12.905Z</time>
</trkpt>
<trkpt lat="30.5520800" lon="34.7016700">
<ele>671.960022</ele>
<time>2021-03-31T12:34:12.905Z</time>
</trkpt>
<trkpt lat="30.5520000" lon="34.7027100">
<ele>666.140015</ele>
<time>2021-03-31T12:34:12.905Z</time>
</trkpt>
<trkpt lat="30.5520200" lon="34.7029300">
<ele>664.109985</ele>
<time>2021-03-31T12:34:12.906Z</time>
</trkpt>
<trkpt lat="30.5521200" lon="34.7033300">
<ele>663.989990</ele>
<time>2021-03-31T12:34:12.906Z</time>
</trkpt>
<trkpt lat="30.5524200" lon="34.7038500">
<ele>666.450012</ele>
<time>2021-03-31T12:34:12.906Z</time>
</trkpt>
<trkpt lat="30.5526600" lon="34.7041900">
<ele>667.439941</ele>
<time>2021-03-31T12:34:12.906Z</time>
</trkpt>
<trkpt lat="30.5530700" lon="34.7049400">
<ele>667.340027</ele>
<time>2021-03-31T12:34:12.906Z</time>
</trkpt>
<trkpt lat="30.5532400" lon="34.7051500">
<ele>668.809998</ele>
<time>2021-03-31T12:34:12.906Z</time>
</trkpt>
<trkpt lat="30.5535800" lon="34.7054500">
<ele>669.040039</ele>
<time>2021-03-31T12:34:12.906Z</time>
</trkpt>
<trkpt lat="30.5537800" lon="34.7057800">
<ele>668.219971</ele>
<time>2021-03-31T12:34:12.906Z</time>
</trkpt>
<trkpt lat="30.5539700" lon="34.7059000">
<ele>669.410034</ele>
<time>2021-03-31T12:34:12.906Z</time>
</trkpt>
<trkpt lat="30.5541500" lon="34.7062000">
<ele>671.020020</ele>
<time>2021-03-31T12:34:12.906Z</time>
</trkpt>
<trkpt lat="30.5548000" lon="34.7070700">
<ele>659.269958</ele>
<time>2021-03-31T12:34:12.906Z</time>
</trkpt>
<trkpt lat="30.5549700" lon="34.7072400">
<ele>657.849976</ele>
<time>2021-03-31T12:34:12.906Z</time>
</trkpt>
<trkpt lat="30.5552900" lon="34.7074500">
<ele>656.179993</ele>
<time>2021-03-31T12:34:12.906Z</time>
</trkpt>
<trkpt lat="30.5553400" lon="34.7074900">
<ele>656.040039</ele>
<time>2021-03-31T12:34:12.906Z</time>
</trkpt>
<trkpt lat="30.5553900" lon="34.7075300">
<ele>655.760010</ele>
<time>2021-03-31T12:34:12.906Z</time>
</trkpt>
<trkpt lat="30.5554500" lon="34.7075900">
<ele>655.429993</ele>
<time>2021-03-31T12:34:12.906Z</time>
</trkpt>
<trkpt lat="30.5554900" lon="34.7076300">
<ele>655.310059</ele>
<time>2021-03-31T12:34:12.906Z</time>
</trkpt>
<trkpt lat="30.5555500" lon="34.7076700">
<ele>655.360046</ele>
<time>2021-03-31T12:34:12.906Z</time>
</trkpt>
<trkpt lat="30.5556500" lon="34.7077600">
<ele>653.359985</ele>
<time>2021-03-31T12:34:12.906Z</time>
</trkpt>
<trkpt lat="30.5562300" lon="34.7085900">
<ele>651.080017</ele>
<time>2021-03-31T12:34:12.906Z</time>
</trkpt>
<trkpt lat="30.5564200" lon="34.7087100">
<ele>650.229980</ele>
<time>2021-03-31T12:34:12.906Z</time>
</trkpt>
<trkpt lat="30.5565600" lon="34.7090400">
<ele>651.989990</ele>
<time>2021-03-31T12:34:12.906Z</time>
</trkpt>
<trkpt lat="30.5568800" lon="34.7094700">
<ele>647.740051</ele>
<time>2021-03-31T12:34:12.906Z</time>
</trkpt>
<trkpt lat="30.5572300" lon="34.7098100">
<ele>646.639954</ele>
<time>2021-03-31T12:34:12.906Z</time>
</trkpt>
<trkpt lat="30.5574000" lon="34.7100600">
<ele>647.579956</ele>
<time>2021-03-31T12:34:12.906Z</time>
</trkpt>
<trkpt lat="30.5576300" lon="34.7102000">
<ele>647.789978</ele>
<time>2021-03-31T12:34:12.906Z</time>
</trkpt>
<trkpt lat="30.5577200" lon="34.7104300">
<ele>650.440002</ele>
<time>2021-03-31T12:34:12.906Z</time>
</trkpt>
<trkpt lat="30.5578100" lon="34.7105800">
<ele>651.869995</ele>
<time>2021-03-31T12:34:12.907Z</time>
</trkpt>
<trkpt lat="30.5582900" lon="34.7110500">
<ele>644.209961</ele>
<time>2021-03-31T12:34:12.907Z</time>
</trkpt>
<trkpt lat="30.5587700" lon="34.7114500">
<ele>640.930054</ele>
<time>2021-03-31T12:34:12.907Z</time>
</trkpt>
<trkpt lat="30.5588700" lon="34.7117300">
<ele>640.289978</ele>
<time>2021-03-31T12:34:12.907Z</time>
</trkpt>
<trkpt lat="30.5589200" lon="34.7117900">
<ele>640.049988</ele>
<time>2021-03-31T12:34:12.907Z</time>
</trkpt>
<trkpt lat="30.5591500" lon="34.7119100">
<ele>640.819946</ele>
<time>2021-03-31T12:34:12.907Z</time>
</trkpt>
<trkpt lat="30.5592900" lon="34.7120600">
<ele>642.070007</ele>
<time>2021-03-31T12:34:12.907Z</time>
</trkpt>
<trkpt lat="30.5593700" lon="34.7123100">
<ele>643.200012</ele>
<time>2021-03-31T12:34:12.907Z</time>
</trkpt>
<trkpt lat="30.5595100" lon="34.7126100">
<ele>644.500000</ele>
<time>2021-03-31T12:34:12.907Z</time>
</trkpt>
<trkpt lat="30.5595800" lon="34.7128800">
<ele>644.889954</ele>
<time>2021-03-31T12:34:12.907Z</time>
</trkpt>
<trkpt lat="30.5595900" lon="34.7131800">
<ele>643.429993</ele>
<time>2021-03-31T12:34:12.907Z</time>
</trkpt>
<trkpt lat="30.5595500" lon="34.7135700">
<ele>640.599976</ele>
<time>2021-03-31T12:34:12.907Z</time>
</trkpt>
<trkpt lat="30.5595700" lon="34.7138100">
<ele>639.409973</ele>
<time>2021-03-31T12:34:12.907Z</time>
</trkpt>
<trkpt lat="30.5596800" lon="34.7140500">
<ele>636.190002</ele>
<time>2021-03-31T12:34:12.907Z</time>
</trkpt>
<trkpt lat="30.5599100" lon="34.7148900">
<ele>632.209961</ele>
<time>2021-03-31T12:34:12.907Z</time>
</trkpt>
<trkpt lat="30.5601200" lon="34.7153600">
<ele>635.150024</ele>
<time>2021-03-31T12:34:12.907Z</time>
</trkpt>
<trkpt lat="30.5602700" lon="34.7155100">
<ele>638.539978</ele>
<time>2021-03-31T12:34:12.907Z</time>
</trkpt>
<trkpt lat="30.5604600" lon="34.7156100">
<ele>641.830017</ele>
<time>2021-03-31T12:34:12.907Z</time>
</trkpt>
<trkpt lat="30.5605500" lon="34.7158300">
<ele>640.979980</ele>
<time>2021-03-31T12:34:12.907Z</time>
</trkpt>
<trkpt lat="30.5606600" lon="34.7159500">
<ele>637.700012</ele>
<time>2021-03-31T12:34:12.907Z</time>
</trkpt>
<trkpt lat="30.5607400" lon="34.7162000">
<ele>634.500000</ele>
<time>2021-03-31T12:34:12.907Z</time>
</trkpt>
<trkpt lat="30.5608200" lon="34.7163000">
<ele>632.409973</ele>
<time>2021-03-31T12:34:12.907Z</time>
</trkpt>
<trkpt lat="30.5613700" lon="34.7167500">
<ele>639.400024</ele>
<time>2021-03-31T12:34:12.907Z</time>
</trkpt>
<trkpt lat="30.5618000" lon="34.7172600">
<ele>639.569946</ele>
<time>2021-03-31T12:34:12.908Z</time>
</trkpt>
<trkpt lat="30.5622800" lon="34.7176500">
<ele>647.839966</ele>
<time>2021-03-31T12:34:12.908Z</time>
</trkpt>
<trkpt lat="30.5629200" lon="34.7180800">
<ele>643.219971</ele>
<time>2021-03-31T12:34:12.908Z</time>
</trkpt>
<trkpt lat="30.5632600" lon="34.7185900">
<ele>637.059998</ele>
<time>2021-03-31T12:34:12.908Z</time>
</trkpt>
<trkpt lat="30.5635100" lon="34.7190600">
<ele>643.839966</ele>
<time>2021-03-31T12:34:12.908Z</time>
</trkpt>
<trkpt lat="30.5636300" lon="34.7192100">
<ele>646.379944</ele>
<time>2021-03-31T12:34:12.908Z</time>
</trkpt>
<trkpt lat="30.5639500" lon="34.7194600">
<ele>643.070007</ele>
<time>2021-03-31T12:34:12.908Z</time>
</trkpt>
<trkpt lat="30.5646600" lon="34.7203700">
<ele>648.409973</ele>
<time>2021-03-31T12:34:12.908Z</time>
</trkpt>
<trkpt lat="30.5648400" lon="34.7204800">
<ele>647.969971</ele>
<time>2021-03-31T12:34:12.908Z</time>
</trkpt>
<trkpt lat="30.5652100" lon="34.7205900">
<ele>648.320007</ele>
<time>2021-03-31T12:34:12.908Z</time>
</trkpt>
<trkpt lat="30.5653500" lon="34.7206600">
<ele>648.849976</ele>
<time>2021-03-31T12:34:12.908Z</time>
</trkpt>
<trkpt lat="30.5659900" lon="34.7212900">
<ele>648.559998</ele>
<time>2021-03-31T12:34:12.908Z</time>
</trkpt>
<trkpt lat="30.5663900" lon="34.7219200">
<ele>633.799988</ele>
<time>2021-03-31T12:34:12.908Z</time>
</trkpt>
<trkpt lat="30.5664000" lon="34.7220900">
<ele>632.510010</ele>
<time>2021-03-31T12:34:12.908Z</time>
</trkpt>
<trkpt lat="30.5663100" lon="34.7223100">
<ele>631.760010</ele>
<time>2021-03-31T12:34:12.908Z</time>
</trkpt>
<trkpt lat="30.5663200" lon="34.7223800">
<ele>631.900024</ele>
<time>2021-03-31T12:34:12.908Z</time>
</trkpt>
<trkpt lat="30.5671500" lon="34.7229400">
<ele>639.640015</ele>
<time>2021-03-31T12:34:12.908Z</time>
</trkpt>
<trkpt lat="30.5673000" lon="34.7230700">
<ele>638.150024</ele>
<time>2021-03-31T12:34:12.908Z</time>
</trkpt>
<trkpt lat="30.5674000" lon="34.7232100">
<ele>636.820007</ele>
<time>2021-03-31T12:34:12.909Z</time>
</trkpt>
<trkpt lat="30.5674900" lon="34.7234100">
<ele>633.409973</ele>
<time>2021-03-31T12:34:12.909Z</time>
</trkpt>
<trkpt lat="30.5677300" lon="34.7240900">
<ele>631.780029</ele>
<time>2021-03-31T12:34:12.909Z</time>
</trkpt>
<trkpt lat="30.5679300" lon="34.7243500">
<ele>642.950012</ele>
<time>2021-03-31T12:34:12.909Z</time>
</trkpt>
<trkpt lat="30.5681700" lon="34.7245000">
<ele>652.459961</ele>
<time>2021-03-31T12:34:12.909Z</time>
</trkpt>
<trkpt lat="30.5682600" lon="34.7245100">
<ele>654.149963</ele>
<time>2021-03-31T12:34:12.909Z</time>
</trkpt>
<trkpt lat="30.5685200" lon="34.7244400">
<ele>651.580017</ele>
<time>2021-03-31T12:34:12.909Z</time>
</trkpt>
<trkpt lat="30.5689300" lon="34.7244300">
<ele>645.810059</ele>
<time>2021-03-31T12:34:12.909Z</time>
</trkpt>
<trkpt lat="30.5693300" lon="34.7245100">
<ele>645.660034</ele>
<time>2021-03-31T12:34:12.909Z</time>
</trkpt>
<trkpt lat="30.5695000" lon="34.7245800">
<ele>645.840027</ele>
<time>2021-03-31T12:34:12.909Z</time>
</trkpt>
<trkpt lat="30.5697100" lon="34.7247700">
<ele>644.090027</ele>
<time>2021-03-31T12:34:12.909Z</time>
</trkpt>
<trkpt lat="30.5699600" lon="34.7251000">
<ele>636.489990</ele>
<time>2021-03-31T12:34:12.909Z</time>
</trkpt>
<trkpt lat="30.5704100" lon="34.7254600">
<ele>643.609985</ele>
<time>2021-03-31T12:34:12.909Z</time>
</trkpt>
<trkpt lat="30.5707700" lon="34.7259400">
<ele>647.700012</ele>
<time>2021-03-31T12:34:12.909Z</time>
</trkpt>
<trkpt lat="30.5711800" lon="34.7263500">
<ele>645.970032</ele>
<time>2021-03-31T12:34:12.909Z</time>
</trkpt>
<trkpt lat="30.5713500" lon="34.7266000">
<ele>647.729980</ele>
<time>2021-03-31T12:34:12.909Z</time>
</trkpt>
<trkpt lat="30.5715900" lon="34.7267900">
<ele>648.039978</ele>
<time>2021-03-31T12:34:12.909Z</time>
</trkpt>
<trkpt lat="30.5717700" lon="34.7270000">
<ele>648.010010</ele>
<time>2021-03-31T12:34:12.909Z</time>
</trkpt>
<trkpt lat="30.5718700" lon="34.7271900">
<ele>647.040039</ele>
<time>2021-03-31T12:34:12.909Z</time>
</trkpt>
<trkpt lat="30.5721900" lon="34.7281300">
<ele>645.710022</ele>
<time>2021-03-31T12:34:12.909Z</time>
</trkpt>
<trkpt lat="30.5723300" lon="34.7283900">
<ele>648.989990</ele>
<time>2021-03-31T12:34:12.909Z</time>
</trkpt>
<trkpt lat="30.5725400" lon="34.7286500">
<ele>650.540039</ele>
<time>2021-03-31T12:34:12.909Z</time>
</trkpt>
<trkpt lat="30.5728200" lon="34.7293400">
<ele>643.679993</ele>
<time>2021-03-31T12:34:12.909Z</time>
</trkpt>
<trkpt lat="30.5728700" lon="34.7296600">
<ele>644.440002</ele>
<time>2021-03-31T12:34:12.909Z</time>
</trkpt>
<trkpt lat="30.5728300" lon="34.7303000">
<ele>637.919983</ele>
<time>2021-03-31T12:34:12.909Z</time>
</trkpt>
<trkpt lat="30.5728800" lon="34.7306300">
<ele>636.919983</ele>
<time>2021-03-31T12:34:12.910Z</time>
</trkpt>
<trkpt lat="30.5729800" lon="34.7310100">
<ele>637.709961</ele>
<time>2021-03-31T12:34:12.910Z</time>
</trkpt>
<trkpt lat="30.5730700" lon="34.7311600">
<ele>637.800049</ele>
<time>2021-03-31T12:34:12.910Z</time>
</trkpt>
<trkpt lat="30.5732700" lon="34.7312200">
<ele>639.530029</ele>
<time>2021-03-31T12:34:12.910Z</time>
</trkpt>
<trkpt lat="30.5733100" lon="34.7312700">
<ele>639.600037</ele>
<time>2021-03-31T12:34:12.910Z</time>
</trkpt>
<trkpt lat="30.5734900" lon="34.7317200">
<ele>634.469971</ele>
<time>2021-03-31T12:34:12.910Z</time>
</trkpt>
<trkpt lat="30.5736200" lon="34.7318700">
<ele>630.490051</ele>
<time>2021-03-31T12:34:12.910Z</time>
</trkpt>
<trkpt lat="30.5736500" lon="34.7319400">
<ele>628.690063</ele>
<time>2021-03-31T12:34:12.910Z</time>
</trkpt>
<trkpt lat="30.5736500" lon="34.7322600">
<ele>631.679993</ele>
<time>2021-03-31T12:34:12.910Z</time>
</trkpt>
<trkpt lat="30.5735600" lon="34.7326800">
<ele>639.080017</ele>
<time>2021-03-31T12:34:12.910Z</time>
</trkpt>
<trkpt lat="30.5735500" lon="34.7329000">
<ele>639.880005</ele>
<time>2021-03-31T12:34:12.910Z</time>
</trkpt>
<trkpt lat="30.5736100" lon="34.7332800">
<ele>636.400024</ele>
<time>2021-03-31T12:34:12.910Z</time>
</trkpt>
<trkpt lat="30.5736000" lon="34.7333900">
<ele>634.529968</ele>
<time>2021-03-31T12:34:12.910Z</time>
</trkpt>
<trkpt lat="30.5735300" lon="34.7338500">
<ele>626.900024</ele>
<time>2021-03-31T12:34:12.910Z</time>
</trkpt>
<trkpt lat="30.5733400" lon="34.7346000">
<ele>629.590027</ele>
<time>2021-03-31T12:34:12.910Z</time>
</trkpt>
<trkpt lat="30.5734200" lon="34.7349700">
<ele>632.070007</ele>
<time>2021-03-31T12:34:12.910Z</time>
</trkpt>
<trkpt lat="30.5736600" lon="34.7355900">
<ele>638.380005</ele>
<time>2021-03-31T12:34:12.910Z</time>
</trkpt>
<trkpt lat="30.5739900" lon="34.7363100">
<ele>634.200012</ele>
<time>2021-03-31T12:34:12.910Z</time>
</trkpt>
<trkpt lat="30.5741800" lon="34.7368800">
<ele>628.500000</ele>
<time>2021-03-31T12:34:12.910Z</time>
</trkpt>
<trkpt lat="30.5746300" lon="34.7376000">
<ele>628.760010</ele>
<time>2021-03-31T12:34:12.910Z</time>
</trkpt>
<trkpt lat="30.5746500" lon="34.7376400">
<ele>628.960022</ele>
<time>2021-03-31T12:34:12.910Z</time>
</trkpt>
<trkpt lat="30.5746500" lon="34.7377500">
<ele>628.750000</ele>
<time>2021-03-31T12:34:12.910Z</time>
</trkpt>
<trkpt lat="30.5746200" lon="34.7379900">
<ele>624.979980</ele>
<time>2021-03-31T12:34:12.910Z</time>
</trkpt>
<trkpt lat="30.5745200" lon="34.7382600">
<ele>620.859985</ele>
<time>2021-03-31T12:34:12.910Z</time>
</trkpt>
<trkpt lat="30.5744700" lon="34.7383000">
<ele>620.400024</ele>
<time>2021-03-31T12:34:12.910Z</time>
</trkpt>
<trkpt lat="30.5744600" lon="34.7382900">
<ele>620.580017</ele>
<time>2021-03-31T12:34:12.910Z</time>
</trkpt>
<trkpt lat="30.5744600" lon="34.7382900">
<ele>620.580017</ele>
<time>2021-03-31T12:34:12.910Z</time>
</trkpt>
<trkpt lat="30.5741900" lon="34.7385300">
<ele>614.599976</ele>
<time>2021-03-31T12:34:12.910Z</time>
</trkpt>
<trkpt lat="30.5739500" lon="34.7387500">
<ele>609.489990</ele>
<time>2021-03-31T12:34:12.910Z</time>
</trkpt>
<trkpt lat="30.5736200" lon="34.7390500">
<ele>604.099976</ele>
<time>2021-03-31T12:34:12.910Z</time>
</trkpt>
<trkpt lat="30.5733700" lon="34.7391700">
<ele>604.299988</ele>
<time>2021-03-31T12:34:12.911Z</time>
</trkpt>
<trkpt lat="30.5733700" lon="34.7392600">
<ele>605.200012</ele>
<time>2021-03-31T12:34:12.911Z</time>
</trkpt>
<trkpt lat="30.5733800" lon="34.7393700">
<ele>606.539978</ele>
<time>2021-03-31T12:34:12.911Z</time>
</trkpt>
<trkpt lat="30.5732600" lon="34.7396900">
<ele>609.230042</ele>
<time>2021-03-31T12:34:12.911Z</time>
</trkpt>
<trkpt lat="30.5729000" lon="34.7400700">
<ele>611.000000</ele>
<time>2021-03-31T12:34:12.911Z</time>
</trkpt>
<trkpt lat="30.5726900" lon="34.7402700">
<ele>612.250000</ele>
<time>2021-03-31T12:34:12.911Z</time>
</trkpt>
<trkpt lat="30.5724200" lon="34.7404900">
<ele>604.200012</ele>
<time>2021-03-31T12:34:12.911Z</time>
</trkpt>
<trkpt lat="30.5722300" lon="34.7406600">
<ele>598.539978</ele>
<time>2021-03-31T12:34:12.911Z</time>
</trkpt>
<trkpt lat="30.5721600" lon="34.7407900">
<ele>598.979980</ele>
<time>2021-03-31T12:34:12.911Z</time>
</trkpt>
<trkpt lat="30.5718600" lon="34.7411100">
<ele>601.210022</ele>
<time>2021-03-31T12:34:12.911Z</time>
</trkpt>
<trkpt lat="30.5713600" lon="34.7414000">
<ele>608.679993</ele>
<time>2021-03-31T12:34:12.911Z</time>
</trkpt>
<trkpt lat="30.5711600" lon="34.7415200">
<ele>607.809998</ele>
<time>2021-03-31T12:34:12.911Z</time>
</trkpt>
<trkpt lat="30.5707500" lon="34.7417600">
<ele>603.239990</ele>
<time>2021-03-31T12:34:12.911Z</time>
</trkpt>
<trkpt lat="30.5702600" lon="34.7421000">
<ele>599.040039</ele>
<time>2021-03-31T12:34:12.911Z</time>
</trkpt>
<trkpt lat="30.5701800" lon="34.7421500">
<ele>597.280029</ele>
<time>2021-03-31T12:34:12.911Z</time>
</trkpt>
<trkpt lat="30.5696300" lon="34.7424800">
<ele>596.080017</ele>
<time>2021-03-31T12:34:12.911Z</time>
</trkpt>
<trkpt lat="30.5693700" lon="34.7428200">
<ele>600.809998</ele>
<time>2021-03-31T12:34:12.911Z</time>
</trkpt>
<trkpt lat="30.5691800" lon="34.7431300">
<ele>602.840027</ele>
<time>2021-03-31T12:34:12.911Z</time>
</trkpt>
<trkpt lat="30.5689300" lon="34.7438000">
<ele>604.440002</ele>
<time>2021-03-31T12:34:12.911Z</time>
</trkpt>
<trkpt lat="30.5688300" lon="34.7441700">
<ele>602.179993</ele>
<time>2021-03-31T12:34:12.911Z</time>
</trkpt>
<trkpt lat="30.5685500" lon="34.7447300">
<ele>596.890015</ele>
<time>2021-03-31T12:34:12.911Z</time>
</trkpt>
<trkpt lat="30.5683000" lon="34.7452400">
<ele>590.179993</ele>
<time>2021-03-31T12:34:12.911Z</time>
</trkpt>
<trkpt lat="30.5679500" lon="34.7455900">
<ele>582.460022</ele>
<time>2021-03-31T12:34:12.911Z</time>
</trkpt>
<trkpt lat="30.5676900" lon="34.7457900">
<ele>583.729980</ele>
<time>2021-03-31T12:34:12.911Z</time>
</trkpt>
<trkpt lat="30.5675700" lon="34.7459500">
<ele>583.339966</ele>
<time>2021-03-31T12:34:12.911Z</time>
</trkpt>
<trkpt lat="30.5673100" lon="34.7461600">
<ele>582.669983</ele>
<time>2021-03-31T12:34:12.911Z</time>
</trkpt>
<trkpt lat="30.5672100" lon="34.7464000">
<ele>581.010010</ele>
<time>2021-03-31T12:34:12.911Z</time>
</trkpt>
<trkpt lat="30.5672100" lon="34.7466200">
<ele>581.260010</ele>
<time>2021-03-31T12:34:12.911Z</time>
</trkpt>
<trkpt lat="30.5672100" lon="34.7466300">
<ele>581.270020</ele>
<time>2021-03-31T12:34:12.911Z</time>
</trkpt>
<trkpt lat="30.5671600" lon="34.7469400">
<ele>587.489990</ele>
<time>2021-03-31T12:34:12.911Z</time>
</trkpt>
<trkpt lat="30.5671300" lon="34.7474100">
<ele>598.790039</ele>
<time>2021-03-31T12:34:12.911Z</time>
</trkpt>
<trkpt lat="30.5671000" lon="34.7478800">
<ele>599.450012</ele>
<time>2021-03-31T12:34:12.911Z</time>
</trkpt>
<trkpt lat="30.5670200" lon="34.7483900">
<ele>597.960022</ele>
<time>2021-03-31T12:34:12.912Z</time>
</trkpt>
<trkpt lat="30.5669700" lon="34.7487000">
<ele>596.529968</ele>
<time>2021-03-31T12:34:12.912Z</time>
</trkpt>
<trkpt lat="30.5669500" lon="34.7489400">
<ele>595.940002</ele>
<time>2021-03-31T12:34:12.912Z</time>
</trkpt>
<trkpt lat="30.5668800" lon="34.7494900">
<ele>591.440002</ele>
<time>2021-03-31T12:34:12.912Z</time>
</trkpt>
<trkpt lat="30.5668900" lon="34.7496500">
<ele>590.320007</ele>
<time>2021-03-31T12:34:12.912Z</time>
</trkpt>
<trkpt lat="30.5669000" lon="34.7500100">
<ele>588.770020</ele>
<time>2021-03-31T12:34:12.912Z</time>
</trkpt>
<trkpt lat="30.5668800" lon="34.7502400">
<ele>587.039978</ele>
<time>2021-03-31T12:34:12.912Z</time>
</trkpt>
<trkpt lat="30.5668700" lon="34.7508500">
<ele>575.109985</ele>
<time>2021-03-31T12:34:12.912Z</time>
</trkpt>
<trkpt lat="30.5669000" lon="34.7511200">
<ele>578.890015</ele>
<time>2021-03-31T12:34:12.912Z</time>
</trkpt>
<trkpt lat="30.5670000" lon="34.7515200">
<ele>582.229980</ele>
<time>2021-03-31T12:34:12.912Z</time>
</trkpt>
<trkpt lat="30.5670900" lon="34.7519500">
<ele>585.070007</ele>
<time>2021-03-31T12:34:12.912Z</time>
</trkpt>
<trkpt lat="30.5671200" lon="34.7521000">
<ele>587.029968</ele>
<time>2021-03-31T12:34:12.912Z</time>
</trkpt>
<trkpt lat="30.5671100" lon="34.7521700">
<ele>587.919983</ele>
<time>2021-03-31T12:34:12.912Z</time>
</trkpt>
<trkpt lat="30.5671300" lon="34.7526000">
<ele>589.580017</ele>
<time>2021-03-31T12:34:12.912Z</time>
</trkpt>
<trkpt lat="30.5672000" lon="34.7535100">
<ele>588.460022</ele>
<time>2021-03-31T12:34:12.912Z</time>
</trkpt>
<trkpt lat="30.5672000" lon="34.7537100">
<ele>588.419983</ele>
<time>2021-03-31T12:34:12.912Z</time>
</trkpt>
<trkpt lat="30.5671700" lon="34.7539700">
<ele>589.299988</ele>
<time>2021-03-31T12:34:12.912Z</time>
</trkpt>
<trkpt lat="30.5670000" lon="34.7546200">
<ele>585.669983</ele>
<time>2021-03-31T12:34:12.912Z</time>
</trkpt>
<trkpt lat="30.5669500" lon="34.7547100">
<ele>585.059998</ele>
<time>2021-03-31T12:34:12.912Z</time>
</trkpt>
<trkpt lat="30.5668900" lon="34.7547900">
<ele>584.750000</ele>
<time>2021-03-31T12:34:12.912Z</time>
</trkpt>
<trkpt lat="30.5667700" lon="34.7549300">
<ele>584.799988</ele>
<time>2021-03-31T12:34:12.912Z</time>
</trkpt>
<trkpt lat="30.5663100" lon="34.7551200">
<ele>588.070007</ele>
<time>2021-03-31T12:34:12.912Z</time>
</trkpt>
<trkpt lat="30.5660000" lon="34.7552400">
<ele>589.099976</ele>
<time>2021-03-31T12:34:12.912Z</time>
</trkpt>
<trkpt lat="30.5658600" lon="34.7555500">
<ele>593.409973</ele>
<time>2021-03-31T12:34:12.912Z</time>
</trkpt>
<trkpt lat="30.5659700" lon="34.7558900">
<ele>599.399963</ele>
<time>2021-03-31T12:34:12.912Z</time>
</trkpt>
<trkpt lat="30.5660500" lon="34.7559100">
<ele>600.500000</ele>
<time>2021-03-31T12:34:12.912Z</time>
</trkpt>
<trkpt lat="30.5661000" lon="34.7560100">
<ele>602.450012</ele>
<time>2021-03-31T12:34:12.912Z</time>
</trkpt>
<trkpt lat="30.5660900" lon="34.7560700">
<ele>603.239990</ele>
<time>2021-03-31T12:34:12.912Z</time>
</trkpt>
<trkpt lat="30.5660900" lon="34.7562400">
<ele>601.559998</ele>
<time>2021-03-31T12:34:12.912Z</time>
</trkpt>
<trkpt lat="30.5661900" lon="34.7564000">
<ele>597.640015</ele>
<time>2021-03-31T12:34:12.912Z</time>
</trkpt>
<trkpt lat="30.5662500" lon="34.7566400">
<ele>592.029968</ele>
<time>2021-03-31T12:34:12.912Z</time>
</trkpt>
<trkpt lat="30.5662500" lon="34.7566800">
<ele>591.239990</ele>
<time>2021-03-31T12:34:12.912Z</time>
</trkpt>
<trkpt lat="30.5662700" lon="34.7569100">
<ele>586.280029</ele>
<time>2021-03-31T12:34:12.913Z</time>
</trkpt>
<trkpt lat="30.5663600" lon="34.7575700">
<ele>585.559998</ele>
<time>2021-03-31T12:34:12.913Z</time>
</trkpt>
<trkpt lat="30.5665000" lon="34.7579500">
<ele>587.070007</ele>
<time>2021-03-31T12:34:12.913Z</time>
</trkpt>
<trkpt lat="30.5664400" lon="34.7582900">
<ele>589.440002</ele>
<time>2021-03-31T12:34:12.913Z</time>
</trkpt>
<trkpt lat="30.5664000" lon="34.7586300">
<ele>590.169983</ele>
<time>2021-03-31T12:34:12.913Z</time>
</trkpt>
<trkpt lat="30.5665800" lon="34.7588800">
<ele>594.080017</ele>
<time>2021-03-31T12:34:12.913Z</time>
</trkpt>
<trkpt lat="30.5667900" lon="34.7591300">
<ele>596.429993</ele>
<time>2021-03-31T12:34:12.913Z</time>
</trkpt>
<trkpt lat="30.5669400" lon="34.7594700">
<ele>597.720032</ele>
<time>2021-03-31T12:34:12.913Z</time>
</trkpt>
<trkpt lat="30.5669800" lon="34.7595800">
<ele>597.799988</ele>
<time>2021-03-31T12:34:12.913Z</time>
</trkpt>
<trkpt lat="30.5670200" lon="34.7597600">
<ele>596.650024</ele>
<time>2021-03-31T12:34:12.913Z</time>
</trkpt>
<trkpt lat="30.5670500" lon="34.7598500">
<ele>595.660034</ele>
<time>2021-03-31T12:34:12.913Z</time>
</trkpt>
<trkpt lat="30.5671400" lon="34.7604300">
<ele>588.059998</ele>
<time>2021-03-31T12:34:12.913Z</time>
</trkpt>
<trkpt lat="30.5671000" lon="34.7611200">
<ele>588.720032</ele>
<time>2021-03-31T12:34:12.913Z</time>
</trkpt>
<trkpt lat="30.5671000" lon="34.7612400">
<ele>589.200012</ele>
<time>2021-03-31T12:34:12.913Z</time>
</trkpt>
<trkpt lat="30.5670600" lon="34.7614900">
<ele>589.440002</ele>
<time>2021-03-31T12:34:12.913Z</time>
</trkpt>
<trkpt lat="30.5670000" lon="34.7617100">
<ele>589.089966</ele>
<time>2021-03-31T12:34:12.913Z</time>
</trkpt>
<trkpt lat="30.5670000" lon="34.7619300">
<ele>589.570007</ele>
<time>2021-03-31T12:34:12.913Z</time>
</trkpt>
<trkpt lat="30.5670300" lon="34.7623700">
<ele>591.570007</ele>
<time>2021-03-31T12:34:12.913Z</time>
</trkpt>
<trkpt lat="30.5669800" lon="34.7625600">
<ele>592.830017</ele>
<time>2021-03-31T12:34:12.913Z</time>
</trkpt>
<trkpt lat="30.5667700" lon="34.7629600">
<ele>590.679993</ele>
<time>2021-03-31T12:34:12.913Z</time>
</trkpt>
<trkpt lat="30.5665900" lon="34.7634100">
<ele>587.000000</ele>
<time>2021-03-31T12:34:12.913Z</time>
</trkpt>
<trkpt lat="30.5664900" lon="34.7636400">
<ele>587.650024</ele>
<time>2021-03-31T12:34:12.913Z</time>
</trkpt>
<trkpt lat="30.5666500" lon="34.7639700">
<ele>592.090027</ele>
<time>2021-03-31T12:34:12.913Z</time>
</trkpt>
<trkpt lat="30.5669700" lon="34.7643300">
<ele>592.920044</ele>
<time>2021-03-31T12:34:12.913Z</time>
</trkpt>
<trkpt lat="30.5670800" lon="34.7645000">
<ele>592.530029</ele>
<time>2021-03-31T12:34:12.913Z</time>
</trkpt>
<trkpt lat="30.5671700" lon="34.7646800">
<ele>589.989990</ele>
<time>2021-03-31T12:34:12.913Z</time>
</trkpt>
<trkpt lat="30.5672400" lon="34.7655600">
<ele>578.459961</ele>
<time>2021-03-31T12:34:12.913Z</time>
</trkpt>
<trkpt lat="30.5672700" lon="34.7658700">
<ele>571.929993</ele>
<time>2021-03-31T12:34:12.913Z</time>
</trkpt>
<trkpt lat="30.5673700" lon="34.7666200">
<ele>580.859985</ele>
<time>2021-03-31T12:34:12.913Z</time>
</trkpt>
<trkpt lat="30.5674900" lon="34.7671300">
<ele>579.289978</ele>
<time>2021-03-31T12:34:12.913Z</time>
</trkpt>
<trkpt lat="30.5675600" lon="34.7673600">
<ele>575.589966</ele>
<time>2021-03-31T12:34:12.913Z</time>
</trkpt>
<trkpt lat="30.5677700" lon="34.7678000">
<ele>568.260010</ele>
<time>2021-03-31T12:34:12.914Z</time>
</trkpt>
<trkpt lat="30.5678900" lon="34.7680200">
<ele>569.909973</ele>
<time>2021-03-31T12:34:12.914Z</time>
</trkpt>
<trkpt lat="30.5680800" lon="34.7685500">
<ele>578.109985</ele>
<time>2021-03-31T12:34:12.914Z</time>
</trkpt>
<trkpt lat="30.5682000" lon="34.7688700">
<ele>582.169983</ele>
<time>2021-03-31T12:34:12.914Z</time>
</trkpt>
<trkpt lat="30.5682600" lon="34.7690700">
<ele>583.099976</ele>
<time>2021-03-31T12:34:12.914Z</time>
</trkpt>
<trkpt lat="30.5684900" lon="34.7698400">
<ele>578.450012</ele>
<time>2021-03-31T12:34:12.914Z</time>
</trkpt>
<trkpt lat="30.5685200" lon="34.7699500">
<ele>577.070007</ele>
<time>2021-03-31T12:34:12.914Z</time>
</trkpt>
<trkpt lat="30.5689100" lon="34.7707800">
<ele>568.470032</ele>
<time>2021-03-31T12:34:12.914Z</time>
</trkpt>
<trkpt lat="30.5690000" lon="34.7709600">
<ele>562.910034</ele>
<time>2021-03-31T12:34:12.914Z</time>
</trkpt>
<trkpt lat="30.5690300" lon="34.7713000">
<ele>564.200012</ele>
<time>2021-03-31T12:34:12.914Z</time>
</trkpt>
<trkpt lat="30.5690000" lon="34.7716700">
<ele>564.859985</ele>
<time>2021-03-31T12:34:12.914Z</time>
</trkpt>
<trkpt lat="30.5691800" lon="34.7720700">
<ele>574.260010</ele>
<time>2021-03-31T12:34:12.914Z</time>
</trkpt>
<trkpt lat="30.5693600" lon="34.7724800">
<ele>580.070007</ele>
<time>2021-03-31T12:34:12.914Z</time>
</trkpt>
<trkpt lat="30.5694800" lon="34.7730000">
<ele>584.000000</ele>
<time>2021-03-31T12:34:12.914Z</time>
</trkpt>
<trkpt lat="30.5695700" lon="34.7737100">
<ele>584.289978</ele>
<time>2021-03-31T12:34:12.914Z</time>
</trkpt>
<trkpt lat="30.5696300" lon="34.7739600">
<ele>587.700012</ele>
<time>2021-03-31T12:34:12.914Z</time>
</trkpt>
<trkpt lat="30.5697900" lon="34.7748800">
<ele>585.320007</ele>
<time>2021-03-31T12:34:12.914Z</time>
</trkpt>
<trkpt lat="30.5698400" lon="34.7752100">
<ele>582.059998</ele>
<time>2021-03-31T12:34:12.914Z</time>
</trkpt>
<trkpt lat="30.5698500" lon="34.7754100">
<ele>582.289978</ele>
<time>2021-03-31T12:34:12.914Z</time>
</trkpt>
<trkpt lat="30.5697800" lon="34.7763800">
<ele>579.799988</ele>
<time>2021-03-31T12:34:12.914Z</time>
</trkpt>
<trkpt lat="30.5697400" lon="34.7773700">
<ele>581.830017</ele>
<time>2021-03-31T12:34:12.914Z</time>
</trkpt>
<trkpt lat="30.5698500" lon="34.7779500">
<ele>580.850037</ele>
<time>2021-03-31T12:34:12.914Z</time>
</trkpt>
<trkpt lat="30.5699200" lon="34.7781000">
<ele>580.570007</ele>
<time>2021-03-31T12:34:12.914Z</time>
</trkpt>
<trkpt lat="30.5699700" lon="34.7782300">
<ele>582.020020</ele>
<time>2021-03-31T12:34:12.914Z</time>
</trkpt>
<trkpt lat="30.5700600" lon="34.7786400">
<ele>586.779968</ele>
<time>2021-03-31T12:34:12.914Z</time>
</trkpt>
<trkpt lat="30.5702200" lon="34.7795000">
<ele>579.350037</ele>
<time>2021-03-31T12:34:12.914Z</time>
</trkpt>
<trkpt lat="30.5702800" lon="34.7796700">
<ele>578.329956</ele>
<time>2021-03-31T12:34:12.914Z</time>
</trkpt>
<trkpt lat="30.5706700" lon="34.7804200">
<ele>571.649963</ele>
<time>2021-03-31T12:34:12.914Z</time>
</trkpt>
<trkpt lat="30.5709000" lon="34.7808200">
<ele>576.640015</ele>
<time>2021-03-31T12:34:12.914Z</time>
</trkpt>
<trkpt lat="30.5709700" lon="34.7809800">
<ele>575.459961</ele>
<time>2021-03-31T12:34:12.914Z</time>
</trkpt>
<trkpt lat="30.5710700" lon="34.7811000">
<ele>573.549988</ele>
<time>2021-03-31T12:34:12.914Z</time>
</trkpt>
<trkpt lat="30.5711900" lon="34.7814800">
<ele>572.200012</ele>
<time>2021-03-31T12:34:12.915Z</time>
</trkpt>
<trkpt lat="30.5711300" lon="34.7817600">
<ele>572.020020</ele>
<time>2021-03-31T12:34:12.915Z</time>
</trkpt>
<trkpt lat="30.5712900" lon="34.7823500">
<ele>577.880005</ele>
<time>2021-03-31T12:34:12.915Z</time>
</trkpt>
<trkpt lat="30.5715400" lon="34.7827300">
<ele>580.450012</ele>
<time>2021-03-31T12:34:12.915Z</time>
</trkpt>
<trkpt lat="30.5716800" lon="34.7828700">
<ele>578.919983</ele>
<time>2021-03-31T12:34:12.915Z</time>
</trkpt>
<trkpt lat="30.5720500" lon="34.7833000">
<ele>573.080017</ele>
<time>2021-03-31T12:34:12.915Z</time>
</trkpt>
<trkpt lat="30.5721800" lon="34.7835400">
<ele>570.469971</ele>
<time>2021-03-31T12:34:12.915Z</time>
</trkpt>
<trkpt lat="30.5723300" lon="34.7840100">
<ele>562.549988</ele>
<time>2021-03-31T12:34:12.915Z</time>
</trkpt>
<trkpt lat="30.5724800" lon="34.7843900">
<ele>553.869995</ele>
<time>2021-03-31T12:34:12.915Z</time>
</trkpt>
<trkpt lat="30.5726200" lon="34.7848400">
<ele>556.929993</ele>
<time>2021-03-31T12:34:12.915Z</time>
</trkpt>
<trkpt lat="30.5727500" lon="34.7850500">
<ele>562.260010</ele>
<time>2021-03-31T12:34:12.915Z</time>
</trkpt>
<trkpt lat="30.5729100" lon="34.7853900">
<ele>565.359985</ele>
<time>2021-03-31T12:34:12.915Z</time>
</trkpt>
<trkpt lat="30.5730800" lon="34.7858500">
<ele>565.130005</ele>
<time>2021-03-31T12:34:12.915Z</time>
</trkpt>
<trkpt lat="30.5732100" lon="34.7860100">
<ele>566.539978</ele>
<time>2021-03-31T12:34:12.915Z</time>
</trkpt>
<trkpt lat="30.5733100" lon="34.7860700">
<ele>568.320007</ele>
<time>2021-03-31T12:34:12.915Z</time>
</trkpt>
<trkpt lat="30.5734900" lon="34.7862400">
<ele>570.289978</ele>
<time>2021-03-31T12:34:12.915Z</time>
</trkpt>
<trkpt lat="30.5737200" lon="34.7867500">
<ele>575.030029</ele>
<time>2021-03-31T12:34:12.915Z</time>
</trkpt>
<trkpt lat="30.5737900" lon="34.7869600">
<ele>575.410034</ele>
<time>2021-03-31T12:34:12.915Z</time>
</trkpt>
<trkpt lat="30.5740000" lon="34.7872600">
<ele>569.760010</ele>
<time>2021-03-31T12:34:12.915Z</time>
</trkpt>
<trkpt lat="30.5741100" lon="34.7873800">
<ele>566.059998</ele>
<time>2021-03-31T12:34:12.915Z</time>
</trkpt>
<trkpt lat="30.5742800" lon="34.7877400">
<ele>561.690002</ele>
<time>2021-03-31T12:34:12.915Z</time>
</trkpt>
<trkpt lat="30.5741600" lon="34.7881000">
<ele>566.529968</ele>
<time>2021-03-31T12:34:12.915Z</time>
</trkpt>
<trkpt lat="30.5741300" lon="34.7882400">
<ele>568.260010</ele>
<time>2021-03-31T12:34:12.915Z</time>
</trkpt>
<trkpt lat="30.5742500" lon="34.7883200">
<ele>567.669983</ele>
<time>2021-03-31T12:34:12.915Z</time>
</trkpt>
<trkpt lat="30.5747200" lon="34.7884800">
<ele>566.450012</ele>
<time>2021-03-31T12:34:12.915Z</time>
</trkpt>
<trkpt lat="30.5749700" lon="34.7885700">
<ele>571.630005</ele>
<time>2021-03-31T12:34:12.916Z</time>
</trkpt>
<trkpt lat="30.5752900" lon="34.7887000">
<ele>570.630005</ele>
<time>2021-03-31T12:34:12.916Z</time>
</trkpt>
<trkpt lat="30.5755600" lon="34.7887900">
<ele>568.320007</ele>
<time>2021-03-31T12:34:12.916Z</time>
</trkpt>
<trkpt lat="30.5757900" lon="34.7888100">
<ele>566.720032</ele>
<time>2021-03-31T12:34:12.916Z</time>
</trkpt>
<trkpt lat="30.5759000" lon="34.7887900">
<ele>566.919983</ele>
<time>2021-03-31T12:34:12.916Z</time>
</trkpt>
<trkpt lat="30.5759500" lon="34.7887900">
<ele>567.400024</ele>
<time>2021-03-31T12:34:12.916Z</time>
</trkpt>
<trkpt lat="30.5760400" lon="34.7887600">
<ele>567.960022</ele>
<time>2021-03-31T12:34:12.916Z</time>
</trkpt>
<trkpt lat="30.5763100" lon="34.7887900">
<ele>570.359985</ele>
<time>2021-03-31T12:34:12.916Z</time>
</trkpt>
<trkpt lat="30.5767900" lon="34.7889000">
<ele>570.679993</ele>
<time>2021-03-31T12:34:12.916Z</time>
</trkpt>
<trkpt lat="30.5773400" lon="34.7890100">
<ele>576.059998</ele>
<time>2021-03-31T12:34:12.916Z</time>
</trkpt>
<trkpt lat="30.5780700" lon="34.7890600">
<ele>582.309998</ele>
<time>2021-03-31T12:34:12.916Z</time>
</trkpt>
<trkpt lat="30.5781300" lon="34.7890700">
<ele>582.849976</ele>
<time>2021-03-31T12:34:12.916Z</time>
</trkpt>
<trkpt lat="30.5783500" lon="34.7891900">
<ele>583.219971</ele>
<time>2021-03-31T12:34:12.916Z</time>
</trkpt>
<trkpt lat="30.5785500" lon="34.7893000">
<ele>579.350037</ele>
<time>2021-03-31T12:34:12.916Z</time>
</trkpt>
<trkpt lat="30.5787100" lon="34.7893600">
<ele>577.890015</ele>
<time>2021-03-31T12:34:12.916Z</time>
</trkpt>
<trkpt lat="30.5792500" lon="34.7895900">
<ele>567.119995</ele>
<time>2021-03-31T12:34:12.916Z</time>
</trkpt>
<trkpt lat="30.5794600" lon="34.7896700">
<ele>563.399963</ele>
<time>2021-03-31T12:34:12.916Z</time>
</trkpt>
<trkpt lat="30.5795700" lon="34.7897600">
<ele>563.200012</ele>
<time>2021-03-31T12:34:12.916Z</time>
</trkpt>
<trkpt lat="30.5797100" lon="34.7899200">
<ele>564.390015</ele>
<time>2021-03-31T12:34:12.916Z</time>
</trkpt>
<trkpt lat="30.5798100" lon="34.7900600">
<ele>564.830017</ele>
<time>2021-03-31T12:34:12.916Z</time>
</trkpt>
<trkpt lat="30.5800000" lon="34.7904100">
<ele>564.479980</ele>
<time>2021-03-31T12:34:12.916Z</time>
</trkpt>
<trkpt lat="30.5801100" lon="34.7906900">
<ele>563.799988</ele>
<time>2021-03-31T12:34:12.916Z</time>
</trkpt>
<trkpt lat="30.5802000" lon="34.7910400">
<ele>563.890015</ele>
<time>2021-03-31T12:34:12.916Z</time>
</trkpt>
<trkpt lat="30.5802500" lon="34.7913100">
<ele>564.640015</ele>
<time>2021-03-31T12:34:12.916Z</time>
</trkpt>
<trkpt lat="30.5802700" lon="34.7914700">
<ele>564.660034</ele>
<time>2021-03-31T12:34:12.916Z</time>
</trkpt>
<trkpt lat="30.5803300" lon="34.7918000">
<ele>564.739990</ele>
<time>2021-03-31T12:34:12.916Z</time>
</trkpt>
<trkpt lat="30.5803700" lon="34.7920200">
<ele>565.210022</ele>
<time>2021-03-31T12:34:12.916Z</time>
</trkpt>
<trkpt lat="30.5804000" lon="34.7927500">
<ele>553.020020</ele>
<time>2021-03-31T12:34:12.917Z</time>
</trkpt>
<trkpt lat="30.5803300" lon="34.7930900">
<ele>546.909973</ele>
<time>2021-03-31T12:34:12.917Z</time>
</trkpt>
<trkpt lat="30.5802700" lon="34.7934200">
<ele>542.210022</ele>
<time>2021-03-31T12:34:12.917Z</time>
</trkpt>
<trkpt lat="30.5802600" lon="34.7935600">
<ele>540.919983</ele>
<time>2021-03-31T12:34:12.917Z</time>
</trkpt>
<trkpt lat="30.5801800" lon="34.7937600">
<ele>542.270020</ele>
<time>2021-03-31T12:34:12.917Z</time>
</trkpt>
<trkpt lat="30.5800600" lon="34.7944900">
<ele>545.140015</ele>
<time>2021-03-31T12:34:12.917Z</time>
</trkpt>
<trkpt lat="30.5798800" lon="34.7952700">
<ele>540.119995</ele>
<time>2021-03-31T12:34:12.917Z</time>
</trkpt>
<trkpt lat="30.5797800" lon="34.7957700">
<ele>544.970032</ele>
<time>2021-03-31T12:34:12.917Z</time>
</trkpt>
<trkpt lat="30.5796900" lon="34.7960900">
<ele>546.609985</ele>
<time>2021-03-31T12:34:12.917Z</time>
</trkpt>
<trkpt lat="30.5796400" lon="34.7965000">
<ele>547.160034</ele>
<time>2021-03-31T12:34:12.917Z</time>
</trkpt>
<trkpt lat="30.5796400" lon="34.7968700">
<ele>548.360046</ele>
<time>2021-03-31T12:34:12.917Z</time>
</trkpt>
<trkpt lat="30.5796000" lon="34.7971900">
<ele>550.719971</ele>
<time>2021-03-31T12:34:12.917Z</time>
</trkpt>
<trkpt lat="30.5796600" lon="34.7976600">
<ele>552.580017</ele>
<time>2021-03-31T12:34:12.917Z</time>
</trkpt>
<trkpt lat="30.5797400" lon="34.7982800">
<ele>553.869995</ele>
<time>2021-03-31T12:34:12.917Z</time>
</trkpt>
<trkpt lat="30.5796800" lon="34.7990200">
<ele>558.239990</ele>
<time>2021-03-31T12:34:12.917Z</time>
</trkpt>
<trkpt lat="30.5795800" lon="34.7996300">
<ele>560.700012</ele>
<time>2021-03-31T12:34:12.917Z</time>
</trkpt>
<trkpt lat="30.5798500" lon="34.8000500">
<ele>563.130005</ele>
<time>2021-03-31T12:34:12.917Z</time>
</trkpt>
<trkpt lat="30.5800800" lon="34.8003500">
<ele>566.280029</ele>
<time>2021-03-31T12:34:12.917Z</time>
</trkpt>
<trkpt lat="30.5806600" lon="34.8011400">
<ele>565.010010</ele>
<time>2021-03-31T12:34:12.917Z</time>
</trkpt>
<trkpt lat="30.5809500" lon="34.8014900">
<ele>566.559998</ele>
<time>2021-03-31T12:34:12.917Z</time>
</trkpt>
<trkpt lat="30.5810500" lon="34.8016500">
<ele>567.429993</ele>
<time>2021-03-31T12:34:12.917Z</time>
</trkpt>
<trkpt lat="30.5812900" lon="34.8019300">
<ele>563.210022</ele>
<time>2021-03-31T12:34:12.917Z</time>
</trkpt>
<trkpt lat="30.5818600" lon="34.8026800">
<ele>565.750000</ele>
<time>2021-03-31T12:34:12.917Z</time>
</trkpt>
<trkpt lat="30.5823700" lon="34.8029900">
<ele>570.690002</ele>
<time>2021-03-31T12:34:12.917Z</time>
</trkpt>
<trkpt lat="30.5832200" lon="34.8035300">
<ele>566.880005</ele>
<time>2021-03-31T12:34:12.917Z</time>
</trkpt>
<trkpt lat="30.5838600" lon="34.8040600">
<ele>552.260010</ele>
<time>2021-03-31T12:34:12.917Z</time>
</trkpt>
<trkpt lat="30.5840800" lon="34.8042600">
<ele>550.289978</ele>
<time>2021-03-31T12:34:12.918Z</time>
</trkpt>
<trkpt lat="30.5845100" lon="34.8047000">
<ele>550.520020</ele>
<time>2021-03-31T12:34:12.918Z</time>
</trkpt>
<trkpt lat="30.5848700" lon="34.8054500">
<ele>547.130005</ele>
<time>2021-03-31T12:34:12.918Z</time>
</trkpt>
<trkpt lat="30.5848900" lon="34.8057300">
<ele>543.739990</ele>
<time>2021-03-31T12:34:12.918Z</time>
</trkpt>
<trkpt lat="30.5848500" lon="34.8059200">
<ele>542.049988</ele>
<time>2021-03-31T12:34:12.918Z</time>
</trkpt>
<trkpt lat="30.5848800" lon="34.8060100">
<ele>539.570007</ele>
<time>2021-03-31T12:34:12.918Z</time>
</trkpt>
<trkpt lat="30.5851600" lon="34.8061400">
<ele>530.669983</ele>
<time>2021-03-31T12:34:12.918Z</time>
</trkpt>
<trkpt lat="30.5854100" lon="34.8062900">
<ele>522.150024</ele>
<time>2021-03-31T12:34:12.918Z</time>
</trkpt>
<trkpt lat="30.5857500" lon="34.8063600">
<ele>518.350037</ele>
<time>2021-03-31T12:34:12.918Z</time>
</trkpt>
<trkpt lat="30.5859700" lon="34.8063900">
<ele>525.869995</ele>
<time>2021-03-31T12:34:12.918Z</time>
</trkpt>
<trkpt lat="30.5860800" lon="34.8068100">
<ele>529.169983</ele>
<time>2021-03-31T12:34:12.918Z</time>
</trkpt>
<trkpt lat="30.5861000" lon="34.8068700">
<ele>531.489990</ele>
<time>2021-03-31T12:34:12.918Z</time>
</trkpt>
<trkpt lat="30.5864500" lon="34.8072800">
<ele>529.770020</ele>
<time>2021-03-31T12:34:12.918Z</time>
</trkpt>
<trkpt lat="30.5865300" lon="34.8075700">
<ele>529.859985</ele>
<time>2021-03-31T12:34:12.918Z</time>
</trkpt>
<trkpt lat="30.5865300" lon="34.8076300">
<ele>530.619995</ele>
<time>2021-03-31T12:34:12.918Z</time>
</trkpt>
<trkpt lat="30.5864200" lon="34.8078200">
<ele>533.330017</ele>
<time>2021-03-31T12:34:12.918Z</time>
</trkpt>
<trkpt lat="30.5864400" lon="34.8080100">
<ele>535.169983</ele>
<time>2021-03-31T12:34:12.918Z</time>
</trkpt>
<trkpt lat="30.5865800" lon="34.8081600">
<ele>535.020020</ele>
<time>2021-03-31T12:34:12.918Z</time>
</trkpt>
<trkpt lat="30.5868000" lon="34.8084900">
<ele>535.840027</ele>
<time>2021-03-31T12:34:12.918Z</time>
</trkpt>
<trkpt lat="30.5868800" lon="34.8091200">
<ele>532.200012</ele>
<time>2021-03-31T12:34:12.918Z</time>
</trkpt>
<trkpt lat="30.5869700" lon="34.8093200">
<ele>532.510010</ele>
<time>2021-03-31T12:34:12.918Z</time>
</trkpt>
<trkpt lat="30.5873100" lon="34.8101200">
<ele>537.140015</ele>
<time>2021-03-31T12:34:12.918Z</time>
</trkpt>
<trkpt lat="30.5873300" lon="34.8102800">
<ele>537.400024</ele>
<time>2021-03-31T12:34:12.918Z</time>
</trkpt>
<trkpt lat="30.5873900" lon="34.8107800">
<ele>540.780029</ele>
<time>2021-03-31T12:34:12.918Z</time>
</trkpt>
<trkpt lat="30.5875800" lon="34.8113300">
<ele>539.710022</ele>
<time>2021-03-31T12:34:12.918Z</time>
</trkpt>
<trkpt lat="30.5876100" lon="34.8114200">
<ele>539.130005</ele>
<time>2021-03-31T12:34:12.918Z</time>
</trkpt>
<trkpt lat="30.5877200" lon="34.8116600">
<ele>535.869995</ele>
<time>2021-03-31T12:34:12.918Z</time>
</trkpt>
<trkpt lat="30.5877800" lon="34.8117800">
<ele>532.320007</ele>
<time>2021-03-31T12:34:12.918Z</time>
</trkpt>
<trkpt lat="30.5878400" lon="34.8119800">
<ele>527.020020</ele>
<time>2021-03-31T12:34:12.919Z</time>
</trkpt>
<trkpt lat="30.5879900" lon="34.8122800">
<ele>525.150024</ele>
<time>2021-03-31T12:34:12.919Z</time>
</trkpt>
<trkpt lat="30.5880600" lon="34.8124500">
<ele>523.119995</ele>
<time>2021-03-31T12:34:12.919Z</time>
</trkpt>
<trkpt lat="30.5882700" lon="34.8129600">
<ele>522.079956</ele>
<time>2021-03-31T12:34:12.919Z</time>
</trkpt>
<trkpt lat="30.5883700" lon="34.8135400">
<ele>522.010010</ele>
<time>2021-03-31T12:34:12.919Z</time>
</trkpt>
<trkpt lat="30.5884300" lon="34.8144500">
<ele>522.330017</ele>
<time>2021-03-31T12:34:12.919Z</time>
</trkpt>
<trkpt lat="30.5884300" lon="34.8146800">
<ele>521.500000</ele>
<time>2021-03-31T12:34:12.919Z</time>
</trkpt>
<trkpt lat="30.5884800" lon="34.8150200">
<ele>522.020020</ele>
<time>2021-03-31T12:34:12.919Z</time>
</trkpt>
<trkpt lat="30.5885800" lon="34.8159600">
<ele>522.630005</ele>
<time>2021-03-31T12:34:12.919Z</time>
</trkpt>
<trkpt lat="30.5886200" lon="34.8166100">
<ele>521.909973</ele>
<time>2021-03-31T12:34:12.919Z</time>
</trkpt>
<trkpt lat="30.5885300" lon="34.8174100">
<ele>519.830017</ele>
<time>2021-03-31T12:34:12.919Z</time>
</trkpt>
<trkpt lat="30.5886600" lon="34.8180000">
<ele>524.409973</ele>
<time>2021-03-31T12:34:12.919Z</time>
</trkpt>
<trkpt lat="30.5887200" lon="34.8182400">
<ele>525.799988</ele>
<time>2021-03-31T12:34:12.919Z</time>
</trkpt>
<trkpt lat="30.5889700" lon="34.8188500">
<ele>521.559998</ele>
<time>2021-03-31T12:34:12.919Z</time>
</trkpt>
<trkpt lat="30.5893000" lon="34.8195200">
<ele>518.619995</ele>
<time>2021-03-31T12:34:12.919Z</time>
</trkpt>
<trkpt lat="30.5893400" lon="34.8197700">
<ele>518.700012</ele>
<time>2021-03-31T12:34:12.919Z</time>
</trkpt>
<trkpt lat="30.5893500" lon="34.8199600">
<ele>517.559998</ele>
<time>2021-03-31T12:34:12.919Z</time>
</trkpt>
<trkpt lat="30.5894100" lon="34.8201800">
<ele>517.750000</ele>
<time>2021-03-31T12:34:12.919Z</time>
</trkpt>
<trkpt lat="30.5894500" lon="34.8204200">
<ele>517.479980</ele>
<time>2021-03-31T12:34:12.919Z</time>
</trkpt>
<trkpt lat="30.5894800" lon="34.8205400">
<ele>517.049988</ele>
<time>2021-03-31T12:34:12.919Z</time>
</trkpt>
<trkpt lat="30.5895500" lon="34.8207700">
<ele>515.750000</ele>
<time>2021-03-31T12:34:12.919Z</time>
</trkpt>
<trkpt lat="30.5896200" lon="34.8212800">
<ele>515.260010</ele>
<time>2021-03-31T12:34:12.919Z</time>
</trkpt>
<trkpt lat="30.5897000" lon="34.8217300">
<ele>514.270020</ele>
<time>2021-03-31T12:34:12.919Z</time>
</trkpt>
<trkpt lat="30.5897900" lon="34.8223400">
<ele>509.270020</ele>
<time>2021-03-31T12:34:12.919Z</time>
</trkpt>
<trkpt lat="30.5898200" lon="34.8225900">
<ele>509.190002</ele>
<time>2021-03-31T12:34:12.919Z</time>
</trkpt>
<trkpt lat="30.5898600" lon="34.8228200">
<ele>509.990021</ele>
<time>2021-03-31T12:34:12.919Z</time>
</trkpt>
<trkpt lat="30.5899100" lon="34.8234900">
<ele>510.349976</ele>
<time>2021-03-31T12:34:12.919Z</time>
</trkpt>
<trkpt lat="30.5899500" lon="34.8243100">
<ele>508.320007</ele>
<time>2021-03-31T12:34:12.919Z</time>
</trkpt>
<trkpt lat="30.5899600" lon="34.8245800">
<ele>506.230011</ele>
<time>2021-03-31T12:34:12.919Z</time>
</trkpt>
<trkpt lat="30.5899700" lon="34.8248600">
<ele>502.980011</ele>
<time>2021-03-31T12:34:12.919Z</time>
</trkpt>
<trkpt lat="30.5899400" lon="34.8250500">
<ele>499.239990</ele>
<time>2021-03-31T12:34:12.920Z</time>
</trkpt>
<trkpt lat="30.5897100" lon="34.8254100">
<ele>493.040009</ele>
<time>2021-03-31T12:34:12.920Z</time>
</trkpt>
<trkpt lat="30.5896200" lon="34.8255500">
<ele>493.369995</ele>
<time>2021-03-31T12:34:12.920Z</time>
</trkpt>
<trkpt lat="30.5895400" lon="34.8256000">
<ele>495.740021</ele>
<time>2021-03-31T12:34:12.920Z</time>
</trkpt>
<trkpt lat="30.5894500" lon="34.8255700">
<ele>494.660004</ele>
<time>2021-03-31T12:34:12.920Z</time>
</trkpt>
<trkpt lat="30.5895700" lon="34.8256600">
<ele>498.440002</ele>
<time>2021-03-31T12:34:12.920Z</time>
</trkpt>
<trkpt lat="30.5896000" lon="34.8260400">
<ele>511.230011</ele>
<time>2021-03-31T12:34:12.920Z</time>
</trkpt>
<trkpt lat="30.5896300" lon="34.8263000">
<ele>515.380005</ele>
<time>2021-03-31T12:34:12.920Z</time>
</trkpt>
<trkpt lat="30.5896500" lon="34.8264900">
<ele>517.250000</ele>
<time>2021-03-31T12:34:12.920Z</time>
</trkpt>
<trkpt lat="30.5896900" lon="34.8267000">
<ele>518.269958</ele>
<time>2021-03-31T12:34:12.920Z</time>
</trkpt>
<trkpt lat="30.5898200" lon="34.8271900">
<ele>518.179993</ele>
<time>2021-03-31T12:34:12.920Z</time>
</trkpt>
<trkpt lat="30.5898700" lon="34.8273700">
<ele>518.679993</ele>
<time>2021-03-31T12:34:12.920Z</time>
</trkpt>
<trkpt lat="30.5899500" lon="34.8278200">
<ele>518.619995</ele>
<time>2021-03-31T12:34:12.920Z</time>
</trkpt>
<trkpt lat="30.5900300" lon="34.8280300">
<ele>515.750000</ele>
<time>2021-03-31T12:34:12.920Z</time>
</trkpt>
<trkpt lat="30.5902700" lon="34.8282900">
<ele>510.470001</ele>
<time>2021-03-31T12:34:12.920Z</time>
</trkpt>
<trkpt lat="30.5904000" lon="34.8283800">
<ele>509.040009</ele>
<time>2021-03-31T12:34:12.920Z</time>
</trkpt>
<trkpt lat="30.5905300" lon="34.8285200">
<ele>508.070007</ele>
<time>2021-03-31T12:34:12.920Z</time>
</trkpt>
<trkpt lat="30.5905500" lon="34.8293400">
<ele>513.229980</ele>
<time>2021-03-31T12:34:12.920Z</time>
</trkpt>
<trkpt lat="30.5905400" lon="34.8294900">
<ele>514.140015</ele>
<time>2021-03-31T12:34:12.920Z</time>
</trkpt>
<trkpt lat="30.5907600" lon="34.8299200">
<ele>511.110016</ele>
<time>2021-03-31T12:34:12.920Z</time>
</trkpt>
<trkpt lat="30.5909900" lon="34.8299800">
<ele>508.049988</ele>
<time>2021-03-31T12:34:12.920Z</time>
</trkpt>
<trkpt lat="30.5910500" lon="34.8300200">
<ele>507.439972</ele>
<time>2021-03-31T12:34:12.920Z</time>
</trkpt>
<trkpt lat="30.5911000" lon="34.8301100">
<ele>507.080017</ele>
<time>2021-03-31T12:34:12.920Z</time>
</trkpt>
<trkpt lat="30.5911600" lon="34.8301800">
<ele>507.650024</ele>
<time>2021-03-31T12:34:12.920Z</time>
</trkpt>
<trkpt lat="30.5913100" lon="34.8304900">
<ele>510.349976</ele>
<time>2021-03-31T12:34:12.920Z</time>
</trkpt>
<trkpt lat="30.5913200" lon="34.8306100">
<ele>510.410004</ele>
<time>2021-03-31T12:34:12.920Z</time>
</trkpt>
<trkpt lat="30.5912800" lon="34.8307000">
<ele>509.769989</ele>
<time>2021-03-31T12:34:12.920Z</time>
</trkpt>
<trkpt lat="30.5912900" lon="34.8308100">
<ele>509.140015</ele>
<time>2021-03-31T12:34:12.920Z</time>
</trkpt>
<trkpt lat="30.5913400" lon="34.8309800">
<ele>508.559998</ele>
<time>2021-03-31T12:34:12.920Z</time>
</trkpt>
<trkpt lat="30.5913800" lon="34.8310800">
<ele>508.139984</ele>
<time>2021-03-31T12:34:12.920Z</time>
</trkpt>
<trkpt lat="30.5913900" lon="34.8312300">
<ele>508.429993</ele>
<time>2021-03-31T12:34:12.920Z</time>
</trkpt>
<trkpt lat="30.5914100" lon="34.8315100">
<ele>510.569977</ele>
<time>2021-03-31T12:34:12.921Z</time>
</trkpt>
<trkpt lat="30.5914100" lon="34.8317800">
<ele>513.070007</ele>
<time>2021-03-31T12:34:12.921Z</time>
</trkpt>
<trkpt lat="30.5914200" lon="34.8318200">
<ele>513.040039</ele>
<time>2021-03-31T12:34:12.921Z</time>
</trkpt>
<trkpt lat="30.5914500" lon="34.8319700">
<ele>512.989990</ele>
<time>2021-03-31T12:34:12.921Z</time>
</trkpt>
<trkpt lat="30.5915100" lon="34.8325600">
<ele>513.130005</ele>
<time>2021-03-31T12:34:12.921Z</time>
</trkpt>
<trkpt lat="30.5915800" lon="34.8329000">
<ele>511.660004</ele>
<time>2021-03-31T12:34:12.921Z</time>
</trkpt>
<trkpt lat="30.5917000" lon="34.8332200">
<ele>510.709991</ele>
<time>2021-03-31T12:34:12.921Z</time>
</trkpt>
<trkpt lat="30.5917200" lon="34.8334600">
<ele>510.790009</ele>
<time>2021-03-31T12:34:12.921Z</time>
</trkpt>
<trkpt lat="30.5916900" lon="34.8337300">
<ele>511.500031</ele>
<time>2021-03-31T12:34:12.921Z</time>
</trkpt>
<trkpt lat="30.5916800" lon="34.8338000">
<ele>511.750000</ele>
<time>2021-03-31T12:34:12.921Z</time>
</trkpt>
<trkpt lat="30.5915600" lon="34.8341500">
<ele>511.309998</ele>
<time>2021-03-31T12:34:12.921Z</time>
</trkpt>
<trkpt lat="30.5915100" lon="34.8345100">
<ele>508.549988</ele>
<time>2021-03-31T12:34:12.921Z</time>
</trkpt>
<trkpt lat="30.5915400" lon="34.8348900">
<ele>508.330017</ele>
<time>2021-03-31T12:34:12.921Z</time>
</trkpt>
<trkpt lat="30.5914300" lon="34.8351900">
<ele>506.570007</ele>
<time>2021-03-31T12:34:12.921Z</time>
</trkpt>
<trkpt lat="30.5912500" lon="34.8354800">
<ele>506.960022</ele>
<time>2021-03-31T12:34:12.921Z</time>
</trkpt>
<trkpt lat="30.5910600" lon="34.8357400">
<ele>507.660004</ele>
<time>2021-03-31T12:34:12.921Z</time>
</trkpt>
<trkpt lat="30.5909200" lon="34.8360300">
<ele>508.440002</ele>
<time>2021-03-31T12:34:12.921Z</time>
</trkpt>
<trkpt lat="30.5907300" lon="34.8363100">
<ele>511.500031</ele>
<time>2021-03-31T12:34:12.921Z</time>
</trkpt>
<trkpt lat="30.5904900" lon="34.8365200">
<ele>513.500000</ele>
<time>2021-03-31T12:34:12.921Z</time>
</trkpt>
<trkpt lat="30.5902000" lon="34.8367700">
<ele>516.640015</ele>
<time>2021-03-31T12:34:12.921Z</time>
</trkpt>
<trkpt lat="30.5900700" lon="34.8370000">
<ele>518.409973</ele>
<time>2021-03-31T12:34:12.921Z</time>
</trkpt>
<trkpt lat="30.5899000" lon="34.8373300">
<ele>514.200012</ele>
<time>2021-03-31T12:34:12.921Z</time>
</trkpt>
<trkpt lat="30.5895900" lon="34.8375600">
<ele>512.409973</ele>
<time>2021-03-31T12:34:12.921Z</time>
</trkpt>
<trkpt lat="30.5893400" lon="34.8376800">
<ele>513.229980</ele>
<time>2021-03-31T12:34:12.921Z</time>
</trkpt>
<trkpt lat="30.5891800" lon="34.8378500">
<ele>510.980011</ele>
<time>2021-03-31T12:34:12.921Z</time>
</trkpt>
<trkpt lat="30.5889700" lon="34.8381600">
<ele>509.530029</ele>
<time>2021-03-31T12:34:12.921Z</time>
</trkpt>
<trkpt lat="30.5887400" lon="34.8382700">
<ele>510.779999</ele>
<time>2021-03-31T12:34:12.921Z</time>
</trkpt>
<trkpt lat="30.5885000" lon="34.8384800">
<ele>512.480042</ele>
<time>2021-03-31T12:34:12.921Z</time>
</trkpt>
<trkpt lat="30.5884400" lon="34.8385700">
<ele>513.750000</ele>
<time>2021-03-31T12:34:12.921Z</time>
</trkpt>
<trkpt lat="30.5883000" lon="34.8388600">
<ele>519.530029</ele>
<time>2021-03-31T12:34:12.921Z</time>
</trkpt>
<trkpt lat="30.5882200" lon="34.8391300">
<ele>522.599976</ele>
<time>2021-03-31T12:34:12.921Z</time>
</trkpt>
<trkpt lat="30.5880700" lon="34.8393900">
<ele>525.450012</ele>
<time>2021-03-31T12:34:12.921Z</time>
</trkpt>
<trkpt lat="30.5878700" lon="34.8398100">
<ele>526.100037</ele>
<time>2021-03-31T12:34:12.922Z</time>
</trkpt>
<trkpt lat="30.5877800" lon="34.8399400">
<ele>525.799988</ele>
<time>2021-03-31T12:34:12.922Z</time>
</trkpt>
<trkpt lat="30.5877100" lon="34.8400400">
<ele>525.660034</ele>
<time>2021-03-31T12:34:12.922Z</time>
</trkpt>
<trkpt lat="30.5875800" lon="34.8402300">
<ele>525.400024</ele>
<time>2021-03-31T12:34:12.922Z</time>
</trkpt>
<trkpt lat="30.5874800" lon="34.8405100">
<ele>523.400024</ele>
<time>2021-03-31T12:34:12.922Z</time>
</trkpt>
<trkpt lat="30.5874500" lon="34.8405800">
<ele>522.859985</ele>
<time>2021-03-31T12:34:12.922Z</time>
</trkpt>
<trkpt lat="30.5874100" lon="34.8408400">
<ele>519.880005</ele>
<time>2021-03-31T12:34:12.922Z</time>
</trkpt>
<trkpt lat="30.5873900" lon="34.8409700">
<ele>518.220032</ele>
<time>2021-03-31T12:34:12.922Z</time>
</trkpt>
<trkpt lat="30.5870900" lon="34.8415900">
<ele>518.809998</ele>
<time>2021-03-31T12:34:12.922Z</time>
</trkpt>
<trkpt lat="30.5869300" lon="34.8417000">
<ele>519.929993</ele>
<time>2021-03-31T12:34:12.922Z</time>
</trkpt>
<trkpt lat="30.5868400" lon="34.8418000">
<ele>519.899963</ele>
<time>2021-03-31T12:34:12.922Z</time>
</trkpt>
<trkpt lat="30.5865400" lon="34.8421200">
<ele>517.770020</ele>
<time>2021-03-31T12:34:12.922Z</time>
</trkpt>
<trkpt lat="30.5864600" lon="34.8422700">
<ele>517.210022</ele>
<time>2021-03-31T12:34:12.922Z</time>
</trkpt>
<trkpt lat="30.5864300" lon="34.8424800">
<ele>518.440002</ele>
<time>2021-03-31T12:34:12.922Z</time>
</trkpt>
<trkpt lat="30.5860900" lon="34.8429000">
<ele>514.630005</ele>
<time>2021-03-31T12:34:12.922Z</time>
</trkpt>
<trkpt lat="30.5859600" lon="34.8429400">
<ele>519.160034</ele>
<time>2021-03-31T12:34:12.922Z</time>
</trkpt>
<trkpt lat="30.5855900" lon="34.8432300">
<ele>521.590027</ele>
<time>2021-03-31T12:34:12.922Z</time>
</trkpt>
<trkpt lat="30.5853100" lon="34.8432500">
<ele>518.419983</ele>
<time>2021-03-31T12:34:12.922Z</time>
</trkpt>
<trkpt lat="30.5849700" lon="34.8432900">
<ele>517.369995</ele>
<time>2021-03-31T12:34:12.922Z</time>
</trkpt>
<trkpt lat="30.5845300" lon="34.8433400">
<ele>520.419983</ele>
<time>2021-03-31T12:34:12.922Z</time>
</trkpt>
<trkpt lat="30.5842100" lon="34.8434600">
<ele>521.989990</ele>
<time>2021-03-31T12:34:12.922Z</time>
</trkpt>
<trkpt lat="30.5838100" lon="34.8436400">
<ele>519.970032</ele>
<time>2021-03-31T12:34:12.922Z</time>
</trkpt>
<trkpt lat="30.5834100" lon="34.8438700">
<ele>518.520020</ele>
<time>2021-03-31T12:34:12.922Z</time>
</trkpt>
<trkpt lat="30.5830400" lon="34.8439000">
<ele>519.030029</ele>
<time>2021-03-31T12:34:12.922Z</time>
</trkpt>
<trkpt lat="30.5826600" lon="34.8440900">
<ele>520.880005</ele>
<time>2021-03-31T12:34:12.922Z</time>
</trkpt>
<trkpt lat="30.5823500" lon="34.8444300">
<ele>523.059998</ele>
<time>2021-03-31T12:34:12.922Z</time>
</trkpt>
<trkpt lat="30.5820700" lon="34.8445600">
<ele>518.659973</ele>
<time>2021-03-31T12:34:12.922Z</time>
</trkpt>
<trkpt lat="30.5817900" lon="34.8448500">
<ele>517.349976</ele>
<time>2021-03-31T12:34:12.922Z</time>
</trkpt>
<trkpt lat="30.5813700" lon="34.8451100">
<ele>516.229980</ele>
<time>2021-03-31T12:34:12.922Z</time>
</trkpt>
<trkpt lat="30.5810000" lon="34.8453800">
<ele>521.399963</ele>
<time>2021-03-31T12:34:12.922Z</time>
</trkpt>
<trkpt lat="30.5806300" lon="34.8456600">
<ele>526.179993</ele>
<time>2021-03-31T12:34:12.922Z</time>
</trkpt>
<trkpt lat="30.5804200" lon="34.8457200">
<ele>526.100037</ele>
<time>2021-03-31T12:34:12.923Z</time>
</trkpt>
<trkpt lat="30.5801100" lon="34.8458400">
<ele>525.919983</ele>
<time>2021-03-31T12:34:12.923Z</time>
</trkpt>
<trkpt lat="30.5797700" lon="34.8458000">
<ele>526.820007</ele>
<time>2021-03-31T12:34:12.923Z</time>
</trkpt>
<trkpt lat="30.5795400" lon="34.8459700">
<ele>528.339966</ele>
<time>2021-03-31T12:34:12.923Z</time>
</trkpt>
<trkpt lat="30.5793800" lon="34.8461700">
<ele>527.470032</ele>
<time>2021-03-31T12:34:12.923Z</time>
</trkpt>
<trkpt lat="30.5792400" lon="34.8463900">
<ele>526.059998</ele>
<time>2021-03-31T12:34:12.923Z</time>
</trkpt>
<trkpt lat="30.5789300" lon="34.8467700">
<ele>525.359985</ele>
<time>2021-03-31T12:34:12.923Z</time>
</trkpt>
<trkpt lat="30.5786700" lon="34.8470900">
<ele>527.770020</ele>
<time>2021-03-31T12:34:12.923Z</time>
</trkpt>
<trkpt lat="30.5782900" lon="34.8474900">
<ele>533.640015</ele>
<time>2021-03-31T12:34:12.923Z</time>
</trkpt>
<trkpt lat="30.5782100" lon="34.8475700">
<ele>532.080017</ele>
<time>2021-03-31T12:34:12.923Z</time>
</trkpt>
<trkpt lat="30.5778400" lon="34.8479400">
<ele>531.780029</ele>
<time>2021-03-31T12:34:12.923Z</time>
</trkpt>
<trkpt lat="30.5775700" lon="34.8483700">
<ele>534.869995</ele>
<time>2021-03-31T12:34:12.923Z</time>
</trkpt>
<trkpt lat="30.5775300" lon="34.8484900">
<ele>535.850037</ele>
<time>2021-03-31T12:34:12.923Z</time>
</trkpt>
<trkpt lat="30.5773300" lon="34.8488800">
<ele>540.140015</ele>
<time>2021-03-31T12:34:12.923Z</time>
</trkpt>
<trkpt lat="30.5772100" lon="34.8492100">
<ele>540.169983</ele>
<time>2021-03-31T12:34:12.923Z</time>
</trkpt>
<trkpt lat="30.5771600" lon="34.8495800">
<ele>539.479980</ele>
<time>2021-03-31T12:34:12.923Z</time>
</trkpt>
<trkpt lat="30.5769800" lon="34.8499700">
<ele>534.869995</ele>
<time>2021-03-31T12:34:12.923Z</time>
</trkpt>
<trkpt lat="30.5768300" lon="34.8503000">
<ele>536.440002</ele>
<time>2021-03-31T12:34:12.923Z</time>
</trkpt>
<trkpt lat="30.5767400" lon="34.8506000">
<ele>543.950012</ele>
<time>2021-03-31T12:34:12.923Z</time>
</trkpt>
<trkpt lat="30.5767300" lon="34.8509600">
<ele>546.210022</ele>
<time>2021-03-31T12:34:12.923Z</time>
</trkpt>
<trkpt lat="30.5766300" lon="34.8513900">
<ele>544.859985</ele>
<time>2021-03-31T12:34:12.923Z</time>
</trkpt>
<trkpt lat="30.5767300" lon="34.8516800">
<ele>541.290039</ele>
<time>2021-03-31T12:34:12.923Z</time>
</trkpt>
<trkpt lat="30.5770100" lon="34.8517800">
<ele>541.349976</ele>
<time>2021-03-31T12:34:12.923Z</time>
</trkpt>
<trkpt lat="30.5770600" lon="34.8518100">
<ele>543.070007</ele>
<time>2021-03-31T12:34:12.923Z</time>
</trkpt>
<trkpt lat="30.5770900" lon="34.8518600">
<ele>544.460022</ele>
<time>2021-03-31T12:34:12.923Z</time>
</trkpt>
<trkpt lat="30.5771300" lon="34.8519000">
<ele>546.200012</ele>
<time>2021-03-31T12:34:12.923Z</time>
</trkpt>
<trkpt lat="30.5771700" lon="34.8519000">
<ele>547.570007</ele>
<time>2021-03-31T12:34:12.923Z</time>
</trkpt>
<trkpt lat="30.5772000" lon="34.8519300">
<ele>549.000000</ele>
<time>2021-03-31T12:34:12.923Z</time>
</trkpt>
<trkpt lat="30.5771700" lon="34.8521800">
<ele>550.820007</ele>
<time>2021-03-31T12:34:12.923Z</time>
</trkpt>
<trkpt lat="30.5771500" lon="34.8522200">
<ele>550.630005</ele>
<time>2021-03-31T12:34:12.923Z</time>
</trkpt>
<trkpt lat="30.5771300" lon="34.8523400">
<ele>550.859985</ele>
<time>2021-03-31T12:34:12.923Z</time>
</trkpt>
<trkpt lat="30.5771600" lon="34.8526000">
<ele>553.869995</ele>
<time>2021-03-31T12:34:12.923Z</time>
</trkpt>
<trkpt lat="30.5771400" lon="34.8529100">
<ele>555.489990</ele>
<time>2021-03-31T12:34:12.924Z</time>
</trkpt>
<trkpt lat="30.5770700" lon="34.8533200">
<ele>557.869995</ele>
<time>2021-03-31T12:34:12.924Z</time>
</trkpt>
<trkpt lat="30.5770300" lon="34.8536900">
<ele>563.349976</ele>
<time>2021-03-31T12:34:12.924Z</time>
</trkpt>
<trkpt lat="30.5771800" lon="34.8540100">
<ele>564.849976</ele>
<time>2021-03-31T12:34:12.924Z</time>
</trkpt>
<trkpt lat="30.5774500" lon="34.8543900">
<ele>564.650024</ele>
<time>2021-03-31T12:34:12.924Z</time>
</trkpt>
<trkpt lat="30.5775100" lon="34.8545600">
<ele>565.299988</ele>
<time>2021-03-31T12:34:12.924Z</time>
</trkpt>
<trkpt lat="30.5776300" lon="34.8548400">
<ele>567.830017</ele>
<time>2021-03-31T12:34:12.924Z</time>
</trkpt>
<trkpt lat="30.5778400" lon="34.8551100">
<ele>568.959961</ele>
<time>2021-03-31T12:34:12.924Z</time>
</trkpt>
<trkpt lat="30.5780400" lon="34.8552500">
<ele>568.010010</ele>
<time>2021-03-31T12:34:12.924Z</time>
</trkpt>
<trkpt lat="30.5782400" lon="34.8552600">
<ele>570.660034</ele>
<time>2021-03-31T12:34:12.924Z</time>
</trkpt>
<trkpt lat="30.5783000" lon="34.8552400">
<ele>571.609985</ele>
<time>2021-03-31T12:34:12.924Z</time>
</trkpt>
<trkpt lat="30.5785100" lon="34.8552500">
<ele>573.500000</ele>
<time>2021-03-31T12:34:12.924Z</time>
</trkpt>
<trkpt lat="30.5786500" lon="34.8553000">
<ele>573.589966</ele>
<time>2021-03-31T12:34:12.924Z</time>
</trkpt>
<trkpt lat="30.5787600" lon="34.8553200">
<ele>572.469971</ele>
<time>2021-03-31T12:34:12.924Z</time>
</trkpt>
<trkpt lat="30.5787800" lon="34.8552800">
<ele>572.179993</ele>
<time>2021-03-31T12:34:12.924Z</time>
</trkpt>
<trkpt lat="30.5789200" lon="34.8552500">
<ele>571.119995</ele>
<time>2021-03-31T12:34:12.924Z</time>
</trkpt>
<trkpt lat="30.5790400" lon="34.8552100">
<ele>569.890015</ele>
<time>2021-03-31T12:34:12.924Z</time>
</trkpt>
<trkpt lat="30.5791200" lon="34.8551800">
<ele>568.910034</ele>
<time>2021-03-31T12:34:12.924Z</time>
</trkpt>
<trkpt lat="30.5793100" lon="34.8551600">
<ele>565.179993</ele>
<time>2021-03-31T12:34:12.924Z</time>
</trkpt>
<trkpt lat="30.5797800" lon="34.8551500">
<ele>560.059998</ele>
<time>2021-03-31T12:34:12.924Z</time>
</trkpt>
<trkpt lat="30.5799900" lon="34.8553100">
<ele>557.059998</ele>
<time>2021-03-31T12:34:12.924Z</time>
</trkpt>
<trkpt lat="30.5800300" lon="34.8553700">
<ele>556.500000</ele>
<time>2021-03-31T12:34:12.924Z</time>
</trkpt>
<trkpt lat="30.5804300" lon="34.8555300">
<ele>552.809998</ele>
<time>2021-03-31T12:34:12.924Z</time>
</trkpt>
<trkpt lat="30.5806600" lon="34.8555200">
<ele>552.989990</ele>
<time>2021-03-31T12:34:12.924Z</time>
</trkpt>
<trkpt lat="30.5807800" lon="34.8555300">
<ele>553.530029</ele>
<time>2021-03-31T12:34:12.924Z</time>
</trkpt>
<trkpt lat="30.5812400" lon="34.8556100">
<ele>551.619995</ele>
<time>2021-03-31T12:34:12.924Z</time>
</trkpt>
<trkpt lat="30.5814500" lon="34.8555300">
<ele>552.760010</ele>
<time>2021-03-31T12:34:12.924Z</time>
</trkpt>
<trkpt lat="30.5816700" lon="34.8554100">
<ele>551.400024</ele>
<time>2021-03-31T12:34:12.924Z</time>
</trkpt>
<trkpt lat="30.5819000" lon="34.8554200">
<ele>552.789978</ele>
<time>2021-03-31T12:34:12.925Z</time>
</trkpt>
<trkpt lat="30.5820400" lon="34.8554900">
<ele>552.940002</ele>
<time>2021-03-31T12:34:12.925Z</time>
</trkpt>
<trkpt lat="30.5821800" lon="34.8556100">
<ele>552.489990</ele>
<time>2021-03-31T12:34:12.925Z</time>
</trkpt>
<trkpt lat="30.5824500" lon="34.8557500">
<ele>550.530029</ele>
<time>2021-03-31T12:34:12.925Z</time>
</trkpt>
<trkpt lat="30.5826600" lon="34.8557900">
<ele>550.710022</ele>
<time>2021-03-31T12:34:12.925Z</time>
</trkpt>
<trkpt lat="30.5833500" lon="34.8561900">
<ele>546.279968</ele>
<time>2021-03-31T12:34:12.925Z</time>
</trkpt>
<trkpt lat="30.5834100" lon="34.8562300">
<ele>545.400024</ele>
<time>2021-03-31T12:34:12.925Z</time>
</trkpt>
<trkpt lat="30.5836200" lon="34.8565600">
<ele>541.559998</ele>
<time>2021-03-31T12:34:12.925Z</time>
</trkpt>
<trkpt lat="30.5837800" lon="34.8567500">
<ele>540.179993</ele>
<time>2021-03-31T12:34:12.925Z</time>
</trkpt>
<trkpt lat="30.5838400" lon="34.8568600">
<ele>539.530029</ele>
<time>2021-03-31T12:34:12.925Z</time>
</trkpt>
<trkpt lat="30.5839800" lon="34.8571000">
<ele>539.700012</ele>
<time>2021-03-31T12:34:12.925Z</time>
</trkpt>
<trkpt lat="30.5840800" lon="34.8573800">
<ele>540.750000</ele>
<time>2021-03-31T12:34:12.925Z</time>
</trkpt>
<trkpt lat="30.5842000" lon="34.8575800">
<ele>541.630005</ele>
<time>2021-03-31T12:34:12.925Z</time>
</trkpt>
<trkpt lat="30.5843300" lon="34.8578100">
<ele>541.309998</ele>
<time>2021-03-31T12:34:12.925Z</time>
</trkpt>
<trkpt lat="30.5846900" lon="34.8583400">
<ele>533.679993</ele>
<time>2021-03-31T12:34:12.925Z</time>
</trkpt>
<trkpt lat="30.5848600" lon="34.8585600">
<ele>533.440002</ele>
<time>2021-03-31T12:34:12.925Z</time>
</trkpt>
<trkpt lat="30.5851200" lon="34.8589800">
<ele>536.979980</ele>
<time>2021-03-31T12:34:12.925Z</time>
</trkpt>
<trkpt lat="30.5853400" lon="34.8597700">
<ele>544.239990</ele>
<time>2021-03-31T12:34:12.925Z</time>
</trkpt>
<trkpt lat="30.5855100" lon="34.8601100">
<ele>542.780029</ele>
<time>2021-03-31T12:34:12.925Z</time>
</trkpt>
<trkpt lat="30.5856600" lon="34.8602500">
<ele>539.760010</ele>
<time>2021-03-31T12:34:12.925Z</time>
</trkpt>
<trkpt lat="30.5860700" lon="34.8604500">
<ele>533.440002</ele>
<time>2021-03-31T12:34:12.925Z</time>
</trkpt>
<trkpt lat="30.5862800" lon="34.8605100">
<ele>531.679993</ele>
<time>2021-03-31T12:34:12.925Z</time>
</trkpt>
<trkpt lat="30.5864900" lon="34.8608300">
<ele>526.409973</ele>
<time>2021-03-31T12:34:12.925Z</time>
</trkpt>
<trkpt lat="30.5866300" lon="34.8610600">
<ele>524.200012</ele>
<time>2021-03-31T12:34:12.926Z</time>
</trkpt>
<trkpt lat="30.5869400" lon="34.8617300">
<ele>530.890015</ele>
<time>2021-03-31T12:34:12.926Z</time>
</trkpt>
<trkpt lat="30.5869900" lon="34.8618300">
<ele>532.059998</ele>
<time>2021-03-31T12:34:12.926Z</time>
</trkpt>
<trkpt lat="30.5871300" lon="34.8621000">
<ele>532.739990</ele>
<time>2021-03-31T12:34:12.926Z</time>
</trkpt>
<trkpt lat="30.5872800" lon="34.8625000">
<ele>536.380005</ele>
<time>2021-03-31T12:34:12.926Z</time>
</trkpt>
<trkpt lat="30.5874000" lon="34.8627800">
<ele>533.880005</ele>
<time>2021-03-31T12:34:12.926Z</time>
</trkpt>
<trkpt lat="30.5875400" lon="34.8633800">
<ele>531.660034</ele>
<time>2021-03-31T12:34:12.926Z</time>
</trkpt>
<trkpt lat="30.5877100" lon="34.8642000">
<ele>535.419983</ele>
<time>2021-03-31T12:34:12.926Z</time>
</trkpt>
<trkpt lat="30.5876100" lon="34.8646900">
<ele>536.349976</ele>
<time>2021-03-31T12:34:12.926Z</time>
</trkpt>
<trkpt lat="30.5875800" lon="34.8648800">
<ele>539.059998</ele>
<time>2021-03-31T12:34:12.926Z</time>
</trkpt>
<trkpt lat="30.5876700" lon="34.8651400">
<ele>542.660034</ele>
<time>2021-03-31T12:34:12.926Z</time>
</trkpt>
<trkpt lat="30.5877400" lon="34.8652100">
<ele>542.630005</ele>
<time>2021-03-31T12:34:12.926Z</time>
</trkpt>
<trkpt lat="30.5878400" lon="34.8654000">
<ele>545.119995</ele>
<time>2021-03-31T12:34:12.926Z</time>
</trkpt>
<trkpt lat="30.5879800" lon="34.8655500">
<ele>546.010010</ele>
<time>2021-03-31T12:34:12.926Z</time>
</trkpt>
<trkpt lat="30.5882400" lon="34.8657600">
<ele>542.530029</ele>
<time>2021-03-31T12:34:12.926Z</time>
</trkpt>
<trkpt lat="30.5885600" lon="34.8660500">
<ele>535.210022</ele>
<time>2021-03-31T12:34:12.926Z</time>
</trkpt>
<trkpt lat="30.5887600" lon="34.8662000">
<ele>532.460022</ele>
<time>2021-03-31T12:34:12.926Z</time>
</trkpt>
<trkpt lat="30.5890600" lon="34.8665300">
<ele>529.039978</ele>
<time>2021-03-31T12:34:12.926Z</time>
</trkpt>
<trkpt lat="30.5891400" lon="34.8666400">
<ele>528.289978</ele>
<time>2021-03-31T12:34:12.926Z</time>
</trkpt>
<trkpt lat="30.5892700" lon="34.8668100">
<ele>526.429993</ele>
<time>2021-03-31T12:34:12.926Z</time>
</trkpt>
<trkpt lat="30.5894600" lon="34.8670300">
<ele>524.789978</ele>
<time>2021-03-31T12:34:12.926Z</time>
</trkpt>
<trkpt lat="30.5895900" lon="34.8672700">
<ele>528.419983</ele>
<time>2021-03-31T12:34:12.926Z</time>
</trkpt>
<trkpt lat="30.5896800" lon="34.8675600">
<ele>526.520020</ele>
<time>2021-03-31T12:34:12.926Z</time>
</trkpt>
<trkpt lat="30.5898500" lon="34.8677400">
<ele>525.049988</ele>
<time>2021-03-31T12:34:12.926Z</time>
</trkpt>
<trkpt lat="30.5901100" lon="34.8679300">
<ele>522.619995</ele>
<time>2021-03-31T12:34:12.926Z</time>
</trkpt>
<trkpt lat="30.5902000" lon="34.8680400">
<ele>520.979980</ele>
<time>2021-03-31T12:34:12.927Z</time>
</trkpt>
<trkpt lat="30.5905700" lon="34.8685500">
<ele>517.929993</ele>
<time>2021-03-31T12:34:12.927Z</time>
</trkpt>
<trkpt lat="30.5906600" lon="34.8687000">
<ele>515.419983</ele>
<time>2021-03-31T12:34:12.927Z</time>
</trkpt>
<trkpt lat="30.5907300" lon="34.8689100">
<ele>513.260010</ele>
<time>2021-03-31T12:34:12.927Z</time>
</trkpt>
<trkpt lat="30.5907500" lon="34.8690100">
<ele>512.929993</ele>
<time>2021-03-31T12:34:12.927Z</time>
</trkpt>
<trkpt lat="30.5908900" lon="34.8696100">
<ele>515.049988</ele>
<time>2021-03-31T12:34:12.927Z</time>
</trkpt>
<trkpt lat="30.5911200" lon="34.8702200">
<ele>514.869995</ele>
<time>2021-03-31T12:34:12.927Z</time>
</trkpt>
<trkpt lat="30.5916600" lon="34.8709400">
<ele>509.270020</ele>
<time>2021-03-31T12:34:12.927Z</time>
</trkpt>
<trkpt lat="30.5923700" lon="34.8714000">
<ele>511.509979</ele>
<time>2021-03-31T12:34:12.927Z</time>
</trkpt>
<trkpt lat="30.5923700" lon="34.8714000">
<ele>511.509979</ele>
<time>2021-03-31T12:34:12.927Z</time>
</trkpt>
<trkpt lat="30.5923800" lon="34.8713900">
<ele>511.440002</ele>
<time>2021-03-31T12:34:12.927Z</time>
</trkpt>
<trkpt lat="30.5924500" lon="34.8714400">
<ele>511.600006</ele>
<time>2021-03-31T12:34:12.927Z</time>
</trkpt>
<trkpt lat="30.5930400" lon="34.8719300">
<ele>506.329987</ele>
<time>2021-03-31T12:34:12.927Z</time>
</trkpt>
<trkpt lat="30.5931400" lon="34.8721000">
<ele>504.229980</ele>
<time>2021-03-31T12:34:12.927Z</time>
</trkpt>
<trkpt lat="30.5932400" lon="34.8725200">
<ele>500.989990</ele>
<time>2021-03-31T12:34:12.927Z</time>
</trkpt>
<trkpt lat="30.5932700" lon="34.8726200">
<ele>501.319977</ele>
<time>2021-03-31T12:34:12.927Z</time>
</trkpt>
<trkpt lat="30.5933900" lon="34.8724700">
<ele>502.170013</ele>
<time>2021-03-31T12:34:12.927Z</time>
</trkpt>
<trkpt lat="30.5937600" lon="34.8721200">
<ele>502.510010</ele>
<time>2021-03-31T12:34:12.927Z</time>
</trkpt>
<trkpt lat="30.5938600" lon="34.8719600">
<ele>502.149994</ele>
<time>2021-03-31T12:34:12.927Z</time>
</trkpt>
<trkpt lat="30.5940600" lon="34.8714900">
<ele>503.299988</ele>
<time>2021-03-31T12:34:12.927Z</time>
</trkpt>
<trkpt lat="30.5943200" lon="34.8712200">
<ele>507.190002</ele>
<time>2021-03-31T12:34:12.927Z</time>
</trkpt>
<trkpt lat="30.5946300" lon="34.8707600">
<ele>507.650024</ele>
<time>2021-03-31T12:34:12.927Z</time>
</trkpt>
<trkpt lat="30.5953400" lon="34.8700600">
<ele>509.690002</ele>
<time>2021-03-31T12:34:12.927Z</time>
</trkpt>
<trkpt lat="30.5957800" lon="34.8697200">
<ele>504.959991</ele>
<time>2021-03-31T12:34:12.927Z</time>
</trkpt>
<trkpt lat="30.5960800" lon="34.8694300">
<ele>501.500000</ele>
<time>2021-03-31T12:34:12.927Z</time>
</trkpt>
<trkpt lat="30.5967000" lon="34.8686000">
<ele>511.589996</ele>
<time>2021-03-31T12:34:12.927Z</time>
</trkpt>
<trkpt lat="30.5976100" lon="34.8675400">
<ele>506.220001</ele>
<time>2021-03-31T12:34:12.927Z</time>
</trkpt>
<trkpt lat="30.5977400" lon="34.8674400">
<ele>502.689972</ele>
<time>2021-03-31T12:34:12.927Z</time>
</trkpt>
<trkpt lat="30.5979400" lon="34.8673700">
<ele>499.600006</ele>
<time>2021-03-31T12:34:12.927Z</time>
</trkpt>
<trkpt lat="30.5984300" lon="34.8673200">
<ele>501.500000</ele>
<time>2021-03-31T12:34:12.928Z</time>
</trkpt>
<trkpt lat="30.5985500" lon="34.8672700">
<ele>503.020020</ele>
<time>2021-03-31T12:34:12.928Z</time>
</trkpt>
<trkpt lat="30.5984500" lon="34.8667300">
<ele>500.360016</ele>
<time>2021-03-31T12:34:12.928Z</time>
</trkpt>
<trkpt lat="30.5984800" lon="34.8661700">
<ele>502.949982</ele>
<time>2021-03-31T12:34:12.928Z</time>
</trkpt>
<trkpt lat="30.5985500" lon="34.8659900">
<ele>504.480011</ele>
<time>2021-03-31T12:34:12.928Z</time>
</trkpt>
<trkpt lat="30.5988300" lon="34.8655600">
<ele>510.139984</ele>
<time>2021-03-31T12:34:12.928Z</time>
</trkpt>
<trkpt lat="30.5990000" lon="34.8651700">
<ele>506.910004</ele>
<time>2021-03-31T12:34:12.928Z</time>
</trkpt>
<trkpt lat="30.5992100" lon="34.8652400">
<ele>508.190002</ele>
<time>2021-03-31T12:34:12.928Z</time>
</trkpt>
<trkpt lat="30.5993800" lon="34.8652000">
<ele>510.290009</ele>
<time>2021-03-31T12:34:12.928Z</time>
</trkpt>
<trkpt lat="30.5995300" lon="34.8651100">
<ele>510.739990</ele>
<time>2021-03-31T12:34:12.928Z</time>
</trkpt>
<trkpt lat="30.5996100" lon="34.8650400">
<ele>511.100006</ele>
<time>2021-03-31T12:34:12.928Z</time>
</trkpt>
<trkpt lat="30.5999000" lon="34.8646000">
<ele>508.230011</ele>
<time>2021-03-31T12:34:12.928Z</time>
</trkpt>
<trkpt lat="30.5999000" lon="34.8643300">
<ele>507.679993</ele>
<time>2021-03-31T12:34:12.928Z</time>
</trkpt>
<trkpt lat="30.5999400" lon="34.8642700">
<ele>507.750000</ele>
<time>2021-03-31T12:34:12.928Z</time>
</trkpt>
<trkpt lat="30.6002500" lon="34.8639400">
<ele>506.280029</ele>
<time>2021-03-31T12:34:12.928Z</time>
</trkpt>
<trkpt lat="30.6008800" lon="34.8637600">
<ele>486.299988</ele>
<time>2021-03-31T12:34:12.928Z</time>
</trkpt>
<trkpt lat="30.6008800" lon="34.8637600">
<ele>486.299988</ele>
<time>2021-03-31T12:34:12.928Z</time>
</trkpt>
<trkpt lat="30.6008800" lon="34.8637600">
<ele>486.299988</ele>
<time>2021-03-31T12:34:12.928Z</time>
</trkpt>
<trkpt lat="30.6009700" lon="34.8637300">
<ele>485.389984</ele>
<time>2021-03-31T12:34:12.928Z</time>
</trkpt>
<trkpt lat="30.6017000" lon="34.8632100">
<ele>489.979980</ele>
<time>2021-03-31T12:34:12.928Z</time>
</trkpt>
<trkpt lat="30.6018600" lon="34.8630200">
<ele>492.119995</ele>
<time>2021-03-31T12:34:12.928Z</time>
</trkpt>
<trkpt lat="30.6020500" lon="34.8626300">
<ele>493.950012</ele>
<time>2021-03-31T12:34:12.928Z</time>
</trkpt>
<trkpt lat="30.6022400" lon="34.8623700">
<ele>495.160004</ele>
<time>2021-03-31T12:34:12.928Z</time>
</trkpt>
<trkpt lat="30.6024400" lon="34.8619500">
<ele>497.010010</ele>
<time>2021-03-31T12:34:12.928Z</time>
</trkpt>
<trkpt lat="30.6025700" lon="34.8617900">
<ele>497.139984</ele>
<time>2021-03-31T12:34:12.928Z</time>
</trkpt>
<trkpt lat="30.6030900" lon="34.8614300">
<ele>496.529999</ele>
<time>2021-03-31T12:34:12.928Z</time>
</trkpt>
<trkpt lat="30.6033600" lon="34.8610600">
<ele>498.660004</ele>
<time>2021-03-31T12:34:12.928Z</time>
</trkpt>
<trkpt lat="30.6035900" lon="34.8607400">
<ele>503.059998</ele>
<time>2021-03-31T12:34:12.928Z</time>
</trkpt>
<trkpt lat="30.6038900" lon="34.8605600">
<ele>505.009979</ele>
<time>2021-03-31T12:34:12.928Z</time>
</trkpt>
<trkpt lat="30.6044700" lon="34.8600600">
<ele>501.740021</ele>
<time>2021-03-31T12:34:12.928Z</time>
</trkpt>
<trkpt lat="30.6044700" lon="34.8599600">
<ele>500.110016</ele>
<time>2021-03-31T12:34:12.928Z</time>
</trkpt>
<trkpt lat="30.6044600" lon="34.8595800">
<ele>493.510010</ele>
<time>2021-03-31T12:34:12.929Z</time>
</trkpt>
<trkpt lat="30.6045000" lon="34.8595100">
<ele>493.070007</ele>
<time>2021-03-31T12:34:12.929Z</time>
</trkpt>
<trkpt lat="30.6045700" lon="34.8594700">
<ele>492.400024</ele>
<time>2021-03-31T12:34:12.929Z</time>
</trkpt>
<trkpt lat="30.6048100" lon="34.8594500">
<ele>490.489990</ele>
<time>2021-03-31T12:34:12.929Z</time>
</trkpt>
<trkpt lat="30.6049900" lon="34.8593700">
<ele>489.049988</ele>
<time>2021-03-31T12:34:12.929Z</time>
</trkpt>
<trkpt lat="30.6051800" lon="34.8592400">
<ele>491.590027</ele>
<time>2021-03-31T12:34:12.929Z</time>
</trkpt>
<trkpt lat="30.6052900" lon="34.8592200">
<ele>493.090027</ele>
<time>2021-03-31T12:34:12.929Z</time>
</trkpt>
<trkpt lat="30.6054000" lon="34.8591500">
<ele>493.850006</ele>
<time>2021-03-31T12:34:12.929Z</time>
</trkpt>
<trkpt lat="30.6057600" lon="34.8589200">
<ele>493.609985</ele>
<time>2021-03-31T12:34:12.929Z</time>
</trkpt>
<trkpt lat="30.6062000" lon="34.8584200">
<ele>485.739990</ele>
<time>2021-03-31T12:34:12.929Z</time>
</trkpt>
<trkpt lat="30.6064100" lon="34.8578600">
<ele>481.969971</ele>
<time>2021-03-31T12:34:12.929Z</time>
</trkpt>
<trkpt lat="30.6067200" lon="34.8574800">
<ele>483.049988</ele>
<time>2021-03-31T12:34:12.929Z</time>
</trkpt>
<trkpt lat="30.6069000" lon="34.8573200">
<ele>485.300018</ele>
<time>2021-03-31T12:34:12.929Z</time>
</trkpt>
<trkpt lat="30.6073500" lon="34.8570100">
<ele>483.460022</ele>
<time>2021-03-31T12:34:12.929Z</time>
</trkpt>
<trkpt lat="30.6082500" lon="34.8558500">
<ele>477.959991</ele>
<time>2021-03-31T12:34:12.929Z</time>
</trkpt>
<trkpt lat="30.6084500" lon="34.8556200">
<ele>479.029999</ele>
<time>2021-03-31T12:34:12.929Z</time>
</trkpt>
<trkpt lat="30.6090800" lon="34.8550900">
<ele>478.260010</ele>
<time>2021-03-31T12:34:12.929Z</time>
</trkpt>
<trkpt lat="30.6094200" lon="34.8545200">
<ele>469.230011</ele>
<time>2021-03-31T12:34:12.929Z</time>
</trkpt>
<trkpt lat="30.6097500" lon="34.8542900">
<ele>473.160004</ele>
<time>2021-03-31T12:34:12.929Z</time>
</trkpt>
<trkpt lat="30.6103800" lon="34.8539700">
<ele>479.739990</ele>
<time>2021-03-31T12:34:12.929Z</time>
</trkpt>
<trkpt lat="30.6105100" lon="34.8538200">
<ele>477.239990</ele>
<time>2021-03-31T12:34:12.929Z</time>
</trkpt>
<trkpt lat="30.6106500" lon="34.8534800">
<ele>475.130005</ele>
<time>2021-03-31T12:34:12.929Z</time>
</trkpt>
<trkpt lat="30.6106700" lon="34.8534500">
<ele>475.169983</ele>
<time>2021-03-31T12:34:12.929Z</time>
</trkpt>
<trkpt lat="30.6106700" lon="34.8534500">
<ele>475.169983</ele>
<time>2021-03-31T12:34:12.929Z</time>
</trkpt>
<trkpt lat="30.6107800" lon="34.8532800">
<ele>475.540009</ele>
<time>2021-03-31T12:34:12.929Z</time>
</trkpt>
<trkpt lat="30.6108800" lon="34.8532000">
<ele>476.220001</ele>
<time>2021-03-31T12:34:12.929Z</time>
</trkpt>
<trkpt lat="30.6109900" lon="34.8532100">
<ele>476.770020</ele>
<time>2021-03-31T12:34:12.929Z</time>
</trkpt>
<trkpt lat="30.6110600" lon="34.8532500">
<ele>476.990021</ele>
<time>2021-03-31T12:34:12.929Z</time>
</trkpt>
<trkpt lat="30.6111300" lon="34.8533100">
<ele>476.750000</ele>
<time>2021-03-31T12:34:12.929Z</time>
</trkpt>
<trkpt lat="30.6111600" lon="34.8533600">
<ele>475.739990</ele>
<time>2021-03-31T12:34:12.929Z</time>
</trkpt>
<trkpt lat="30.6111500" lon="34.8534900">
<ele>474.040009</ele>
<time>2021-03-31T12:34:12.929Z</time>
</trkpt>
<trkpt lat="30.6110900" lon="34.8536100">
<ele>473.089996</ele>
<time>2021-03-31T12:34:12.929Z</time>
</trkpt>
<trkpt lat="30.6110800" lon="34.8540900">
<ele>473.060028</ele>
<time>2021-03-31T12:34:12.930Z</time>
</trkpt>
<trkpt lat="30.6109900" lon="34.8546100">
<ele>475.440002</ele>
<time>2021-03-31T12:34:12.930Z</time>
</trkpt>
<trkpt lat="30.6109600" lon="34.8552100">
<ele>478.320007</ele>
<time>2021-03-31T12:34:12.930Z</time>
</trkpt>
<trkpt lat="30.6109900" lon="34.8556500">
<ele>478.580017</ele>
<time>2021-03-31T12:34:12.930Z</time>
</trkpt>
<trkpt lat="30.6109800" lon="34.8562400">
<ele>483.039978</ele>
<time>2021-03-31T12:34:12.930Z</time>
</trkpt>
<trkpt lat="30.6109400" lon="34.8565100">
<ele>487.959991</ele>
<time>2021-03-31T12:34:12.930Z</time>
</trkpt>
<trkpt lat="30.6109500" lon="34.8567500">
<ele>492.470001</ele>
<time>2021-03-31T12:34:12.930Z</time>
</trkpt>
<trkpt lat="30.6109800" lon="34.8568500">
<ele>493.880005</ele>
<time>2021-03-31T12:34:12.930Z</time>
</trkpt>
<trkpt lat="30.6110500" lon="34.8569500">
<ele>494.129974</ele>
<time>2021-03-31T12:34:12.930Z</time>
</trkpt>
<trkpt lat="30.6111700" lon="34.8571100">
<ele>494.279999</ele>
<time>2021-03-31T12:34:12.930Z</time>
</trkpt>
<trkpt lat="30.6113100" lon="34.8572100">
<ele>493.130005</ele>
<time>2021-03-31T12:34:12.930Z</time>
</trkpt>
<trkpt lat="30.6117200" lon="34.8573700">
<ele>488.309998</ele>
<time>2021-03-31T12:34:12.930Z</time>
</trkpt>
<trkpt lat="30.6121700" lon="34.8576300">
<ele>474.420013</ele>
<time>2021-03-31T12:34:12.930Z</time>
</trkpt>
<trkpt lat="30.6125100" lon="34.8577400">
<ele>472.970001</ele>
<time>2021-03-31T12:34:12.930Z</time>
</trkpt>
<trkpt lat="30.6126300" lon="34.8576900">
<ele>474.089996</ele>
<time>2021-03-31T12:34:12.930Z</time>
</trkpt>
<trkpt lat="30.6126500" lon="34.8576000">
<ele>473.980011</ele>
<time>2021-03-31T12:34:12.930Z</time>
</trkpt>
<trkpt lat="30.6126600" lon="34.8574700">
<ele>473.679993</ele>
<time>2021-03-31T12:34:12.930Z</time>
</trkpt>
<trkpt lat="30.6126200" lon="34.8573800">
<ele>473.050018</ele>
<time>2021-03-31T12:34:12.930Z</time>
</trkpt>
<trkpt lat="30.6126200" lon="34.8572700">
<ele>472.830017</ele>
<time>2021-03-31T12:34:12.930Z</time>
</trkpt>
<trkpt lat="30.6126900" lon="34.8570500">
<ele>473.929993</ele>
<time>2021-03-31T12:34:12.930Z</time>
</trkpt>
<trkpt lat="30.6126800" lon="34.8568000">
<ele>473.419983</ele>
<time>2021-03-31T12:34:12.930Z</time>
</trkpt>
<trkpt lat="30.6127100" lon="34.8565300">
<ele>473.390015</ele>
<time>2021-03-31T12:34:12.930Z</time>
</trkpt>
<trkpt lat="30.6128100" lon="34.8563300">
<ele>473.950012</ele>
<time>2021-03-31T12:34:12.930Z</time>
</trkpt>
<trkpt lat="30.6129200" lon="34.8561400">
<ele>474.200012</ele>
<time>2021-03-31T12:34:12.930Z</time>
</trkpt>
<trkpt lat="30.6130100" lon="34.8558600">
<ele>474.440002</ele>
<time>2021-03-31T12:34:12.930Z</time>
</trkpt>
<trkpt lat="30.6130700" lon="34.8557800">
<ele>475.429993</ele>
<time>2021-03-31T12:34:12.930Z</time>
</trkpt>
<trkpt lat="30.6131000" lon="34.8556900">
<ele>476.149994</ele>
<time>2021-03-31T12:34:12.930Z</time>
</trkpt>
<trkpt lat="30.6134200" lon="34.8551900">
<ele>480.519989</ele>
<time>2021-03-31T12:34:12.930Z</time>
</trkpt>
<trkpt lat="30.6135200" lon="34.8550500">
<ele>482.690002</ele>
<time>2021-03-31T12:34:12.930Z</time>
</trkpt>
<trkpt lat="30.6135800" lon="34.8550800">
<ele>483.739990</ele>
<time>2021-03-31T12:34:12.930Z</time>
</trkpt>
<trkpt lat="30.6136700" lon="34.8550500">
<ele>485.410004</ele>
<time>2021-03-31T12:34:12.930Z</time>
</trkpt>
<trkpt lat="30.6132900" lon="34.8558700">
<ele>479.350006</ele>
<time>2021-03-31T12:34:12.931Z</time>
</trkpt>
<trkpt lat="30.6133300" lon="34.8558900">
<ele>480.139984</ele>
<time>2021-03-31T12:34:12.931Z</time>
</trkpt>
<trkpt lat="30.6133300" lon="34.8558900">
<ele>480.139984</ele>
<time>2021-03-31T12:34:12.931Z</time>
</trkpt>
<trkpt lat="30.6134600" lon="34.8555900">
<ele>481.799988</ele>
<time>2021-03-31T12:34:12.931Z</time>
</trkpt>
<trkpt lat="30.6135700" lon="34.8553400">
<ele>484.000000</ele>
<time>2021-03-31T12:34:12.931Z</time>
</trkpt>
<trkpt lat="30.6137700" lon="34.8549100">
<ele>486.920013</ele>
<time>2021-03-31T12:34:12.931Z</time>
</trkpt>
<trkpt lat="30.6140100" lon="34.8543400">
<ele>486.529999</ele>
<time>2021-03-31T12:34:12.931Z</time>
</trkpt>
<trkpt lat="30.6140900" lon="34.8541300">
<ele>487.549988</ele>
<time>2021-03-31T12:34:12.931Z</time>
</trkpt>
<trkpt lat="30.6141200" lon="34.8540500">
<ele>488.019989</ele>
<time>2021-03-31T12:34:12.931Z</time>
</trkpt>
<trkpt lat="30.6141500" lon="34.8539500">
<ele>488.609985</ele>
<time>2021-03-31T12:34:12.931Z</time>
</trkpt>
<trkpt lat="30.6143500" lon="34.8533400">
<ele>490.619995</ele>
<time>2021-03-31T12:34:12.931Z</time>
</trkpt>
<trkpt lat="30.6145100" lon="34.8526900">
<ele>493.940002</ele>
<time>2021-03-31T12:34:12.931Z</time>
</trkpt>
<trkpt lat="30.6146600" lon="34.8520100">
<ele>494.299988</ele>
<time>2021-03-31T12:34:12.931Z</time>
</trkpt>
<trkpt lat="30.6148700" lon="34.8511700">
<ele>493.200012</ele>
<time>2021-03-31T12:34:12.931Z</time>
</trkpt>
<trkpt lat="30.6151800" lon="34.8504800">
<ele>491.139984</ele>
<time>2021-03-31T12:34:12.931Z</time>
</trkpt>
<trkpt lat="30.6154500" lon="34.8500500">
<ele>491.129974</ele>
<time>2021-03-31T12:34:12.931Z</time>
</trkpt>
<trkpt lat="30.6159300" lon="34.8494600">
<ele>488.829987</ele>
<time>2021-03-31T12:34:12.931Z</time>
</trkpt>
<trkpt lat="30.6165000" lon="34.8487900">
<ele>493.600006</ele>
<time>2021-03-31T12:34:12.931Z</time>
</trkpt>
<trkpt lat="30.6169100" lon="34.8483100">
<ele>493.579987</ele>
<time>2021-03-31T12:34:12.931Z</time>
</trkpt>
<trkpt lat="30.6172200" lon="34.8478800">
<ele>492.390015</ele>
<time>2021-03-31T12:34:12.931Z</time>
</trkpt>
<trkpt lat="30.6173800" lon="34.8477400">
<ele>491.859985</ele>
<time>2021-03-31T12:34:12.931Z</time>
</trkpt>
<trkpt lat="30.6178100" lon="34.8472400">
<ele>492.289978</ele>
<time>2021-03-31T12:34:12.931Z</time>
</trkpt>
<trkpt lat="30.6183800" lon="34.8465700">
<ele>490.760010</ele>
<time>2021-03-31T12:34:12.931Z</time>
</trkpt>
<trkpt lat="30.6191400" lon="34.8456900">
<ele>496.919983</ele>
<time>2021-03-31T12:34:12.931Z</time>
</trkpt>
<trkpt lat="30.6198200" lon="34.8448800">
<ele>498.189972</ele>
<time>2021-03-31T12:34:12.931Z</time>
</trkpt>
<trkpt lat="30.6204900" lon="34.8441300">
<ele>497.729980</ele>
<time>2021-03-31T12:34:12.931Z</time>
</trkpt>
<trkpt lat="30.6211900" lon="34.8434800">
<ele>498.779999</ele>
<time>2021-03-31T12:34:12.931Z</time>
</trkpt>
<trkpt lat="30.6216800" lon="34.8430400">
<ele>500.880005</ele>
<time>2021-03-31T12:34:12.932Z</time>
</trkpt>
<trkpt lat="30.6218300" lon="34.8429000">
<ele>499.909973</ele>
<time>2021-03-31T12:34:12.932Z</time>
</trkpt>
<trkpt lat="30.6224200" lon="34.8423700">
<ele>501.579987</ele>
<time>2021-03-31T12:34:12.932Z</time>
</trkpt>
<trkpt lat="30.6225500" lon="34.8421400">
<ele>500.970032</ele>
<time>2021-03-31T12:34:12.932Z</time>
</trkpt>
<trkpt lat="30.6227400" lon="34.8419500">
<ele>498.480011</ele>
<time>2021-03-31T12:34:12.932Z</time>
</trkpt>
<trkpt lat="30.6234500" lon="34.8413000">
<ele>514.609985</ele>
<time>2021-03-31T12:34:12.932Z</time>
</trkpt>
<trkpt lat="30.6239800" lon="34.8403900">
<ele>516.330017</ele>
<time>2021-03-31T12:34:12.932Z</time>
</trkpt>
<trkpt lat="30.6241400" lon="34.8396000">
<ele>513.369995</ele>
<time>2021-03-31T12:34:12.932Z</time>
</trkpt>
<trkpt lat="30.6241800" lon="34.8389300">
<ele>511.970001</ele>
<time>2021-03-31T12:34:12.932Z</time>
</trkpt>
<trkpt lat="30.6242100" lon="34.8383100">
<ele>515.729980</ele>
<time>2021-03-31T12:34:12.932Z</time>
</trkpt>
<trkpt lat="30.6242300" lon="34.8379500">
<ele>518.619995</ele>
<time>2021-03-31T12:34:12.932Z</time>
</trkpt>
<trkpt lat="30.6242600" lon="34.8375400">
<ele>521.140015</ele>
<time>2021-03-31T12:34:12.932Z</time>
</trkpt>
<trkpt lat="30.6243000" lon="34.8369900">
<ele>523.760010</ele>
<time>2021-03-31T12:34:12.932Z</time>
</trkpt>
<trkpt lat="30.6243200" lon="34.8365400">
<ele>524.909973</ele>
<time>2021-03-31T12:34:12.932Z</time>
</trkpt>
<trkpt lat="30.6243500" lon="34.8360100">
<ele>527.460022</ele>
<time>2021-03-31T12:34:12.932Z</time>
</trkpt>
<trkpt lat="30.6243900" lon="34.8354800">
<ele>529.159973</ele>
<time>2021-03-31T12:34:12.932Z</time>
</trkpt>
<trkpt lat="30.6244200" lon="34.8350200">
<ele>529.720032</ele>
<time>2021-03-31T12:34:12.932Z</time>
</trkpt>
<trkpt lat="30.6244500" lon="34.8345100">
<ele>532.590027</ele>
<time>2021-03-31T12:34:12.932Z</time>
</trkpt>
<trkpt lat="30.6244500" lon="34.8343600">
<ele>533.359985</ele>
<time>2021-03-31T12:34:12.932Z</time>
</trkpt>
<trkpt lat="30.6244900" lon="34.8337900">
<ele>535.390015</ele>
<time>2021-03-31T12:34:12.932Z</time>
</trkpt>
<trkpt lat="30.6245300" lon="34.8332700">
<ele>536.690002</ele>
<time>2021-03-31T12:34:12.932Z</time>
</trkpt>
<trkpt lat="30.6245500" lon="34.8327500">
<ele>538.239990</ele>
<time>2021-03-31T12:34:12.932Z</time>
</trkpt>
<trkpt lat="30.6245800" lon="34.8322500">
<ele>539.000000</ele>
<time>2021-03-31T12:34:12.932Z</time>
</trkpt>
<trkpt lat="30.6246200" lon="34.8316300">
<ele>541.669983</ele>
<time>2021-03-31T12:34:12.932Z</time>
</trkpt>
<trkpt lat="30.6246500" lon="34.8310800">
<ele>543.559998</ele>
<time>2021-03-31T12:34:12.932Z</time>
</trkpt>
<trkpt lat="30.6246700" lon="34.8306500">
<ele>545.100037</ele>
<time>2021-03-31T12:34:12.932Z</time>
</trkpt>
<trkpt lat="30.6247000" lon="34.8301300">
<ele>547.330017</ele>
<time>2021-03-31T12:34:12.932Z</time>
</trkpt>
<trkpt lat="30.6247300" lon="34.8297500">
<ele>548.059998</ele>
<time>2021-03-31T12:34:12.932Z</time>
</trkpt>
<trkpt lat="30.6247600" lon="34.8292700">
<ele>549.989990</ele>
<time>2021-03-31T12:34:12.932Z</time>
</trkpt>
<trkpt lat="30.6248700" lon="34.8286700">
<ele>554.590027</ele>
<time>2021-03-31T12:34:12.932Z</time>
</trkpt>
<trkpt lat="30.6249000" lon="34.8283300">
<ele>557.580017</ele>
<time>2021-03-31T12:34:12.932Z</time>
</trkpt>
<trkpt lat="30.6249200" lon="34.8278700">
<ele>560.470032</ele>
<time>2021-03-31T12:34:12.933Z</time>
</trkpt>
<trkpt lat="30.6249500" lon="34.8274600">
<ele>563.590027</ele>
<time>2021-03-31T12:34:12.933Z</time>
</trkpt>
<trkpt lat="30.6249700" lon="34.8270400">
<ele>565.609985</ele>
<time>2021-03-31T12:34:12.933Z</time>
</trkpt>
<trkpt lat="30.6250000" lon="34.8266400">
<ele>567.100037</ele>
<time>2021-03-31T12:34:12.933Z</time>
</trkpt>
<trkpt lat="30.6250200" lon="34.8262900">
<ele>568.619995</ele>
<time>2021-03-31T12:34:12.933Z</time>
</trkpt>
<trkpt lat="30.6250500" lon="34.8258900">
<ele>570.989990</ele>
<time>2021-03-31T12:34:12.933Z</time>
</trkpt>
<trkpt lat="30.6250600" lon="34.8256100">
<ele>573.839966</ele>
<time>2021-03-31T12:34:12.933Z</time>
</trkpt>
<trkpt lat="30.6250600" lon="34.8255100">
<ele>574.960022</ele>
<time>2021-03-31T12:34:12.933Z</time>
</trkpt>
<trkpt lat="30.6250400" lon="34.8252500">
<ele>577.649963</ele>
<time>2021-03-31T12:34:12.933Z</time>
</trkpt>
<trkpt lat="30.6250100" lon="34.8249400">
<ele>579.570007</ele>
<time>2021-03-31T12:34:12.933Z</time>
</trkpt>
<trkpt lat="30.6249400" lon="34.8245400">
<ele>582.099976</ele>
<time>2021-03-31T12:34:12.933Z</time>
</trkpt>
<trkpt lat="30.6248700" lon="34.8242400">
<ele>585.479980</ele>
<time>2021-03-31T12:34:12.933Z</time>
</trkpt>
<trkpt lat="30.6247800" lon="34.8239600">
<ele>588.440002</ele>
<time>2021-03-31T12:34:12.933Z</time>
</trkpt>
<trkpt lat="30.6246600" lon="34.8236600">
<ele>591.850037</ele>
<time>2021-03-31T12:34:12.933Z</time>
</trkpt>
<trkpt lat="30.6245200" lon="34.8233700">
<ele>594.779968</ele>
<time>2021-03-31T12:34:12.933Z</time>
</trkpt>
<trkpt lat="30.6243500" lon="34.8230800">
<ele>597.030029</ele>
<time>2021-03-31T12:34:12.933Z</time>
</trkpt>
<trkpt lat="30.6241900" lon="34.8228300">
<ele>598.469971</ele>
<time>2021-03-31T12:34:12.933Z</time>
</trkpt>
<trkpt lat="30.6240100" lon="34.8225400">
<ele>600.450012</ele>
<time>2021-03-31T12:34:12.933Z</time>
</trkpt>
<trkpt lat="30.6238600" lon="34.8223100">
<ele>605.700012</ele>
<time>2021-03-31T12:34:12.933Z</time>
</trkpt>
<trkpt lat="30.6236700" lon="34.8220300">
<ele>611.440002</ele>
<time>2021-03-31T12:34:12.933Z</time>
</trkpt>
<trkpt lat="30.6234800" lon="34.8217400">
<ele>614.469971</ele>
<time>2021-03-31T12:34:12.933Z</time>
</trkpt>
<trkpt lat="30.6233400" lon="34.8215200">
<ele>615.520020</ele>
<time>2021-03-31T12:34:12.933Z</time>
</trkpt>
<trkpt lat="30.6232400" lon="34.8213800">
<ele>616.059998</ele>
<time>2021-03-31T12:34:12.933Z</time>
</trkpt>
<trkpt lat="30.6230800" lon="34.8211200">
<ele>617.940002</ele>
<time>2021-03-31T12:34:12.933Z</time>
</trkpt>
<trkpt lat="30.6229200" lon="34.8208800">
<ele>620.070007</ele>
<time>2021-03-31T12:34:12.933Z</time>
</trkpt>
<trkpt lat="30.6227500" lon="34.8206200">
<ele>621.720032</ele>
<time>2021-03-31T12:34:12.933Z</time>
</trkpt>
<trkpt lat="30.6225800" lon="34.8203600">
<ele>623.000000</ele>
<time>2021-03-31T12:34:12.933Z</time>
</trkpt>
<trkpt lat="30.6223900" lon="34.8200900">
<ele>625.200012</ele>
<time>2021-03-31T12:34:12.933Z</time>
</trkpt>
<trkpt lat="30.6222000" lon="34.8199000">
<ele>630.470032</ele>
<time>2021-03-31T12:34:12.933Z</time>
</trkpt>
<trkpt lat="30.6219900" lon="34.8197100">
<ele>635.450012</ele>
<time>2021-03-31T12:34:12.933Z</time>
</trkpt>
<trkpt lat="30.6217400" lon="34.8195200">
<ele>640.130005</ele>
<time>2021-03-31T12:34:12.933Z</time>
</trkpt>
<trkpt lat="30.6214100" lon="34.8193200">
<ele>637.630005</ele>
<time>2021-03-31T12:34:12.934Z</time>
</trkpt>
<trkpt lat="30.6211200" lon="34.8192100">
<ele>635.350037</ele>
<time>2021-03-31T12:34:12.934Z</time>
</trkpt>
<trkpt lat="30.6208100" lon="34.8191100">
<ele>642.530029</ele>
<time>2021-03-31T12:34:12.934Z</time>
</trkpt>
<trkpt lat="30.6204500" lon="34.8189500">
<ele>641.170044</ele>
<time>2021-03-31T12:34:12.934Z</time>
</trkpt>
<trkpt lat="30.6203200" lon="34.8186700">
<ele>634.579956</ele>
<time>2021-03-31T12:34:12.934Z</time>
</trkpt>
<trkpt lat="30.6203900" lon="34.8184500">
<ele>633.600037</ele>
<time>2021-03-31T12:34:12.934Z</time>
</trkpt>
<trkpt lat="30.6206000" lon="34.8183300">
<ele>644.750000</ele>
<time>2021-03-31T12:34:12.934Z</time>
</trkpt>
<trkpt lat="30.6208500" lon="34.8183700">
<ele>653.330017</ele>
<time>2021-03-31T12:34:12.934Z</time>
</trkpt>
<trkpt lat="30.6211500" lon="34.8184500">
<ele>657.660034</ele>
<time>2021-03-31T12:34:12.934Z</time>
</trkpt>
<trkpt lat="30.6214100" lon="34.8185300">
<ele>667.250000</ele>
<time>2021-03-31T12:34:12.934Z</time>
</trkpt>
<trkpt lat="30.6216200" lon="34.8185900">
<ele>670.569946</ele>
<time>2021-03-31T12:34:12.934Z</time>
</trkpt>
<trkpt lat="30.6218900" lon="34.8186600">
<ele>669.350037</ele>
<time>2021-03-31T12:34:12.934Z</time>
</trkpt>
<trkpt lat="30.6221700" lon="34.8187400">
<ele>664.940002</ele>
<time>2021-03-31T12:34:12.934Z</time>
</trkpt>
<trkpt lat="30.6224200" lon="34.8188200">
<ele>657.270020</ele>
<time>2021-03-31T12:34:12.934Z</time>
</trkpt>
<trkpt lat="30.6226900" lon="34.8189100">
<ele>650.220032</ele>
<time>2021-03-31T12:34:12.934Z</time>
</trkpt>
<trkpt lat="30.6229000" lon="34.8189500">
<ele>649.289978</ele>
<time>2021-03-31T12:34:12.934Z</time>
</trkpt>
<trkpt lat="30.6229600" lon="34.8189400">
<ele>650.140015</ele>
<time>2021-03-31T12:34:12.934Z</time>
</trkpt>
<trkpt lat="30.6230100" lon="34.8189200">
<ele>651.039978</ele>
<time>2021-03-31T12:34:12.934Z</time>
</trkpt>
<trkpt lat="30.6231100" lon="34.8188700">
<ele>653.489990</ele>
<time>2021-03-31T12:34:12.934Z</time>
</trkpt>
<trkpt lat="30.6231600" lon="34.8186900">
<ele>660.570007</ele>
<time>2021-03-31T12:34:12.934Z</time>
</trkpt>
<trkpt lat="30.6231400" lon="34.8186300">
<ele>662.619995</ele>
<time>2021-03-31T12:34:12.934Z</time>
</trkpt>
<trkpt lat="30.6229700" lon="34.8184300">
<ele>667.890015</ele>
<time>2021-03-31T12:34:12.934Z</time>
</trkpt>
<trkpt lat="30.6227900" lon="34.8183500">
<ele>670.349976</ele>
<time>2021-03-31T12:34:12.934Z</time>
</trkpt>
<trkpt lat="30.6226900" lon="34.8183000">
<ele>677.119995</ele>
<time>2021-03-31T12:34:12.934Z</time>
</trkpt>
<trkpt lat="30.6224600" lon="34.8181900">
<ele>695.019958</ele>
<time>2021-03-31T12:34:12.934Z</time>
</trkpt>
<trkpt lat="30.6222100" lon="34.8180600">
<ele>702.730042</ele>
<time>2021-03-31T12:34:12.934Z</time>
</trkpt>
<trkpt lat="30.6219900" lon="34.8179600">
<ele>703.059998</ele>
<time>2021-03-31T12:34:12.934Z</time>
</trkpt>
<trkpt lat="30.6217400" lon="34.8178500">
<ele>698.519958</ele>
<time>2021-03-31T12:34:12.934Z</time>
</trkpt>
<trkpt lat="30.6214900" lon="34.8177300">
<ele>692.510010</ele>
<time>2021-03-31T12:34:12.934Z</time>
</trkpt>
<trkpt lat="30.6212500" lon="34.8175900">
<ele>685.720032</ele>
<time>2021-03-31T12:34:12.934Z</time>
</trkpt>
<trkpt lat="30.6213100" lon="34.8174100">
<ele>692.520020</ele>
<time>2021-03-31T12:34:12.934Z</time>
</trkpt>
<trkpt lat="30.6215700" lon="34.8174800">
<ele>705.910034</ele>
<time>2021-03-31T12:34:12.935Z</time>
</trkpt>
<trkpt lat="30.6218700" lon="34.8175700">
<ele>715.450012</ele>
<time>2021-03-31T12:34:12.935Z</time>
</trkpt>
<trkpt lat="30.6220900" lon="34.8176300">
<ele>721.500000</ele>
<time>2021-03-31T12:34:12.935Z</time>
</trkpt>
<trkpt lat="30.6224100" lon="34.8177400">
<ele>726.869995</ele>
<time>2021-03-31T12:34:12.935Z</time>
</trkpt>
<trkpt lat="30.6227100" lon="34.8178400">
<ele>713.049988</ele>
<time>2021-03-31T12:34:12.935Z</time>
</trkpt>
<trkpt lat="30.6229400" lon="34.8179200">
<ele>699.320007</ele>
<time>2021-03-31T12:34:12.935Z</time>
</trkpt>
<trkpt lat="30.6231300" lon="34.8179900">
<ele>692.019958</ele>
<time>2021-03-31T12:34:12.935Z</time>
</trkpt>
<trkpt lat="30.6233600" lon="34.8180700">
<ele>691.850037</ele>
<time>2021-03-31T12:34:12.935Z</time>
</trkpt>
<trkpt lat="30.6235000" lon="34.8179700">
<ele>698.190002</ele>
<time>2021-03-31T12:34:12.935Z</time>
</trkpt>
<trkpt lat="30.6235200" lon="34.8179200">
<ele>700.099976</ele>
<time>2021-03-31T12:34:12.935Z</time>
</trkpt>
<trkpt lat="30.6234500" lon="34.8176900">
<ele>706.260010</ele>
<time>2021-03-31T12:34:12.935Z</time>
</trkpt>
<trkpt lat="30.6232000" lon="34.8175700">
<ele>711.119995</ele>
<time>2021-03-31T12:34:12.935Z</time>
</trkpt>
<trkpt lat="30.6229800" lon="34.8174700">
<ele>722.549988</ele>
<time>2021-03-31T12:34:12.935Z</time>
</trkpt>
<trkpt lat="30.6227500" lon="34.8173600">
<ele>733.990051</ele>
<time>2021-03-31T12:34:12.935Z</time>
</trkpt>
<trkpt lat="30.6225700" lon="34.8172700">
<ele>731.300049</ele>
<time>2021-03-31T12:34:12.935Z</time>
</trkpt>
<trkpt lat="30.6224800" lon="34.8172300">
<ele>728.729980</ele>
<time>2021-03-31T12:34:12.935Z</time>
</trkpt>
<trkpt lat="30.6222500" lon="34.8171100">
<ele>726.890015</ele>
<time>2021-03-31T12:34:12.935Z</time>
</trkpt>
<trkpt lat="30.6220400" lon="34.8169700">
<ele>727.069946</ele>
<time>2021-03-31T12:34:12.935Z</time>
</trkpt>
<trkpt lat="30.6217900" lon="34.8167100">
<ele>727.669983</ele>
<time>2021-03-31T12:34:12.935Z</time>
</trkpt>
<trkpt lat="30.6216400" lon="34.8164500">
<ele>729.160034</ele>
<time>2021-03-31T12:34:12.935Z</time>
</trkpt>
<trkpt lat="30.6215700" lon="34.8163400">
<ele>729.270020</ele>
<time>2021-03-31T12:34:12.935Z</time>
</trkpt>
<trkpt lat="30.6215300" lon="34.8162800">
<ele>729.119995</ele>
<time>2021-03-31T12:34:12.935Z</time>
</trkpt>
<trkpt lat="30.6213300" lon="34.8160200">
<ele>731.090027</ele>
<time>2021-03-31T12:34:12.935Z</time>
</trkpt>
<trkpt lat="30.6209600" lon="34.8156900">
<ele>738.179993</ele>
<time>2021-03-31T12:34:12.935Z</time>
</trkpt>
<trkpt lat="30.6203800" lon="34.8152800">
<ele>743.280029</ele>
<time>2021-03-31T12:34:12.935Z</time>
</trkpt>
<trkpt lat="30.6198000" lon="34.8149900">
<ele>738.960022</ele>
<time>2021-03-31T12:34:12.935Z</time>
</trkpt>
<trkpt lat="30.6195000" lon="34.8146200">
<ele>737.020020</ele>
<time>2021-03-31T12:34:12.935Z</time>
</trkpt>
<trkpt lat="30.6193400" lon="34.8142200">
<ele>737.549988</ele>
<time>2021-03-31T12:34:12.935Z</time>
</trkpt>
<trkpt lat="30.6191800" lon="34.8138100">
<ele>737.170044</ele>
<time>2021-03-31T12:34:12.935Z</time>
</trkpt>
<trkpt lat="30.6190500" lon="34.8134300">
<ele>741.830017</ele>
<time>2021-03-31T12:34:12.935Z</time>
</trkpt>
<trkpt lat="30.6189300" lon="34.8131300">
<ele>744.419983</ele>
<time>2021-03-31T12:34:12.935Z</time>
</trkpt>
<trkpt lat="30.6188700" lon="34.8129700">
<ele>741.779968</ele>
<time>2021-03-31T12:34:12.935Z</time>
</trkpt>
<trkpt lat="30.6187600" lon="34.8126800">
<ele>743.670044</ele>
<time>2021-03-31T12:34:12.936Z</time>
</trkpt>
<trkpt lat="30.6186600" lon="34.8124000">
<ele>744.980042</ele>
<time>2021-03-31T12:34:12.936Z</time>
</trkpt>
<trkpt lat="30.6186300" lon="34.8123300">
<ele>745.390015</ele>
<time>2021-03-31T12:34:12.936Z</time>
</trkpt>
<trkpt lat="30.6185300" lon="34.8120800">
<ele>749.690002</ele>
<time>2021-03-31T12:34:12.936Z</time>
</trkpt>
<trkpt lat="30.6184100" lon="34.8118400">
<ele>751.640015</ele>
<time>2021-03-31T12:34:12.936Z</time>
</trkpt>
<trkpt lat="30.6182800" lon="34.8116000">
<ele>753.820007</ele>
<time>2021-03-31T12:34:12.936Z</time>
</trkpt>
<trkpt lat="30.6181500" lon="34.8114100">
<ele>755.609985</ele>
<time>2021-03-31T12:34:12.936Z</time>
</trkpt>
<trkpt lat="30.6180300" lon="34.8112300">
<ele>759.000000</ele>
<time>2021-03-31T12:34:12.936Z</time>
</trkpt>
<trkpt lat="30.6178600" lon="34.8110400">
<ele>763.330017</ele>
<time>2021-03-31T12:34:12.936Z</time>
</trkpt>
<trkpt lat="30.6177200" lon="34.8108700">
<ele>765.830017</ele>
<time>2021-03-31T12:34:12.936Z</time>
</trkpt>
<trkpt lat="30.6175900" lon="34.8107100">
<ele>772.140015</ele>
<time>2021-03-31T12:34:12.936Z</time>
</trkpt>
<trkpt lat="30.6174200" lon="34.8105200">
<ele>776.680054</ele>
<time>2021-03-31T12:34:12.936Z</time>
</trkpt>
<trkpt lat="30.6173700" lon="34.8104700">
<ele>777.880005</ele>
<time>2021-03-31T12:34:12.936Z</time>
</trkpt>
<trkpt lat="30.6173300" lon="34.8104300">
<ele>778.640015</ele>
<time>2021-03-31T12:34:12.936Z</time>
</trkpt>
<trkpt lat="30.6171600" lon="34.8102200">
<ele>780.570007</ele>
<time>2021-03-31T12:34:12.936Z</time>
</trkpt>
<trkpt lat="30.6169900" lon="34.8100100">
<ele>778.260010</ele>
<time>2021-03-31T12:34:12.936Z</time>
</trkpt>
<trkpt lat="30.6168600" lon="34.8098400">
<ele>778.250000</ele>
<time>2021-03-31T12:34:12.936Z</time>
</trkpt>
<trkpt lat="30.6168100" lon="34.8097700">
<ele>778.599976</ele>
<time>2021-03-31T12:34:12.936Z</time>
</trkpt>
<trkpt lat="30.6167000" lon="34.8096100">
<ele>780.910034</ele>
<time>2021-03-31T12:34:12.936Z</time>
</trkpt>
<trkpt lat="30.6166600" lon="34.8095700">
<ele>781.170044</ele>
<time>2021-03-31T12:34:12.936Z</time>
</trkpt>
<trkpt lat="30.6165400" lon="34.8094200">
<ele>783.420044</ele>
<time>2021-03-31T12:34:12.936Z</time>
</trkpt>
<trkpt lat="30.6163900" lon="34.8092600">
<ele>787.650024</ele>
<time>2021-03-31T12:34:12.936Z</time>
</trkpt>
<trkpt lat="30.6161600" lon="34.8091300">
<ele>781.900024</ele>
<time>2021-03-31T12:34:12.936Z</time>
</trkpt>
<trkpt lat="30.6160100" lon="34.8091000">
<ele>770.270020</ele>
<time>2021-03-31T12:34:12.936Z</time>
</trkpt>
<trkpt lat="30.6157700" lon="34.8090900">
<ele>749.929993</ele>
<time>2021-03-31T12:34:12.936Z</time>
</trkpt>
<trkpt lat="30.6155400" lon="34.8091000">
<ele>741.790039</ele>
<time>2021-03-31T12:34:12.936Z</time>
</trkpt>
<trkpt lat="30.6152900" lon="34.8091200">
<ele>738.330017</ele>
<time>2021-03-31T12:34:12.936Z</time>
</trkpt>
<trkpt lat="30.6149600" lon="34.8090900">
<ele>741.900024</ele>
<time>2021-03-31T12:34:12.936Z</time>
</trkpt>
<trkpt lat="30.6147100" lon="34.8090500">
<ele>742.010010</ele>
<time>2021-03-31T12:34:12.936Z</time>
</trkpt>
<trkpt lat="30.6144700" lon="34.8090300">
<ele>742.039978</ele>
<time>2021-03-31T12:34:12.936Z</time>
</trkpt>
<trkpt lat="30.6143100" lon="34.8090000">
<ele>745.829956</ele>
<time>2021-03-31T12:34:12.936Z</time>
</trkpt>
<trkpt lat="30.6141000" lon="34.8090800">
<ele>746.260010</ele>
<time>2021-03-31T12:34:12.937Z</time>
</trkpt>
<trkpt lat="30.6138500" lon="34.8090400">
<ele>752.419983</ele>
<time>2021-03-31T12:34:12.937Z</time>
</trkpt>
<trkpt lat="30.6136100" lon="34.8089900">
<ele>752.080017</ele>
<time>2021-03-31T12:34:12.937Z</time>
</trkpt>
<trkpt lat="30.6134800" lon="34.8089700">
<ele>752.830017</ele>
<time>2021-03-31T12:34:12.937Z</time>
</trkpt>
<trkpt lat="30.6134100" lon="34.8089600">
<ele>752.760010</ele>
<time>2021-03-31T12:34:12.937Z</time>
</trkpt>
<trkpt lat="30.6133400" lon="34.8089600">
<ele>752.280029</ele>
<time>2021-03-31T12:34:12.937Z</time>
</trkpt>
<trkpt lat="30.6131100" lon="34.8089100">
<ele>748.810059</ele>
<time>2021-03-31T12:34:12.937Z</time>
</trkpt>
<trkpt lat="30.6129300" lon="34.8088000">
<ele>752.580017</ele>
<time>2021-03-31T12:34:12.937Z</time>
</trkpt>
<trkpt lat="30.6128600" lon="34.8087800">
<ele>753.960022</ele>
<time>2021-03-31T12:34:12.937Z</time>
</trkpt>
<trkpt lat="30.6127800" lon="34.8087600">
<ele>755.479980</ele>
<time>2021-03-31T12:34:12.937Z</time>
</trkpt>
<trkpt lat="30.6125600" lon="34.8087300">
<ele>759.919983</ele>
<time>2021-03-31T12:34:12.937Z</time>
</trkpt>
<trkpt lat="30.6123500" lon="34.8086900">
<ele>768.639954</ele>
<time>2021-03-31T12:34:12.937Z</time>
</trkpt>
<trkpt lat="30.6121700" lon="34.8086600">
<ele>776.989990</ele>
<time>2021-03-31T12:34:12.937Z</time>
</trkpt>
<trkpt lat="30.6119600" lon="34.8086200">
<ele>786.000000</ele>
<time>2021-03-31T12:34:12.937Z</time>
</trkpt>
<trkpt lat="30.6117200" lon="34.8085800">
<ele>797.619995</ele>
<time>2021-03-31T12:34:12.937Z</time>
</trkpt>
<trkpt lat="30.6115200" lon="34.8085300">
<ele>805.750061</ele>
<time>2021-03-31T12:34:12.937Z</time>
</trkpt>
<trkpt lat="30.6112700" lon="34.8084400">
<ele>817.000000</ele>
<time>2021-03-31T12:34:12.937Z</time>
</trkpt>
<trkpt lat="30.6110500" lon="34.8083800">
<ele>826.710022</ele>
<time>2021-03-31T12:34:12.937Z</time>
</trkpt>
<trkpt lat="30.6108200" lon="34.8083100">
<ele>834.560059</ele>
<time>2021-03-31T12:34:12.937Z</time>
</trkpt>
<trkpt lat="30.6106200" lon="34.8082500">
<ele>836.799988</ele>
<time>2021-03-31T12:34:12.937Z</time>
</trkpt>
<trkpt lat="30.6104400" lon="34.8081900">
<ele>839.229980</ele>
<time>2021-03-31T12:34:12.937Z</time>
</trkpt>
<trkpt lat="30.6101600" lon="34.8081100">
<ele>842.070007</ele>
<time>2021-03-31T12:34:12.937Z</time>
</trkpt>
<trkpt lat="30.6101000" lon="34.8080900">
<ele>842.489990</ele>
<time>2021-03-31T12:34:12.937Z</time>
</trkpt>
<trkpt lat="30.6099500" lon="34.8080300">
<ele>843.390015</ele>
<time>2021-03-31T12:34:12.937Z</time>
</trkpt>
<trkpt lat="30.6098600" lon="34.8079600">
<ele>843.659973</ele>
<time>2021-03-31T12:34:12.937Z</time>
</trkpt>
<trkpt lat="30.6097300" lon="34.8077500">
<ele>841.859985</ele>
<time>2021-03-31T12:34:12.937Z</time>
</trkpt>
<trkpt lat="30.6096800" lon="34.8076400">
<ele>840.700012</ele>
<time>2021-03-31T12:34:12.937Z</time>
</trkpt>
<trkpt lat="30.6096500" lon="34.8075300">
<ele>839.699951</ele>
<time>2021-03-31T12:34:12.937Z</time>
</trkpt>
<trkpt lat="30.6096200" lon="34.8073800">
<ele>837.540039</ele>
<time>2021-03-31T12:34:12.937Z</time>
</trkpt>
<trkpt lat="30.6096700" lon="34.8071200">
<ele>834.659973</ele>
<time>2021-03-31T12:34:12.937Z</time>
</trkpt>
<trkpt lat="30.6098200" lon="34.8068500">
<ele>831.880005</ele>
<time>2021-03-31T12:34:12.937Z</time>
</trkpt>
<trkpt lat="30.6101100" lon="34.8064400">
<ele>830.509949</ele>
<time>2021-03-31T12:34:12.937Z</time>
</trkpt>
<trkpt lat="30.6103200" lon="34.8061600">
<ele>829.950012</ele>
<time>2021-03-31T12:34:12.938Z</time>
</trkpt>
<trkpt lat="30.6105800" lon="34.8058100">
<ele>826.090027</ele>
<time>2021-03-31T12:34:12.938Z</time>
</trkpt>
<trkpt lat="30.6108400" lon="34.8054500">
<ele>827.789978</ele>
<time>2021-03-31T12:34:12.938Z</time>
</trkpt>
<trkpt lat="30.6110200" lon="34.8052000">
<ele>828.029968</ele>
<time>2021-03-31T12:34:12.938Z</time>
</trkpt>
<trkpt lat="30.6110200" lon="34.8052000">
<ele>828.029968</ele>
<time>2021-03-31T12:34:12.938Z</time>
</trkpt>
<trkpt lat="30.6111000" lon="34.8051000">
<ele>827.750061</ele>
<time>2021-03-31T12:34:12.938Z</time>
</trkpt>
<trkpt lat="30.6113800" lon="34.8048000">
<ele>828.189941</ele>
<time>2021-03-31T12:34:12.938Z</time>
</trkpt>
<trkpt lat="30.6117000" lon="34.8045900">
<ele>826.840027</ele>
<time>2021-03-31T12:34:12.938Z</time>
</trkpt>
<trkpt lat="30.6118200" lon="34.8045600">
<ele>824.809998</ele>
<time>2021-03-31T12:34:12.938Z</time>
</trkpt>
<trkpt lat="30.6119300" lon="34.8046800">
<ele>823.039978</ele>
<time>2021-03-31T12:34:12.938Z</time>
</trkpt>
<trkpt lat="30.6120700" lon="34.8046700">
<ele>824.369995</ele>
<time>2021-03-31T12:34:12.938Z</time>
</trkpt>
</trkseg>
</trk>
</gpx>
